[[{"header":{"parameterUnit":"m.s-1","parameterCategory":1,"la1":30.6,"la2":29.2853,"lo1":-89.7004,"lo2":-87.6739,"dy":0.0162,"dx":0.0183,"nx":112,"ny":82,"refTime":"2024-02-21T06:00:00:Z","depth":0,"parameterNumber":2,"parameterNumberName":"U-component_of_WINDS"},"data":[0.0,0.0,0.0,0.0,0.0,0.0,0.0,0.0,0.0,0.0,0.0,0.0,0.0,0.0,0.0,0.0,0.0,0.0,0.0,0.0,0.0,0.0,0.0,0.0,0.0,0.0,0.0,0.0,0.0,0.0,0.0,0.0,0.0,0.0,0.0,0.0,0.0,0.0,0.0,0.0,0.0,0.0,0.0,0.0,0.0,0.0,0.0,0.0,0.0,0.0,0.0,0.0,0.0,0.0,0.0,0.0,0.0,0.0,0.0,0.0,0.0,0.0,0.0,0.0,0.0,0.0,0.0,0.0,0.0,0.0,0.0,0.0,0.0,0.0,0.0,0.0,0.0,0.0,0.0,0.0,0.0,0.0,0.0,0.0,0.0,0.0,0.0,0.0,0.0,0.0,-3.0324,-3.5385,-3.9986,-4.2372,-4.1484,-3.9904,-3.7184,-3.3046,0.0,0.0,0.0,0.0,0.0,0.0,0.0,0.0,0.0,0.0,0.0,0.0,0.0,0.0,0.0,0.0,0.0,0.0,0.0,0.0,0.0,0.0,0.0,0.0,0.0,0.0,0.0,0.0,0.0,0.0,0.0,0.0,0.0,0.0,0.0,0.0,0.0,0.0,0.0,0.0,0.0,0.0,0.0,0.0,0.0,0.0,0.0,0.0,0.0,0.0,0.0,0.0,0.0,0.0,0.0,0.0,0.0,0.0,0.0,0.0,0.0,0.0,0.0,0.0,0.0,0.0,0.0,0.0,0.0,0.0,0.0,0.0,0.0,0.0,0.0,0.0,0.0,0.0,0.0,0.0,0.0,0.0,0.0,0.0,0.0,0.0,0.0,0.0,0.0,0.0,0.0,0.0,0.0,0.0,0.0,0.0,0.0,0.0,0.0,0.0,0.0,0.0,0.0,0.0,-3.2782,-3.767,-3.937,-4.024,-4.0472,-3.6934,-3.4367,-3.3565,0.0,0.0,0.0,0.0,0.0,0.0,0.0,0.0,0.0,0.0,0.0,0.0,0.0,0.0,0.0,0.0,0.0,0.0,0.0,0.0,0.0,0.0,0.0,0.0,0.0,0.0,0.0,0.0,0.0,0.0,0.0,0.0,0.0,0.0,0.0,0.0,0.0,0.0,0.0,0.0,0.0,0.0,0.0,0.0,0.0,0.0,0.0,0.0,0.0,0.0,0.0,0.0,0.0,0.0,0.0,0.0,0.0,0.0,0.0,0.0,0.0,0.0,0.0,0.0,0.0,0.0,0.0,0.0,0.0,0.0,0.0,0.0,0.0,0.0,0.0,0.0,0.0,0.0,0.0,0.0,0.0,0.0,0.0,0.0,0.0,0.0,0.0,0.0,0.0,0.0,0.0,0.0,0.0,0.0,0.0,0.0,0.0,0.0,0.0,0.0,0.0,0.0,0.0,-3.1833,-3.5016,-3.8648,-3.9938,-4.0359,-4.0015,-3.6746,-3.4264,-3.3233,-3.0821,0.0,0.0,0.0,0.0,0.0,0.0,0.0,0.0,0.0,0.0,0.0,0.0,0.0,0.0,0.0,0.0,0.0,0.0,0.0,0.0,0.0,0.0,0.0,0.0,0.0,0.0,0.0,0.0,0.0,0.0,0.0,0.0,0.0,0.0,0.0,0.0,0.0,0.0,0.0,0.0,0.0,0.0,0.0,0.0,0.0,0.0,0.0,0.0,0.0,0.0,0.0,0.0,0.0,0.0,0.0,0.0,0.0,0.0,0.0,0.0,0.0,0.0,0.0,0.0,0.0,0.0,0.0,0.0,0.0,0.0,0.0,0.0,0.0,0.0,0.0,0.0,0.0,0.0,0.0,0.0,0.0,0.0,0.0,0.0,0.0,0.0,0.0,0.0,0.0,0.0,0.0,0.0,0.0,0.0,0.0,0.0,0.0,0.0,0.0,0.0,0.0,0.0,-3.4169,-3.6178,-3.9008,-4.0345,-4.0563,-3.9509,-3.7024,-3.4746,-3.2871,-2.9886,0.0,0.0,0.0,0.0,0.0,0.0,0.0,0.0,0.0,0.0,0.0,0.0,0.0,0.0,0.0,0.0,0.0,0.0,0.0,0.0,0.0,0.0,0.0,0.0,0.0,0.0,0.0,0.0,0.0,0.0,0.0,0.0,0.0,0.0,0.0,0.0,0.0,0.0,0.0,0.0,0.0,0.0,0.0,0.0,0.0,0.0,0.0,0.0,0.0,0.0,0.0,0.0,0.0,0.0,0.0,0.0,0.0,0.0,0.0,0.0,0.0,0.0,0.0,0.0,0.0,0.0,0.0,0.0,0.0,0.0,0.0,0.0,0.0,0.0,0.0,0.0,0.0,0.0,0.0,0.0,0.0,0.0,0.0,0.0,0.0,0.0,0.0,0.0,0.0,0.0,0.0,0.0,0.0,0.0,0.0,0.0,0.0,0.0,0.0,0.0,0.0,0.0,-3.3711,-3.5584,-3.8938,-3.9848,-3.9716,-3.8568,-3.6825,-3.4959,-3.2994,-3.0616,0.0,0.0,0.0,0.0,0.0,0.0,0.0,0.0,0.0,0.0,0.0,0.0,0.0,0.0,0.0,0.0,0.0,0.0,0.0,0.0,0.0,0.0,0.0,0.0,0.0,0.0,0.0,0.0,0.0,0.0,0.0,0.0,0.0,0.0,0.0,0.0,0.0,0.0,0.0,0.0,0.0,0.0,0.0,0.0,0.0,0.0,0.0,0.0,0.0,0.0,0.0,0.0,0.0,0.0,0.0,0.0,0.0,0.0,0.0,0.0,0.0,0.0,0.0,0.0,0.0,0.0,0.0,0.0,0.0,0.0,0.0,0.0,0.0,0.0,0.0,0.0,0.0,0.0,0.0,0.0,0.0,0.0,0.0,0.0,0.0,0.0,0.0,0.0,0.0,0.0,0.0,0.0,0.0,0.0,0.0,0.0,0.0,0.0,0.0,0.0,0.0,0.0,-3.3634,-3.5063,0.0,-3.8354,-3.8338,-3.7186,-3.4945,-3.3285,-3.2435,0.0,0.0,0.0,0.0,0.0,0.0,0.0,0.0,0.0,0.0,0.0,0.0,0.0,0.0,0.0,0.0,0.0,0.0,0.0,0.0,0.0,0.0,0.0,0.0,0.0,0.0,0.0,0.0,0.0,0.0,0.0,0.0,0.0,0.0,0.0,0.0,0.0,0.0,0.0,0.0,0.0,0.0,0.0,0.0,0.0,0.0,0.0,0.0,0.0,0.0,0.0,0.0,0.0,0.0,0.0,0.0,0.0,0.0,0.0,0.0,0.0,0.0,0.0,0.0,0.0,0.0,0.0,0.0,0.0,0.0,0.0,0.0,0.0,0.0,0.0,0.0,0.0,0.0,0.0,0.0,0.0,0.0,0.0,0.0,0.0,0.0,0.0,0.0,0.0,0.0,0.0,0.0,0.0,0.0,0.0,0.0,0.0,0.0,0.0,0.0,0.0,0.0,-3.2211,-3.3455,-3.4787,0.0,-3.7469,-3.7433,-3.6027,-3.3992,-3.2475,-3.1788,0.0,0.0,0.0,0.0,0.0,0.0,0.0,0.0,0.0,0.0,0.0,0.0,0.0,0.0,0.0,0.0,0.0,0.0,0.0,0.0,0.0,0.0,0.0,0.0,0.0,0.0,0.0,0.0,0.0,0.0,0.0,0.0,0.0,0.0,0.0,0.0,0.0,0.0,0.0,0.0,0.0,0.0,0.0,0.0,0.0,0.0,0.0,0.0,0.0,0.0,0.0,0.0,0.0,0.0,0.0,0.0,0.0,0.0,0.0,0.0,0.0,0.0,0.0,0.0,0.0,0.0,0.0,0.0,0.0,0.0,0.0,0.0,0.0,0.0,0.0,0.0,0.0,0.0,0.0,0.0,0.0,0.0,0.0,0.0,0.0,0.0,0.0,0.0,0.0,0.0,0.0,0.0,0.0,0.0,0.0,0.0,0.0,0.0,0.0,0.0,0.0,0.0,-3.1515,-3.3147,-3.4814,-3.65,-3.7469,-3.7164,-3.5255,-3.426,-3.2978,0.0,0.0,0.0,0.0,0.0,0.0,0.0,0.0,0.0,0.0,0.0,0.0,0.0,0.0,0.0,0.0,0.0,0.0,0.0,0.0,0.0,0.0,0.0,0.0,0.0,0.0,0.0,0.0,0.0,0.0,0.0,0.0,0.0,0.0,0.0,0.0,0.0,0.0,0.0,0.0,0.0,0.0,0.0,0.0,0.0,0.0,0.0,0.0,0.0,0.0,0.0,0.0,0.0,0.0,0.0,0.0,0.0,0.0,0.0,0.0,0.0,0.0,0.0,0.0,0.0,0.0,0.0,0.0,0.0,0.0,0.0,0.0,0.0,0.0,0.0,0.0,0.0,0.0,0.0,0.0,0.0,0.0,0.0,0.0,0.0,0.0,0.0,0.0,0.0,0.0,0.0,0.0,0.0,0.0,0.0,0.0,0.0,0.0,0.0,0.0,0.0,0.0,0.0,-3.2386,-3.2999,-3.393,-3.5654,-3.5545,-3.5102,-3.4508,-3.1903,-3.0814,-3.211,0.0,0.0,0.0,0.0,0.0,0.0,0.0,0.0,0.0,0.0,0.0,0.0,0.0,0.0,0.0,0.0,0.0,0.0,0.0,0.0,0.0,0.0,0.0,0.0,0.0,0.0,0.0,0.0,0.0,0.0,0.0,0.0,0.0,0.0,0.0,0.0,0.0,0.0,0.0,0.0,0.0,0.0,0.0,0.0,0.0,0.0,0.0,0.0,0.0,0.0,0.0,0.0,0.0,0.0,0.0,0.0,0.0,0.0,0.0,0.0,0.0,0.0,0.0,0.0,0.0,0.0,0.0,0.0,0.0,0.0,0.0,0.0,0.0,0.0,0.0,0.0,0.0,0.0,0.0,0.0,0.0,0.0,0.0,0.0,0.0,0.0,0.0,0.0,0.0,0.0,0.0,0.0,0.0,0.0,0.0,0.0,0.0,0.0,0.0,0.0,0.0,0.0,-3.2783,-3.2659,-3.3083,-3.4814,-3.4199,-3.3545,-3.3237,-3.0809,-3.0001,-3.1642,0.0,0.0,0.0,0.0,0.0,0.0,0.0,0.0,0.0,0.0,0.0,0.0,0.0,0.0,0.0,0.0,0.0,0.0,0.0,0.0,0.0,0.0,0.0,0.0,0.0,0.0,0.0,0.0,0.0,0.0,0.0,0.0,0.0,0.0,0.0,0.0,0.0,0.0,0.0,0.0,0.0,0.0,0.0,0.0,0.0,0.0,0.0,0.0,0.0,0.0,0.0,0.0,0.0,0.0,0.0,0.0,0.0,0.0,0.0,0.0,0.0,0.0,0.0,0.0,0.0,0.0,0.0,0.0,0.0,0.0,0.0,0.0,0.0,0.0,0.0,0.0,0.0,0.0,0.0,0.0,0.0,0.0,0.0,0.0,0.0,0.0,0.0,0.0,0.0,0.0,0.0,0.0,0.0,0.0,0.0,0.0,0.0,0.0,0.0,0.0,0.0,0.0,-3.2789,-3.2312,-3.2429,-3.4013,-3.343,-3.2583,-3.1775,-3.0663,-3.0118,-3.0407,0.0,0.0,0.0,0.0,0.0,0.0,0.0,0.0,0.0,0.0,0.0,0.0,0.0,0.0,0.0,0.0,0.0,0.0,0.0,0.0,0.0,0.0,0.0,0.0,0.0,0.0,0.0,0.0,0.0,0.0,0.0,0.0,0.0,0.0,0.0,0.0,0.0,0.0,0.0,0.0,0.0,0.0,0.0,0.0,0.0,0.0,0.0,0.0,0.0,0.0,0.0,0.0,0.0,0.0,0.0,0.0,0.0,0.0,0.0,0.0,-2.5462,0.0,0.0,0.0,0.0,0.0,0.0,0.0,0.0,0.0,0.0,0.0,0.0,0.0,0.0,0.0,0.0,0.0,0.0,0.0,0.0,0.0,0.0,0.0,0.0,0.0,0.0,0.0,0.0,0.0,0.0,0.0,0.0,0.0,0.0,0.0,0.0,0.0,0.0,0.0,0.0,0.0,-3.2789,-3.2774,-3.3045,-3.409,-3.343,-3.2583,-3.1775,-3.0213,-2.9882,-3.1252,-3.0018,0.0,0.0,0.0,0.0,0.0,0.0,0.0,0.0,0.0,0.0,0.0,0.0,0.0,0.0,0.0,0.0,0.0,0.0,0.0,0.0,0.0,0.0,0.0,0.0,0.0,0.0,0.0,0.0,0.0,0.0,0.0,0.0,0.0,0.0,0.0,0.0,0.0,0.0,0.0,0.0,0.0,0.0,0.0,0.0,0.0,0.0,0.0,0.0,0.0,0.0,0.0,0.0,0.0,0.0,0.0,0.0,0.0,0.0,0.0,0.0,-2.701,0.0,0.0,0.0,0.0,0.0,0.0,0.0,0.0,0.0,0.0,0.0,0.0,0.0,0.0,0.0,0.0,0.0,0.0,0.0,0.0,0.0,0.0,0.0,0.0,0.0,0.0,0.0,0.0,0.0,0.0,0.0,0.0,0.0,0.0,0.0,0.0,0.0,0.0,0.0,0.0,-3.3388,-3.2492,-3.2352,-3.4013,-3.3083,-3.2314,-3.2275,-3.1083,-3.0731,-3.1591,-3.081,0.0,0.0,0.0,0.0,0.0,0.0,0.0,0.0,0.0,0.0,0.0,0.0,0.0,0.0,0.0,0.0,0.0,0.0,0.0,0.0,0.0,0.0,0.0,0.0,0.0,0.0,0.0,0.0,0.0,0.0,0.0,0.0,0.0,0.0,0.0,0.0,0.0,0.0,0.0,0.0,0.0,0.0,0.0,0.0,0.0,0.0,0.0,0.0,0.0,0.0,0.0,0.0,0.0,0.0,-3.5436,-3.5866,-3.602,-3.6142,-3.6087,-3.2289,-3.0885,-3.1184,0.0,0.0,0.0,0.0,0.0,0.0,0.0,0.0,0.0,0.0,0.0,0.0,0.0,0.0,0.0,0.0,0.0,0.0,0.0,0.0,0.0,0.0,0.0,0.0,0.0,-3.5232,-3.6054,0.0,0.0,0.0,0.0,0.0,0.0,0.0,0.0,0.0,0.0,0.0,0.0,-3.3826,-3.2288,-3.1891,-3.3975,-3.2968,-3.2275,-3.266,-3.2083,-3.166,-3.1468,-3.1437,-3.145,0.0,0.0,0.0,0.0,0.0,0.0,0.0,0.0,0.0,0.0,0.0,0.0,0.0,0.0,0.0,0.0,0.0,0.0,0.0,0.0,0.0,0.0,0.0,0.0,0.0,0.0,0.0,0.0,0.0,0.0,0.0,0.0,-2.4826,-2.5971,0.0,0.0,0.0,0.0,0.0,0.0,0.0,0.0,0.0,0.0,0.0,0.0,0.0,0.0,-3.5504,-3.6442,-3.7417,-3.8462,-3.9269,-3.8962,-3.7692,-3.8423,-3.9161,-3.97,-3.7624,0.0,-3.4737,-3.3782,0.0,0.0,0.0,0.0,0.0,0.0,0.0,0.0,0.0,0.0,0.0,0.0,0.0,0.0,0.0,0.0,0.0,0.0,0.0,0.0,0.0,0.0,-3.536,-3.6045,-3.6469,-3.6822,0.0,-3.556,-3.3907,-3.317,0.0,0.0,0.0,0.0,0.0,0.0,0.0,0.0,-3.3139,-3.3455,-3.3821,-3.4167,-3.4013,-3.3314,-3.1968,-3.1775,-3.1391,-3.0615,-3.0571,-3.0917,-3.1648,-3.1661,0.0,0.0,0.0,0.0,0.0,0.0,0.0,0.0,0.0,0.0,0.0,0.0,0.0,0.0,0.0,0.0,0.0,0.0,0.0,0.0,0.0,0.0,0.0,0.0,0.0,0.0,0.0,0.0,0.0,-2.4865,-2.7937,-2.8427,-2.9587,-2.9529,0.0,0.0,0.0,0.0,0.0,0.0,0.0,0.0,0.0,-3.3891,-3.5081,-3.648,-3.8146,-3.9438,-4.0523,-4.1431,-4.2239,-4.2516,-4.2277,-4.267,-4.3017,-4.3324,-4.2577,-4.13,-3.9577,-3.7255,-3.5731,-3.4725,0.0,0.0,0.0,0.0,0.0,-3.2143,-3.3003,0.0,0.0,0.0,0.0,0.0,0.0,0.0,0.0,0.0,0.0,0.0,0.0,0.0,0.0,-3.7361,-3.8161,-3.8815,-3.8738,-3.7875,-3.6716,0.0,-3.5534,-3.5448,-3.4035,0.0,0.0,0.0,0.0,0.0,-3.3615,-3.3558,-3.3853,-3.4814,-3.4045,-3.3353,-3.3122,-3.2237,-3.1545,-3.1154,-3.0654,-3.1,-3.2314,-3.2203,-3.3018,0.0,0.0,0.0,0.0,0.0,0.0,0.0,0.0,0.0,0.0,0.0,0.0,0.0,0.0,0.0,0.0,0.0,0.0,0.0,0.0,0.0,0.0,0.0,0.0,0.0,0.0,0.0,0.0,-2.7221,-3.0631,-3.0539,-3.2488,-3.2864,0.0,0.0,0.0,0.0,0.0,0.0,-3.4023,-3.5506,-3.691,-3.8253,-3.9154,-4.0031,-4.09,-4.2162,-4.3085,-4.3739,-4.4355,-4.4979,-4.5594,-4.5594,-4.5594,-4.5594,-4.5594,-4.4902,-4.3508,-4.0476,-3.8377,-3.6997,-3.5951,-3.4494,0.0,-3.3506,-3.4424,-3.5624,-3.6485,-3.8012,-3.9461,-3.8659,0.0,-3.6773,-3.4899,0.0,0.0,0.0,0.0,-3.472,-3.5142,0.0,-3.818,-3.8561,-3.9592,-4.0323,-3.9746,-3.9631,-3.9099,0.0,-3.7448,-3.7135,-3.5243,0.0,0.0,0.0,0.0,-3.3794,-3.4135,-3.3814,-3.4045,-3.5346,-3.4346,-3.366,-3.3859,-3.2737,-3.1814,-3.1385,-3.0962,-3.1192,-3.2237,-3.268,-3.3807,-3.5696,0.0,0.0,0.0,0.0,0.0,0.0,0.0,0.0,0.0,0.0,0.0,0.0,0.0,0.0,0.0,0.0,0.0,0.0,0.0,0.0,0.0,0.0,0.0,0.0,0.0,0.0,0.0,0.0,0.0,-3.1524,-3.6534,0.0,0.0,0.0,0.0,-3.3723,-3.4565,-3.5885,-3.7661,-3.8604,-4.0275,-4.2776,-4.3597,-4.4393,-4.5287,-4.5364,-4.5441,-4.5479,-4.5518,-4.5556,-4.5594,-4.5594,-4.5594,-4.5594,-4.5594,-4.5556,-4.5325,-4.3585,-4.2316,-4.1316,-3.9692,-3.9468,-3.9976,-3.9198,-3.8967,-3.916,-3.9985,-4.0323,-4.0708,-4.2277,-4.22,-4.1016,-3.8572,-3.725,0.0,0.0,-3.5448,-3.583,-3.7482,-3.7973,-3.8399,-4.0015,-4.0439,-4.0477,-4.0439,-4.0439,-3.9938,0.0,-3.7315,-3.6759,-3.6672,0.0,-3.5187,-3.437,-3.4899,-3.5084,-3.4321,-3.4891,-3.5385,-3.55,-3.5423,-3.4731,-3.3083,-3.2891,-3.216,-3.0577,-3.1192,-3.1308,-3.0577,-3.2846,-3.3808,-3.3122,-3.5416,0.0,0.0,0.0,0.0,0.0,0.0,0.0,0.0,0.0,0.0,0.0,0.0,0.0,0.0,0.0,0.0,0.0,0.0,0.0,0.0,0.0,0.0,0.0,0.0,0.0,0.0,0.0,0.0,-3.6151,-3.9767,0.0,-3.7616,-3.787,-3.8215,-3.8129,-3.9975,-4.1623,-4.2842,-4.4226,-4.4889,-4.4762,-4.6044,-4.6663,-4.6432,-4.6432,-4.6432,-4.6432,-4.5864,-4.5594,-4.5594,-4.5594,-4.5594,-4.5594,-4.5594,-4.5594,-4.5556,-4.4979,-4.3893,-4.2508,-4.1362,-4.0754,-4.0569,-4.0831,-4.1254,-4.187,-4.267,-4.2931,-4.2854,-4.2393,-4.1662,-4.0708,-3.9307,-3.8659,-3.8243,-3.7371,-3.7518,-3.8197,-3.9353,-3.9646,-3.9892,-4.1046,-4.0893,-4.0516,-4.0516,-4.0516,-4.0323,-3.9708,-3.8931,-3.8207,-3.7651,-3.6406,-3.5391,-3.5117,-3.4828,-3.4545,-3.4244,-3.4968,-3.55,-3.55,-3.5007,-3.4391,-3.3782,-3.3237,-3.266,-3.2045,-3.1814,-3.2045,-3.2814,-3.316,-3.4007,-3.5315,-3.6776,-3.7011,0.0,0.0,0.0,0.0,0.0,0.0,0.0,0.0,0.0,0.0,0.0,0.0,0.0,0.0,0.0,0.0,0.0,0.0,0.0,0.0,0.0,0.0,0.0,0.0,0.0,0.0,-3.7394,-3.8848,-4.2147,-4.341,-4.108,-4.1443,-4.2019,-4.2548,-4.4444,-4.5817,-4.6394,-4.7778,-4.8048,-4.6941,-4.8013,-4.8206,-4.7317,-4.7088,-4.6822,-4.6505,-4.5898,-4.5629,-4.5665,-4.5629,-4.5637,-4.5665,-4.5629,-4.5637,-4.5657,-4.5629,-4.494,-4.3893,-4.3316,-4.2739,-4.2285,-4.2854,-4.3431,-4.4008,-4.4547,-4.4739,-4.4509,-4.3085,-4.2239,-4.1631,-4.0816,-4.0585,-4.0469,-3.9892,-4.0123,-4.0623,-4.0893,-4.0931,-4.1085,-4.1662,-4.1354,-4.0931,-4.0931,-4.1162,-4.1208,-4.0593,-3.9861,-3.9138,-3.8582,-3.7319,-3.6478,-3.6813,-3.6363,-3.61,-3.637,-3.6421,-3.6394,-3.6394,-3.5335,-3.4507,-3.4244,-3.3943,-3.3519,-3.2929,-3.2942,-3.3211,-3.3744,-3.4058,-3.4879,-3.6317,-3.7462,-3.8073,-3.8157,0.0,0.0,0.0,0.0,0.0,0.0,0.0,0.0,0.0,0.0,0.0,0.0,0.0,0.0,0.0,0.0,0.0,0.0,0.0,0.0,0.0,0.0,0.0,-3.0296,-3.6187,-4.0121,-3.9495,-4.3918,-4.6355,-4.4624,-4.6009,-4.7,-4.6962,-4.774,-4.8163,-4.8125,-4.8971,-4.9433,-4.9356,-4.9544,-4.9173,-4.8172,-4.7487,-4.6733,-4.5867,-4.5719,-4.5688,-4.5783,-4.5673,-4.5688,-4.5815,-4.5665,-4.5688,-4.5809,-4.5648,-4.5594,-4.5594,-4.5594,-4.5594,-4.5594,-4.5594,-4.5594,-4.5594,-4.5594,-4.5594,-4.5479,-4.4624,-4.4355,-4.4201,-4.3393,-4.3124,-4.3124,-4.3124,-4.3085,-4.2893,-4.2085,-4.1846,-4.1846,-4.1885,-4.1846,-4.1846,-4.1846,-4.2508,-4.2585,-4.09,-3.9938,-3.9384,-3.9423,-3.8697,-3.846,-3.9307,-3.9429,0.0,-4.0525,-3.911,-3.8061,-3.8099,-3.6555,-3.5199,-3.4398,-3.5085,-3.4815,-3.3083,-3.4546,-3.47,-3.3045,-3.5393,-3.6434,-3.5745,-3.7382,-3.9,-4.0595,0.0,0.0,0.0,0.0,0.0,0.0,0.0,0.0,0.0,0.0,0.0,0.0,0.0,0.0,0.0,0.0,0.0,0.0,0.0,0.0,0.0,0.0,-3.5993,-3.8125,-4.0563,-4.3224,-4.6195,-4.8385,-4.9202,-4.8125,-4.9009,-4.9394,-4.8779,-4.951,-4.9702,-4.9086,-4.9856,-4.974,-4.8509,-4.9814,-5.0092,-4.9189,-4.8481,-4.7976,-4.7738,-4.6452,-4.5831,-4.5867,-4.5831,-4.5831,-4.5862,-4.5783,-4.5775,-4.5809,-4.5648,-4.5594,-4.5594,-4.5594,-4.5594,-4.5594,-4.5594,-4.5594,-4.5594,-4.5594,-4.5594,-4.5556,-4.5325,-4.5248,-4.5094,-4.4239,-4.397,-4.3855,-4.3278,-4.3085,-4.3162,-4.3508,-4.3162,-4.2893,-4.347,-4.3162,-4.2739,-4.2739,-4.2931,-4.297,-4.247,-4.17,-4.0939,-4.0315,-3.9507,-3.8821,-3.8457,0.0,0.0,-3.6999,-3.6517,-3.6684,-3.7977,-3.7056,-3.6528,-3.6987,-3.6632,-3.5937,-3.4846,-3.4635,-3.4635,-3.4769,-3.5475,-3.6605,-3.8236,-3.8806,-3.956,0.0,0.0,0.0,0.0,0.0,0.0,0.0,0.0,0.0,0.0,0.0,0.0,0.0,0.0,0.0,0.0,0.0,0.0,0.0,0.0,0.0,0.0,-3.6634,-4.0666,-4.4334,-4.4949,-4.6244,-4.9548,-5.0404,-5.0625,-5.0471,-5.0894,-5.0971,-5.051,-5.1241,-5.1356,-5.051,-5.0933,-5.0587,-4.924,-5.0363,-5.0539,-4.9618,-4.9299,-4.8954,-4.856,-4.7116,-4.6454,-4.653,-4.645,-4.6493,0.0,-4.6416,-4.6391,-4.6341,-4.5894,-4.564,0.0,0.0,0.0,0.0,0.0,-4.5594,-4.5594,-4.5594,-4.5594,-4.5594,-4.5594,-4.5594,-4.5518,-4.5017,-4.4855,-4.4739,-4.4278,-4.4162,-4.4162,-4.4278,-4.3932,-4.3701,-4.4201,-4.3932,-4.3585,-4.3585,-4.3893,-4.3816,-4.2777,0.0,0.0,-4.0708,-4.0161,-3.9805,-3.968,-3.9224,-3.8877,0.0,-3.7815,-3.7507,-3.8556,-3.7486,-3.6913,-3.7462,-3.7665,0.0,0.0,0.0,-3.6566,-3.7067,-3.7119,0.0,0.0,0.0,-4.0886,0.0,0.0,0.0,0.0,-4.1749,-4.1757,0.0,0.0,0.0,0.0,0.0,0.0,0.0,0.0,0.0,0.0,0.0,0.0,0.0,0.0,0.0,0.0,-4.0529,-4.4172,-4.9,-4.9086,-4.9163,-5.0558,-5.0789,-5.1125,-5.1846,-5.1885,-5.1923,-5.2038,-5.2769,-5.2818,-5.1962,0.0,0.0,0.0,0.0,-5.067,-4.9762,-4.9921,-4.961,-4.8873,-4.7876,-4.745,-4.7582,-4.7444,-4.745,-4.7541,-4.742,-4.7367,-4.728,-4.6415,-4.5997,-4.5864,-4.5671,-4.5594,-4.5594,-4.5594,-4.5594,0.0,0.0,0.0,0.0,-4.5594,-4.5594,-4.5594,-4.5594,-4.5594,-4.5594,-4.5594,-4.5594,-4.5441,-4.4662,-4.4432,-4.4432,-4.4432,-4.4432,-4.4432,-4.4432,-4.5056,-4.494,-4.2662,-4.2701,-4.2624,-4.1054,-4.0692,-4.0833,-4.159,-4.1719,0.0,-4.2615,-4.0674,-3.9328,-3.9528,0.0,0.0,-3.7137,-3.8467,-3.8929,-3.8046,-3.8729,-3.9213,-3.929,-3.9364,-3.9784,-4.0661,-4.1622,-4.249,-4.3189,-4.4114,-4.4892,-4.5565,-4.3534,-4.3379,0.0,0.0,0.0,0.0,0.0,0.0,0.0,0.0,0.0,0.0,0.0,0.0,0.0,0.0,0.0,-4.136,-4.5208,-4.8721,-5.1077,-5.1895,-5.1856,-5.0827,-5.1279,-5.1731,-5.1885,-5.1885,-5.2192,-5.2895,-5.3087,-5.2818,-5.1962,-5.1885,0.0,-5.075,-5.0859,-5.0914,-5.082,-5.0258,-4.9975,-4.9881,0.0,0.0,-4.8592,-4.8589,-4.8589,-4.8591,-4.834,-4.8258,-4.82,-4.782,-4.7622,-4.7471,-4.6133,-4.5594,-4.5594,-4.5594,-4.5594,-4.5594,-4.5594,-4.5594,-4.5594,-4.5594,-4.5594,-4.5594,-4.5594,-4.5594,0.0,-4.5594,-4.5594,-4.5556,-4.5402,-4.5364,-4.5364,-4.5364,-4.5364,-4.5364,-4.5364,-4.5479,-4.5441,-4.4979,-4.3893,-4.3008,-4.2662,-4.1447,-4.0354,-3.9906,-3.9829,-3.9637,-3.9097,-3.8582,-3.8796,-4.0216,-3.9413,-3.9083,-3.9809,-3.9521,-3.8938,-3.8046,-3.8169,-3.8561,-3.9253,-3.9299,-3.9692,-4.0508,-4.2094,-4.2972,-4.311,-4.4611,-4.5458,-4.5594,-4.5139,-4.5215,0.0,0.0,0.0,0.0,0.0,0.0,0.0,0.0,0.0,0.0,0.0,-3.4243,-3.4296,0.0,-4.2651,-4.4432,-4.8049,-5.1087,-5.2346,-5.3318,-5.3395,-5.2087,-5.2318,-5.2538,-5.2538,-5.2972,-5.3395,-5.3818,-5.4203,-5.3895,-5.2615,-5.2972,-5.2433,-5.075,-5.1206,-5.136,-5.1089,-5.0771,-5.0683,-5.0781,-4.9961,-4.9531,-4.9531,-4.9531,-4.9531,-4.9531,-4.9323,-4.9204,-4.91,-4.84,-4.8086,-4.8009,-4.7163,-4.6624,-4.624,-4.624,-4.597,-4.5594,-4.5594,-4.5594,-4.5594,-4.5594,-4.5594,-4.5594,-4.5594,-4.5594,-4.5594,-4.5594,-4.5594,-4.5594,-4.5594,-4.5594,-4.5594,-4.5594,-4.5594,-4.5594,-4.5594,-4.5594,-4.5479,-4.5017,-4.3932,-4.3085,-4.3085,-4.2008,-4.1008,-4.0623,-4.0546,-4.0392,-3.9969,-3.9161,-3.8991,-3.9844,-3.9576,-3.9492,-3.9921,-3.9923,-3.9708,-3.9284,-3.9238,-3.9438,-3.99,-3.99,-4.0092,-4.0477,-4.22,-4.3085,-4.3085,-4.4786,-4.5594,-4.5594,-4.5665,-4.5751,0.0,0.0,0.0,0.0,0.0,0.0,0.0,0.0,-3.4138,-3.5142,-3.6881,-3.8423,-3.9119,-4.2575,-4.5889,-4.7586,-5.044,-5.2692,-5.3549,-5.428,-5.4357,-5.3318,-5.3356,-5.3433,-5.3433,-5.4087,-5.4549,-5.4703,-5.5318,-5.5049,-5.3549,-5.3972,-5.3241,-5.101,-5.1511,-5.1598,-5.1089,-5.1147,-5.126,-5.1406,-5.0742,-5.043,-5.043,-5.043,-5.043,-5.0429,-5.0278,-5.0108,-4.9914,-4.8985,-4.8625,-4.8625,-4.8625,-4.8125,-4.7355,-4.7201,-4.6586,-4.5864,-4.5864,-4.5748,-4.5594,-4.5594,-4.5594,-4.5594,-4.5594,-4.5594,-4.5594,-4.5594,-4.5594,-4.5594,-4.5594,-4.5594,-4.5594,-4.5594,-4.5594,-4.5594,-4.5594,-4.5594,-4.5402,-4.4701,-4.3893,-4.3316,-4.3316,-4.2739,-4.2239,-4.2085,-4.2038,-4.2,-4.1808,-4.0623,-3.97,-3.9554,-3.9515,-3.9515,-3.9515,-4.0131,-4.0516,-4.0516,-4.0669,-4.0746,-4.0746,-4.0939,-4.1016,-4.1016,-4.2547,-4.3316,-4.3355,-4.4863,-4.5594,-4.5603,-4.5729,-4.5859,-2.8753,-2.7445,-2.7315,-2.7744,-2.9739,-3.2504,0.0,0.0,-3.9821,-4.1665,-4.3995,-4.5724,-4.581,-4.8097,-5.049,-5.2182,-5.3423,-5.4472,-5.5318,-5.5511,-5.4972,-5.3395,-5.3895,-5.4357,-5.4357,-5.4434,-5.478,-5.5511,-5.5665,-5.5318,-5.4395,-5.3703,-5.2856,-5.1808,-5.1154,-5.0921,-5.1089,-5.1108,-5.1213,-5.1406,-5.1328,-5.1289,-5.1289,-5.1289,-5.1289,-5.125,-5.1044,-5.0843,-5.0595,-5.0462,-5.0404,-5.0404,-5.0404,-4.9894,-4.9048,-4.824,-4.7471,-4.674,-4.674,-4.624,-4.5594,-4.5594,-4.5594,-4.5594,-4.5594,-4.5594,-4.5594,-4.5594,-4.5594,-4.5594,-4.5594,-4.5594,-4.5594,-4.5594,-4.5594,-4.5594,-4.5594,-4.5594,-4.5556,-4.5479,-4.4739,-4.4162,-4.4162,-4.4085,-4.3778,-4.3047,-4.297,-4.2662,-4.1885,-4.1654,-4.1239,-4.0439,-4.0362,-4.0362,-4.0362,-4.0439,-4.0516,-4.0516,-4.1239,-4.1662,-4.1662,-4.2393,-4.2816,-4.2816,-4.3701,-4.4162,-4.4162,-4.5133,-4.5594,-4.5603,-4.5813,-4.5905,-3.2277,-3.047,-2.9757,-3.2789,-3.4405,-3.6232,-3.9976,-4.2099,-4.37,-4.503,-4.6932,-4.8509,-4.9009,-5.0779,-5.2549,0.0,-5.4664,-5.5318,-5.5665,-5.528,-5.4549,-5.3356,-5.3087,-5.301,-5.301,-5.3895,-5.4626,-5.4972,-5.5434,-5.5357,-5.4549,-5.4164,-5.3318,-5.1923,-5.2087,-5.1987,-5.169,-5.1697,-5.1804,-5.201,-5.1545,-5.1321,-5.1406,-5.1406,-5.1358,-5.1219,-5.1135,-5.0952,-5.0712,-5.0712,-5.0712,-5.0712,-5.0712,-5.0481,-5.0048,-4.9163,-4.8317,-4.7548,-4.7038,-4.6663,-4.6278,-4.5748,-4.5594,-4.5594,-4.5594,-4.5594,-4.5594,-4.5594,-4.5594,-4.5594,-4.5594,-4.5594,-4.5594,-4.5594,-4.5594,-4.5594,-4.5594,-4.5594,-4.5594,-4.5594,-4.4893,-4.447,-4.4979,-4.4624,-4.4355,-4.4509,-4.4124,-4.3508,-4.2662,-4.2124,-4.147,-4.0593,-4.0516,-4.0516,-4.0516,-4.0969,-4.1277,-4.1277,-4.2085,-4.2547,-4.2547,-4.2893,-4.3085,-4.3085,-4.3893,-4.4316,-4.4316,-4.5171,-4.5594,-4.5603,-4.5792,-4.5879,-3.4149,-3.292,-3.2534,-3.7156,-3.8829,-4.0219,-4.3436,-4.5432,-4.6817,-4.7471,-4.874,-5.001,-5.0856,-5.201,-5.3203,-5.4318,-5.4972,-5.5357,-5.5357,-5.4664,-5.3741,-5.2626,-5.1741,-5.1192,-5.1192,-5.301,-5.4241,-5.4472,-5.5241,-5.5357,-5.4549,-5.4511,-5.3818,-5.2308,-5.2856,-5.2974,-5.2469,-5.2237,-5.2239,-5.2448,-5.1596,-5.1238,-5.1313,-5.1322,-5.1249,-5.1089,-5.1089,-5.0952,-5.0712,-5.0712,-5.0712,-5.0712,-5.0712,-5.0712,-5.0635,-4.9971,-4.9202,-4.8355,-4.7509,-4.7077,-4.6778,-4.5893,-4.5594,-4.5594,-4.5594,-4.5594,-4.5594,-4.5594,-4.5594,-4.5594,-4.5594,-4.5594,-4.5594,-4.5594,-4.5594,-4.5594,-4.5594,-4.5594,-4.5594,-4.5594,-4.5094,-4.4855,-4.5479,-4.5094,-4.4855,-4.5518,-4.5056,-4.4355,-4.3547,-4.2701,-4.1931,-4.1285,-4.1208,-4.1208,-4.1208,-4.1816,-4.2162,-4.2162,-4.297,-4.3431,-4.3431,-4.3662,-4.3778,-4.3778,-4.4355,-4.4662,-4.4662,-4.5287,-4.5594,-4.5603,-4.5792,-4.5879,-3.2702,-3.3317,-3.431,-3.889,-4.2064,-4.4577,-4.6385,-4.8086,-4.9279,-4.9317,-5.0048,-5.0894,-5.1692,-5.1923,-5.25,-5.4203,-5.4511,-5.4549,-5.4549,-5.378,-5.2626,-5.0981,-5.001,-4.9471,0.0,-5.1779,-5.3587,-5.4434,-5.5241,-5.5357,-5.4549,-5.4511,-5.4087,-5.3203,-5.3203,-5.3244,-5.336,-5.2508,-5.2181,-5.2295,-5.1483,-5.1099,-5.1108,-5.1174,-5.1161,-5.1089,-5.1089,-5.0952,-5.0712,-5.0712,-5.0712,-5.0712,-5.0712,-5.0712,-5.0712,-5.0673,-5.0087,-4.924,-4.8355,-4.7548,-4.6778,-4.5893,-4.5594,-4.5594,-4.5594,-4.5594,-4.5594,-4.5594,-4.5594,-4.5594,-4.5594,-4.5594,-4.5594,-4.5594,-4.5594,-4.5594,-4.5594,-4.5594,-4.5594,-4.5594,-4.5594,-4.5556,-4.5594,-4.5594,-4.5556,-4.5594,-4.5594,-4.5248,-4.4393,-4.3547,-4.3047,-4.3008,-4.3008,-4.3008,-4.3008,-4.3047,-4.3047,-4.3047,-4.3816,-4.4239,-4.4239,-4.5094,-4.5518,-4.5518,-4.5556,-4.5556,-4.5556,-4.5594,-4.5594,-4.5603,-4.5792,-4.5879,-3.4403,-3.6453,-3.8575,-4.1809,-4.4758,-4.7124,-4.8279,-4.9433,-5.0087,-4.951,-4.8231,-4.7261,-4.753,-4.6617,-4.674,-4.967,-5.109,-5.2263,-5.3462,-5.3895,-5.301,-5.0164,-4.9586,0.0,0.0,0.0,0.0,-5.3549,-5.4434,-5.5011,-5.528,-5.478,-5.4357,-5.4087,-5.4049,-5.382,-5.3292,-5.2983,-5.2597,-5.2175,-5.1436,-5.1089,-5.1094,-5.1135,-5.1089,-5.0979,-5.0979,-5.0875,-5.075,-5.1279,-5.151,-5.151,-5.151,-5.1856,-5.2202,-5.1097,-5.0856,-5.0856,-4.9433,-4.8394,-4.7663,-4.7355,-4.6894,-4.6471,-4.6471,-4.6471,-4.6355,-4.5748,-4.5594,-4.5594,-4.5594,-4.5594,-4.5594,-4.5594,-4.5594,-4.5594,-4.5594,-4.5594,-4.5594,-4.5594,-4.5594,-4.5594,-4.5594,-4.5594,-4.5594,-4.5594,-4.5094,-4.4624,-4.4355,-4.3585,-4.3085,-4.3085,-4.3085,-4.3085,-4.3085,-4.3585,-4.3893,-4.3893,-4.4701,-4.5171,-4.5171,-4.5441,-4.5594,-4.5594,-4.5594,-4.5594,-4.5594,-4.5594,-4.5594,-4.5603,-4.5792,-4.5879,-3.6947,-3.9661,-4.2154,-4.5122,-4.7233,-4.8779,-4.9663,-5.0048,-4.9692,-4.7838,-4.5908,-4.4202,-4.3216,-4.2106,-4.2603,-4.6377,-4.791,-4.9601,-5.2336,-5.2702,-5.1972,-5.0087,-4.9586,-4.8971,0.0,0.0,0.0,-5.2241,-5.3933,-5.4898,-5.4882,-5.4919,-5.4832,-5.4583,-5.4793,-5.4664,-5.4087,-5.3818,-5.3282,-5.2473,-5.2066,-5.169,-5.1441,-5.1441,-5.127,-5.0928,-5.1199,-5.1236,-5.1164,-5.1692,-5.2077,-5.2308,-5.1702,-5.201,-5.2587,-5.1202,-5.101,-5.1279,-4.9894,-4.9048,-4.8509,-4.8202,-4.774,-4.7317,-4.7317,-4.7317,-4.7163,-4.6317,-4.6047,-4.6047,-4.6047,-4.6047,-4.6047,-4.6047,-4.6047,-4.597,-4.5671,-4.5594,-4.5594,-4.5594,-4.5594,-4.5594,-4.5594,-4.5594,-4.5594,-4.5594,-4.5133,-4.4739,-4.4739,-4.4316,-4.397,-4.397,-4.397,-4.397,-4.397,-4.447,-4.4739,-4.4739,-4.5287,-4.5594,-4.5594,-4.5594,-4.5594,-4.5594,-4.5594,-4.5594,-4.5594,-4.5594,-4.5594,-4.5603,-4.5792,-4.5879,-4.0186,-4.2928,-4.5072,-4.8539,-4.9394,-4.9625,-5.0442,-4.9817,-4.8078,-4.4595,-4.3072,-4.1559,0.0,0.0,-4.0053,-4.4375,-4.5256,-4.6934,-5.1288,-5.0625,-4.9971,0.0,0.0,0.0,0.0,0.0,0.0,-5.075,0.0,-5.4979,-5.36,-5.4901,-5.5432,-5.4785,-5.5374,-5.5686,-5.5647,-5.4829,-5.401,-5.3203,-5.3203,-5.2829,-5.2144,-5.2105,-5.168,-5.1068,-5.1796,-5.2031,-5.1962,-5.1962,-5.2462,-5.3049,-5.1395,-5.1241,-5.1846,-5.101,-5.075,-5.0635,-4.9779,-4.9433,-4.9279,-4.8509,-4.8202,-4.8163,-4.8163,-4.8163,-4.8009,-4.7192,-4.6962,-4.6962,-4.6962,-4.6962,-4.6962,-4.6962,-4.6962,-4.674,-4.5902,-4.5748,-4.571,-4.5671,-4.5633,-4.5594,-4.5594,-4.5594,-4.5594,-4.5594,-4.5594,-4.5594,-4.5594,-4.5594,-4.5594,-4.5594,-4.5594,-4.5594,-4.5594,-4.5594,-4.5594,-4.5594,-4.5594,-4.5594,-4.5594,-4.5594,-4.5594,-4.5594,-4.5594,-4.5594,-4.5594,-4.5594,-4.5594,-4.5603,-4.5792,-4.5879,-4.4546,-4.7213,-4.9029,-4.9346,-4.9394,-4.9471,-4.9663,-4.7012,-4.4039,-4.2451,-3.8289,-3.4537,0.0,0.0,0.0,-3.9966,-4.4336,0.0,-5.1452,-5.3164,0.0,-5.1779,0.0,-5.1741,-5.0481,-5.1702,0.0,0.0,-5.301,-5.4246,-5.5218,-5.5634,-5.5823,-5.5824,-5.5839,-5.5569,-5.4959,-5.3995,-5.3433,-5.3203,-5.3203,-5.3118,-5.2916,-5.2252,-5.2175,-5.2608,-5.2136,-5.23,-5.2856,-5.2856,-5.301,-5.3087,-5.201,-5.2125,-5.2702,-5.1241,-5.1087,-5.1471,-5.0664,-4.9933,-4.9471,-4.9894,-4.9586,-4.9086,-4.9086,-4.9086,-4.8894,-4.8048,-4.7778,-4.7778,-4.7778,-4.7778,-4.7778,-4.7778,-4.7778,-4.774,-4.7509,-4.7471,-4.7278,-4.6663,-4.6047,-4.5594,-4.5594,-4.5594,-4.5594,-4.5594,-4.5594,-4.5594,-4.5594,-4.5594,-4.5594,-4.5594,-4.5594,-4.5594,-4.5594,-4.5594,-4.5594,-4.5594,-4.5594,-4.5594,-4.5594,-4.5594,-4.5594,-4.5594,-4.5594,-4.5594,-4.5594,-4.5594,-4.5594,-4.5603,-4.5792,-4.5879,-4.8231,-5.0125,-5.1125,-5.0625,-4.9933,-4.9,-4.7396,-4.4566,-4.1246,-3.7595,-3.3771,-3.0836,-2.9996,-3.1269,0.0,0.0,0.0,0.0,-5.1375,-5.3126,-5.378,0.0,-5.3472,0.0,-5.1933,-5.2972,-5.3703,0.0,-5.401,-5.4641,-5.5423,-5.5738,-5.6012,-5.6269,-5.6032,-5.5642,-5.5121,-5.4592,-5.4318,-5.4318,-5.4318,-5.4126,-5.3741,-5.328,-5.3087,-5.3203,0.0,-5.3087,-5.3203,-5.3203,-5.3203,-5.3087,-5.1856,-5.2125,-5.301,-5.1318,-5.1202,-5.1769,-5.0971,-5.0366,-5.0048,-5.0558,-5.0366,-4.9971,-4.9971,-4.9971,-4.9779,-4.8933,-4.8663,-4.8663,-4.8663,-4.8663,-4.8663,-4.8663,-4.8663,-4.8586,-4.8202,-4.8086,-4.7855,-4.7038,-4.6509,-4.6047,-4.5671,-4.5594,-4.5594,-4.5594,-4.5594,-4.5594,-4.5594,-4.5594,-4.5594,-4.5594,-4.5594,-4.5594,-4.5594,-4.5594,-4.5594,-4.5594,-4.5594,-4.5594,-4.5594,-4.5594,-4.5594,-4.5594,-4.5594,-4.5594,-4.5594,-4.597,-4.6163,-4.6172,-4.672,-4.6989,-5.1201,-5.2154,-5.2192,-5.1962,-5.0548,-4.8279,-4.4643,-4.2115,-3.8658,-3.209,-2.9803,-2.8834,-2.8344,-2.9782,-3.306,-3.9282,0.0,-4.5985,-5.1336,-5.2077,-5.2731,-5.4434,-5.4664,-5.4357,-5.3626,-5.4203,-5.5011,-5.5818,-5.578,-5.5555,-5.5247,-5.5669,-5.6083,-5.6386,-5.6102,-5.5857,-5.5728,-5.5724,-5.5703,-5.5703,-5.5703,-5.5318,-5.4664,-5.4549,-5.4164,-5.3587,0.0,0.0,-5.3356,-5.3241,-5.3203,-5.3049,-5.1471,-5.1818,-5.301,-5.1433,-5.1318,-5.1769,-5.0971,-5.0712,-5.0712,-5.0712,-5.0712,-5.0712,-5.0712,-5.0712,-5.0558,-4.9779,-4.9586,-4.9586,-4.9586,-4.9586,-4.9586,-4.9586,-4.9586,-4.9365,-4.8623,-4.8363,-4.8046,-4.7201,-4.6962,-4.6624,-4.5748,-4.5594,-4.5594,-4.5594,-4.5594,-4.5594,-4.5594,-4.5594,-4.5594,-4.5594,-4.5594,-4.5594,-4.5594,-4.5594,-4.5594,-4.5594,-4.5594,-4.5594,-4.5594,-4.5594,-4.5594,-4.5594,-4.5594,-4.5671,-4.5787,-4.6547,-4.6962,-4.7086,-4.7951,-4.8404,-5.2615,-5.351,-5.3703,-5.2269,-5.0077,-4.7395,-4.3829,-3.886,0.0,-3.0546,-2.7382,-2.5679,-2.7144,-2.949,-3.3211,-3.9393,-4.2569,-4.6291,-5.2154,-5.2972,-5.3587,0.0,-5.5472,-5.5434,-5.528,-5.5395,0.0,0.0,0.0,-5.6057,-5.6909,-5.6436,-5.6227,-5.6386,-5.6237,-5.6071,-5.5866,-5.574,-5.5703,-5.5703,-5.5703,-5.5626,-5.5472,-5.478,-5.478,-5.5241,0.0,0.0,-5.4203,-5.351,-5.3203,-5.3087,-5.2087,-5.2318,-5.3087,-5.2038,-5.1769,-5.1769,-5.0971,-5.0712,-5.0712,-5.0712,-5.0712,-5.0712,-5.0712,-5.0712,-5.0673,-5.0519,-5.0481,-5.0481,-5.0481,-5.0481,-5.0481,-5.0481,-5.0481,-5.0461,-5.0418,-4.983,-4.9049,-4.8084,-4.7346,-4.6624,-4.5748,-4.5594,-4.5594,-4.5594,-4.5594,-4.5594,-4.5594,-4.5594,-4.5594,-4.5594,-4.5594,-4.5594,-4.5594,-4.5594,-4.5594,-4.5594,-4.5594,-4.5594,-4.5594,-4.5594,-4.5594,-4.5594,-4.5594,-4.5932,-4.6663,-4.6817,-4.7231,-4.7903,-4.8283,-4.8468,-5.1177,-5.2717,-5.4087,-5.2346,-4.9962,-4.657,-4.0654,0.0,0.0,-2.7792,-2.5504,-2.4937,-2.6884,-2.9418,0.0,-3.7039,-4.0312,-4.4081,-4.9173,-5.0654,-5.2164,-5.478,-5.5434,-5.5703,0.0,-5.5703,0.0,0.0,0.0,0.0,-5.8004,-5.7443,-5.6862,-5.6428,-5.6351,-5.6232,-5.6078,-5.5986,-5.5921,-5.5798,-5.5798,-5.576,-5.5703,-5.528,-5.5318,-5.5665,0.0,0.0,-5.4472,-5.4049,-5.3626,-5.3164,-5.2741,-5.3126,-5.378,-5.2895,-5.2577,-5.2462,-5.1625,-5.1318,-5.1279,-5.0827,-5.0712,-5.0712,-5.0712,-5.0712,-5.0712,-5.0712,-5.0712,-5.0712,-5.0712,-5.0712,-5.0712,-5.0712,-5.0767,-5.0811,-5.0905,-5.0617,-5.0086,-4.908,-4.8577,-4.7888,-4.6497,-4.6278,-4.6124,-4.5671,-4.5594,-4.5594,-4.5594,-4.5594,-4.5594,-4.5594,-4.5594,-4.5594,-4.5594,-4.5594,-4.5594,-4.5594,-4.5594,-4.5594,-4.5594,-4.6047,-4.6278,-4.6278,-4.6701,-4.7124,-4.7548,-4.7971,-4.8394,-4.8788,-4.9351,-4.9737,-5.0347,-5.2417,-5.4318,-5.2385,-4.9962,-4.6013,-3.7956,-3.4735,-3.1698,-2.5615,-2.4394,-2.5026,-2.6994,-2.8874,-3.1271,0.0,-3.731,-4.0652,-4.5819,-4.7885,-5.0202,0.0,-5.5088,0.0,-5.5703,0.0,0.0,0.0,0.0,0.0,-5.8087,-5.8018,-5.7457,-5.6452,-5.6397,-5.6361,-5.6237,-5.6207,-5.6128,-5.5947,-5.5901,-5.5831,-5.5748,-5.5696,-5.5703,-5.5703,0.0,0.0,0.0,-5.4511,-5.4087,-5.3472,-5.3472,-5.401,-5.4664,-5.378,-5.3472,-5.3356,-5.2462,-5.2192,-5.2077,-5.1433,-5.1087,-5.0933,-5.075,-5.0712,-5.0712,-5.0712,-5.0712,-5.0712,-5.0712,-5.0712,-5.0721,-5.074,-5.0844,-5.0945,-5.0945,-5.1036,-5.0816,-4.9814,-4.9618,-4.9088,-4.743,-4.7154,-4.6855,-4.6009,-4.5902,-4.5902,-4.5902,-4.571,-4.5671,-4.5864,-4.571,-4.5594,-4.5594,-4.5594,-4.5594,-4.5594,-4.5787,-4.5902,-4.5902,-4.6701,-4.7154,-4.7154,-4.7778,-4.8202,-4.8394,-4.9086,-4.951,-4.9702,-5.0413,-5.0883,-5.2958,-5.4769,-5.5011,-5.25,-4.9962,-4.6022,-3.8022,-3.4288,-3.0978,-2.56,-2.4491,-2.5103,-2.7108,-2.6979,-2.851,-3.4417,0.0,-3.6365,-4.4538,-4.6547,-4.8663,-5.2818,0.0,0.0,-5.5703,0.0,0.0,0.0,0.0,0.0,0.0,-5.7354,-5.75,-5.6601,-5.6458,-5.6386,-5.638,-5.6251,-5.6186,-5.6169,-5.5969,-5.5907,-5.5883,-5.574,-5.5703,-5.5703,0.0,0.0,0.0,-5.4511,-5.4434,-5.4395,-5.4395,-5.4895,-5.5472,-5.4664,-5.4395,-5.4241,-5.3395,-5.3087,-5.3087,-5.301,-5.2433,-5.1654,-5.0933,-5.0712,-5.0712,-5.0712,-5.0712,-5.0712,-5.0712,-5.0712,-5.073,-5.0859,-5.0966,-5.1074,-5.1074,-5.1129,-5.0874,-4.9802,-4.9618,-4.9243,-4.8161,-4.8009,-4.7702,-4.6894,-4.6778,-4.6778,-4.6778,-4.6086,-4.5893,-4.6701,-4.6086,-4.5594,-4.5594,-4.5594,-4.5594,-4.5594,-4.6355,-4.6778,-4.6778,-4.7548,-4.8009,-4.8009,-4.8048,-4.8509,-4.9279,-4.9356,-4.9817,-5.0596,-5.0772,-5.0972,-4.647,-5.0657,-5.4357,-5.1818,-4.8856,-4.4648,-3.7163,-3.3498,-3.0297,-2.5497,-2.4479,-2.4787,-2.5664,-2.5982,-2.7174,-3.0223,0.0,0.0,-3.9323,-4.1423,-4.447,-5.024,-5.2395,0.0,0.0,0.0,0.0,0.0,0.0,0.0,0.0,-5.72,-5.7412,-5.6601,-5.6559,-5.6515,-5.6515,-5.6462,-5.6391,-5.634,-5.6175,-5.6037,-5.5907,-5.575,-5.5703,-5.5703,0.0,0.0,0.0,-5.5203,-5.5203,-5.5203,-5.5203,-5.5434,-5.5665,-5.5318,-5.4934,-5.4434,-5.4087,-5.3972,-5.3895,-5.3356,-5.3318,-5.3203,-5.1856,-5.1433,-5.1433,-5.1433,-5.1087,-5.0943,-5.1933,-5.1894,-5.1562,-5.1617,-5.1802,-5.2093,-5.2604,-5.2815,-5.2596,-5.1561,-5.1273,-5.0733,-4.9258,-4.8955,-4.8586,-4.774,-4.7625,-4.7625,-4.7625,-4.7317,-4.724,-4.7586,-4.6894,-4.6394,-4.6394,-4.6817,-4.7086,-4.7086,-4.7432,-4.7625,-4.7625,-4.8432,-4.8894,-4.8894,-4.9394,-4.9817,-5.0164,-5.0164,-5.0402,-5.0811,-5.089,-5.1002,-4.2334,-4.721,-5.1903,-5.0625,-4.7538,-4.3085,-3.6523,-3.2623,-2.9326,-2.5336,-2.453,-2.4588,-2.4722,-2.531,-2.6212,0.0,0.0,-3.0324,-3.5228,-3.787,-4.1231,0.0,0.0,0.0,0.0,0.0,0.0,0.0,0.0,0.0,0.0,-5.6862,-5.7065,-5.6601,-5.6601,-5.6601,-5.6601,-5.6601,-5.6559,-5.6456,-5.6273,-5.6135,-5.5962,-5.5789,-5.5703,0.0,0.0,0.0,0.0,-5.5703,-5.5703,-5.5703,-5.5703,-5.5703,-5.5703,-5.5703,-5.5318,-5.4857,-5.4857,-5.4857,-5.4741,-5.4126,-5.4357,-5.4587,-5.3126,-5.25,-5.2269,-5.2269,-5.1895,-5.1587,-5.2279,-5.2266,-5.2066,-5.1858,-5.2143,-5.2616,-5.2983,-5.3588,-5.3631,-5.2349,-5.2253,-5.1843,-5.028,-4.9922,-4.9516,-4.8634,-4.8471,-4.8471,-4.8471,-4.8279,-4.8202,-4.8471,-4.7971,-4.7548,-4.7278,-4.7778,-4.8086,-4.8086,-4.8355,-4.8471,-4.8471,-4.9317,-4.9779,-4.9779,-5.0404,-5.0712,-5.0712,-5.098,-5.1018,-5.0889,-5.1456,-5.1784,-4.3235,-4.6043,-4.7185,-4.8952,-4.6147,-4.1557,-3.6303,-3.1732,-2.7878,-2.5161,-2.4658,-2.4722,-2.4791,-2.4847,-2.5538,-2.7389,0.0,0.0,-3.3524,-3.7071,-3.9845,0.0,0.0,0.0,0.0,0.0,0.0,0.0,0.0,0.0,0.0,-5.6197,-5.6344,-5.6601,-5.6601,-5.6601,-5.6601,-5.6601,-5.6601,-5.6601,-5.6347,-5.6191,-5.6181,-5.5873,0.0,0.0,0.0,0.0,0.0,-5.5703,-5.5703,-5.5703,-5.5703,-5.5703,-5.5703,-5.5703,-5.5703,-5.5703,-5.5703,-5.5703,-5.5703,-5.5665,-5.5665,-5.5549,-5.4703,-5.3857,-5.3203,-5.3203,-5.3164,-5.2818,-5.1174,-5.1426,-5.1939,-5.1253,-5.1806,-5.2312,-5.1561,-5.2773,-5.3436,-5.1566,-5.1906,-5.2168,-5.1075,-5.0889,-5.055,-4.9547,-4.9394,-4.9394,-4.9394,-4.8625,-4.8432,-4.9279,-4.9394,-4.9009,-4.8163,-4.8086,-4.8086,-4.8086,-4.8894,-4.9394,-4.9394,-5.0202,-5.0712,-5.0712,-5.0712,-5.0712,-5.0712,-5.1617,-5.1678,-5.0935,-5.2752,-5.3623,-3.5825,-3.8935,-4.1453,-4.148,-3.9133,-3.5905,-3.2454,-2.9673,-2.7184,-2.5083,-2.4676,-2.47,-2.473,-2.4856,-2.5556,-2.7337,-2.7663,0.0,0.0,0.0,0.0,-4.3069,0.0,0.0,0.0,0.0,0.0,0.0,0.0,0.0,0.0,0.0,-5.6179,-5.6601,-5.6601,-5.6601,-5.6601,-5.6601,-5.6601,-5.6601,-5.6347,-5.6191,-5.6181,-5.5834,0.0,0.0,0.0,0.0,0.0,-5.5703,-5.5703,-5.5703,-5.5703,-5.5703,-5.5703,-5.5703,-5.5703,-5.5703,-5.5703,-5.5703,-5.5703,-5.5703,-5.5703,-5.5665,-5.5395,-5.4741,-5.3974,-5.346,-5.416,-5.4697,-5.3106,-5.3408,-5.4091,-5.3897,-5.4112,-5.4528,-5.4883,-5.4922,-5.4531,-5.3356,-5.2791,-5.2188,-5.1214,-5.0972,-5.0743,-5.0365,-5.0289,-5.0289,-5.0289,-5.0048,-4.9971,-5.025,-5.0289,-4.9933,-4.9048,-4.951,-4.9894,-4.9894,-5.0125,-5.0289,-5.0289,-5.0558,-5.0712,-5.0712,-5.1241,-5.1567,-5.1664,-5.2539,-5.2932,-5.2887,-5.3552,-5.3893,-3.1505,-3.3951,-3.6273,-3.7088,-3.513,-3.2485,-3.0502,-2.8184,-2.608,-2.4933,-2.4707,-2.4723,-2.4723,-2.5165,-2.5942,-2.7387,-2.7918,0.0,0.0,0.0,0.0,-4.2808,0.0,0.0,0.0,0.0,0.0,0.0,0.0,0.0,0.0,0.0,-5.6131,-5.6601,-5.6559,-5.6559,-5.6601,-5.6601,-5.6601,-5.6601,-5.6347,-5.6191,-5.6181,0.0,0.0,0.0,0.0,0.0,0.0,-5.5703,-5.5703,-5.5703,-5.5703,-5.5703,-5.5703,-5.5703,-5.5703,-5.5703,-5.5703,-5.5703,-5.5703,-5.5703,-5.5703,-5.5703,-5.5703,-5.5357,-5.4803,-5.4094,-5.4847,-5.5544,-5.3986,-5.434,-5.5023,-5.4679,-5.495,-5.5351,-5.5586,-5.5703,-5.543,-5.4219,-5.3744,-5.3249,-5.2274,-5.1997,-5.1869,-5.1743,-5.1693,-5.151,-5.1202,-5.1164,-5.1164,-5.1164,-5.1164,-5.1087,-5.0856,-5.0741,-5.0712,-5.0712,-5.0712,-5.0712,-5.0712,-5.0971,-5.1164,-5.1164,-5.1972,-5.2453,-5.2577,-5.3255,-5.4004,-5.4865,-5.4608,-5.4687,0.0,-3.0726,-3.1534,-3.486,-3.3255,-3.0654,-2.9832,-2.7131,0.0,-2.4714,-2.476,-2.4851,-2.4889,-2.5662,-2.6623,-2.7528,-2.8434,-2.9296,0.0,-3.2857,0.0,0.0,0.0,0.0,0.0,0.0,0.0,0.0,0.0,0.0,0.0,0.0,-5.6119,-5.6562,-5.6456,-5.6456,-5.6601,-5.6601,-5.6601,-5.6562,-5.6305,-5.6186,-5.6169,0.0,0.0,0.0,0.0,0.0,0.0,-5.5703,-5.5703,-5.5703,-5.5703,-5.5703,-5.5703,-5.5703,-5.5703,-5.5703,-5.5703,-5.5703,-5.5703,-5.5703,-5.5703,-5.5703,-5.5703,-5.5703,-5.5574,-5.4962,-5.5327,-5.5605,-5.4173,-5.4511,-5.4992,-5.4179,-5.4717,-5.5156,-5.4375,-5.539,-5.6015,-5.4414,-5.4687,-5.492,-5.3949,-5.3713,-5.3591,-5.3412,-5.3288,-5.2945,-5.2117,-5.2011,-5.2021,-5.2021,-5.2001,-5.2338,-5.3156,-5.1712,-5.0789,-5.0789,-5.0789,-5.0789,-5.0789,-5.1548,-5.2,-5.2,-5.2848,-5.3424,-5.3599,-5.3865,-5.4906,-5.6562,-5.5781,-5.582,-2.5925,0.0,-2.6496,-2.7343,-2.7001,-2.6394,0.0,-2.543,-2.4879,-2.4791,-2.4843,0.0,-2.574,-2.6098,-2.6795,-2.8329,-2.8816,-2.9296,-3.0171,0.0,0.0,0.0,0.0,0.0,0.0,0.0,0.0,0.0,0.0,0.0,0.0,0.0,-5.5971,-5.6445,-5.6336,-5.6368,-5.6601,-5.6601,-5.6559,-5.6452,-5.6269,-5.6128,-5.5947,0.0,0.0,0.0,0.0,0.0,-5.5703,-5.5703,-5.5703,-5.5703,-5.5703,-5.5703,-5.5703,-5.5703,-5.5703,-5.5703,-5.5703,-5.5703,-5.5703,-5.5703,-5.5703,-5.5703,-5.5703,-5.5703,-5.573,-5.5824,-5.5985,-5.6085,-5.5946,-5.6088,-5.6208,-5.5974,-5.6132,-5.625,-5.6015,-5.5781,-5.5469,-5.5078,-5.4609,-5.4217,-5.3871,-5.3769,-5.3662,-5.3434,-5.3469,-5.3404,-5.3096,-5.3138,-5.3183,-5.3183,-5.3095,-5.3111,-5.3343,-5.228,-5.1625,-5.1625,-5.1625,-5.1625,-5.1625,-5.2433,-5.2895,-5.2895,-5.3956,-5.4828,-5.5524,-5.5819,-5.6171,-5.6601,-5.6406,-5.6406,-2.4682,-2.476,-2.4791,-2.4813,-2.487,-2.495,-2.4884,-2.4863,-2.4842,0.0,-2.4842,0.0,0.0,-2.6588,-2.7331,0.0,-3.0265,0.0,0.0,0.0,0.0,0.0,0.0,0.0,0.0,0.0,0.0,0.0,0.0,0.0,0.0,0.0,-5.5807,-5.5803,-5.5723,-5.5978,-5.6511,-5.6561,-5.6517,-5.6389,-5.6256,-5.611,-5.5869,0.0,0.0,0.0,0.0,0.0,-5.5703,-5.5703,-5.5703,-5.5703,-5.5703,-5.5703,-5.5703,-5.5703,-5.5703,-5.5703,-5.5703,-5.5703,-5.5703,-5.5703,-5.5703,-5.5696,-5.5779,-5.5768,-5.5778,-5.6104,-5.6191,-5.6256,-5.6517,-5.656,-5.6516,-5.6601,-5.6601,-5.6601,-5.6601,-5.6211,-5.5898,-5.5898,-5.5508,-5.5156,-5.5106,-5.5049,-5.4921,-5.4806,-5.4791,-5.4619,-5.4142,-5.413,-5.4183,-5.4183,-5.4146,-5.4246,-5.4634,-5.3807,-5.3069,-5.252,-5.25,-5.25,-5.25,-5.3318,-5.3972,-5.4357,-5.5098,-5.573,-5.6191,-5.6462,-5.6601,-5.6601,-5.6601,-5.6601,-2.469,-2.4865,-2.4979,-2.485,-2.4856,-2.4936,-2.5115,0.0,0.0,0.0,0.0,0.0,0.0,-2.7466,0.0,0.0,0.0,0.0,0.0,0.0,0.0,0.0,0.0,0.0,0.0,0.0,0.0,0.0,0.0,0.0,0.0,0.0,0.0,-5.509,-5.4931,-5.524,-5.5984,-5.6242,-5.6398,-5.6371,-5.6246,-5.6097,-5.5827,-5.492,0.0,0.0,0.0,0.0,-5.5703,-5.5703,-5.5703,-5.5703,-5.5703,-5.5703,-5.5703,-5.5703,-5.5703,-5.5703,-5.5703,-5.5703,-5.5703,-5.5703,-5.5696,-5.5768,-5.5822,-5.5825,-5.5836,-5.6084,-5.6158,-5.6217,-5.6463,-5.6462,-5.6443,-5.6558,-5.6601,-5.6601,-5.6601,-5.6601,-5.6601,-5.6601,-5.6601,-5.6601,-5.6601,-5.6511,-5.6402,-5.6391,-5.6301,-5.5974,-5.522,-5.5156,-5.5169,-5.5169,-5.5151,-5.541,-5.6184,-5.5546,-5.4686,-5.3735,-5.3514,-5.3494,-5.3609,-5.43,-5.4993,-5.5728,-5.6037,-5.6202,-5.6222,-5.6465,-5.6601,-5.6601,-5.6601,-5.6601,-2.469,-2.5333,-2.5777,-2.5016,-2.4856,-2.5073,-2.5755,0.0,0.0,0.0,0.0,0.0,0.0,-2.9761,-3.1673,0.0,0.0,0.0,0.0,0.0,0.0,0.0,0.0,0.0,0.0,0.0,0.0,0.0,0.0,0.0,0.0,0.0,0.0,-5.4942,-5.4203,-5.3886,-5.4042,-5.502,-5.576,-5.6222,-5.6202,-5.6029,-5.5689,-5.4878,-5.4934,0.0,0.0,0.0,-5.5703,-5.5703,-5.5703,-5.5703,-5.5703,-5.5703,-5.5703,-5.5703,-5.5703,-5.5703,-5.5703,-5.5703,-5.5703,-5.5703,-5.5779,-5.584,-5.575,-5.5921,-5.6104,-5.5962,-5.5971,-5.5984,-5.6212,-5.6347,-5.6391,-5.6443,-5.6514,-5.6601,-5.6601,-5.6601,-5.6601,-5.6601,-5.6601,-5.6601,-5.6601,-5.6562,-5.6517,-5.6438,-5.6465,-5.6432,-5.6188,-5.6266,-5.6323,-5.6323,-5.6255,-5.6218,-5.6371,-5.6139,-5.5942,-5.574,-5.504,-5.4893,-5.5449,-5.5518,-5.5624,-5.5866,-5.6097,-5.6246,-5.6371,-5.6516,-5.6601,-5.6601,-5.6601,-5.6601,-2.4174,-2.4731,-2.5453,-2.5577,-2.5925,-2.6351,-2.6722,0.0,0.0,0.0,0.0,0.0,0.0,0.0,-3.3975,-3.9344,0.0,0.0,0.0,0.0,0.0,0.0,0.0,0.0,0.0,0.0,0.0,0.0,0.0,0.0,0.0,0.0,0.0,0.0,-5.3186,-5.2952,-5.2889,-5.3572,-5.4428,-5.5486,-5.5491,-5.5324,-5.5011,-5.3703,-5.3549,0.0,0.0,-5.3587,-5.4395,-5.4857,-5.5049,-5.5088,-5.5511,-5.5703,-5.5703,-5.5703,-5.5703,-5.5703,-5.5703,-5.5703,-5.5703,-5.5703,-5.5808,-5.5924,-5.5947,-5.6001,-5.6025,-5.6078,-5.5969,-5.5954,-5.6246,-5.6285,-5.6347,-5.6463,-5.656,-5.6601,-5.6601,-5.6601,-5.6601,-5.6601,-5.6601,-5.6601,-5.6601,-5.6601,-5.6562,-5.6514,-5.656,-5.6562,-5.6514,-5.656,-5.6601,-5.6601,-5.6558,-5.6511,-5.6511,-5.6454,-5.6365,-5.6202,-5.5808,-5.5736,-5.6045,-5.5891,-5.5874,-5.6078,-5.6158,-5.6489,-5.7094,-5.7221,-5.7539,-5.8008,-5.8008,-5.8008,-2.37,-2.4195,-2.5097,-2.6025,0.0,0.0,0.0,0.0,0.0,0.0,0.0,0.0,0.0,-3.3991,0.0,0.0,0.0,0.0,0.0,0.0,0.0,0.0,0.0,0.0,0.0,0.0,0.0,0.0,0.0,0.0,0.0,0.0,0.0,0.0,-5.2246,-5.2132,-5.2035,-5.2483,-5.3334,-5.4591,-5.4596,-5.447,-5.4126,-5.2577,-5.2385,-5.3164,-5.2269,-5.2385,-5.3241,-5.3933,-5.4318,-5.4549,-5.5164,-5.5511,-5.5703,-5.5703,-5.5703,-5.5703,-5.5703,-5.5703,-5.5703,-5.5703,-5.5807,-5.5976,-5.611,-5.6065,-5.6039,-5.6169,-5.6104,-5.6012,-5.6212,-5.6246,-5.6251,-5.6508,-5.6562,-5.6601,-5.6601,-5.6601,-5.6601,-5.6601,-5.6601,-5.6601,-5.6601,-5.6758,-5.6836,-5.664,-5.6758,-5.6836,-5.664,-5.6601,-5.6601,-5.6601,-5.6601,-5.6601,-5.6601,-5.6601,-5.6514,-5.6293,-5.6256,-5.6237,-5.6237,-5.6052,-5.6045,-5.6237,-5.6437,-5.696,-5.7742,-5.8043,-5.8555,-5.9219,-5.9219,-5.9219,-2.3606,-2.4313,-2.5278,-2.6008,-2.6847,0.0,-3.2592,-3.3532,0.0,-3.5498,0.0,0.0,0.0,-3.9576,0.0,0.0,0.0,0.0,0.0,0.0,0.0,0.0,0.0,0.0,0.0,0.0,0.0,0.0,0.0,0.0,0.0,0.0,0.0,0.0,0.0,-5.1234,-5.1274,-5.222,-5.3024,-5.3701,-5.3701,-5.3571,-5.328,-5.2308,-5.2385,-5.3164,-5.2269,-5.2385,-5.3203,-5.328,-5.378,-5.4511,-5.4549,-5.5049,-5.5703,-5.5703,-5.5703,-5.5703,-5.5703,-5.5703,-5.5703,-5.5703,-5.5921,-5.6152,-5.5954,-5.6131,-5.6358,-5.6227,-5.6186,-5.6146,-5.5969,-5.6091,-5.6227,-5.638,-5.6512,-5.6601,-5.6601,-5.6601,-5.6601,-5.6601,-5.6601,-5.6601,-5.6601,-5.7265,-5.7539,-5.6719,-5.7305,-5.75,-5.6719,-5.6601,-5.6601,-5.6601,-5.6601,-5.6601,-5.6601,-5.6601,-5.6601,-5.6562,-5.6456,-5.6383,-5.6383,-5.6246,-5.6242,-5.638,-5.7163,-5.7705,-5.789,-5.8711,-5.914,-5.9219,-5.9219,-5.9219,-2.2993,-2.4724,-2.6935,-2.7841,-2.9484,0.0,0.0,-3.5538,-3.6696,-3.781,-3.9167,0.0,0.0,0.0,0.0,0.0,0.0,0.0,0.0,0.0,0.0,0.0,0.0,0.0,0.0,0.0,0.0,0.0,0.0,0.0,0.0,0.0,0.0,0.0,0.0,-5.0667,-5.1204,-5.1674,-5.1942,-5.2093,-5.2572,-5.2699,-5.2503,-5.1587,-5.1318,-5.1625,-5.1279,-5.1356,-5.1664,-5.2202,-5.2933,-5.3818,-5.4857,-5.5434,-5.5703,-5.5703,-5.5703,-5.5703,-5.5703,-5.5703,-5.5703,-5.5703,-5.5938,-5.6181,-5.6122,-5.6242,-5.6383,-5.6351,-5.6606,-5.6825,-5.6349,-5.6273,-5.6365,-5.6507,-5.6561,-5.6601,-5.6601,-5.6601,-5.6601,-5.6601,-5.7031,-5.7422,-5.7422,-5.8125,-5.8594,-5.8281,-5.8515,-5.8398,-5.7539,-5.7422,-5.7187,-5.664,-5.707,-5.7422,-5.7422,-5.7422,-5.7656,-5.8164,-5.7653,-5.7336,-5.7336,-5.7679,-5.7947,-5.8156,-5.8326,-5.8765,-5.9453,-5.9805,-6.0234,-6.0742,-6.0742,-6.0742,-2.3335,-2.5067,-2.73,-2.8809,0.0,0.0,-3.6643,-3.7339,-3.8047,-4.0189,-4.2055,-4.3375,-4.3717,0.0,0.0,0.0,0.0,0.0,0.0,0.0,0.0,0.0,0.0,0.0,0.0,0.0,0.0,0.0,0.0,0.0,0.0,0.0,0.0,0.0,0.0,0.0,-5.0486,-5.0857,-5.0974,-5.0875,-5.1597,-5.1836,-5.1695,-5.1017,-5.0712,-5.0712,-5.0712,-5.0712,-5.075,-5.1279,-5.201,-5.2933,-5.4357,-5.5088,-5.5318,-5.5318,-5.5472,-5.5703,-5.5703,-5.5703,-5.5703,-5.5703,-5.5938,-5.6191,-5.6191,-5.6305,-5.6536,-5.6809,-5.7211,-5.7457,-5.6996,-5.6836,-5.6838,-5.6991,-5.6992,-5.6992,-5.6992,-5.7226,-5.7422,-5.7422,-5.789,-5.832,-5.832,-5.9023,-5.9492,-5.9258,-5.9414,-5.9258,-5.8437,-5.832,-5.8086,-5.7461,-5.7969,-5.832,-5.832,-5.832,-5.8555,-5.914,-5.8867,-5.8554,-5.8236,-5.8733,-5.9045,-5.9095,-5.928,-5.9715,-6.039,-6.0664,-6.1133,-6.1719,-6.1719,-6.1719,-2.4866,-2.5219,-2.5978,-2.8525,0.0,0.0,-4.0925,-3.9325,-3.8178,-4.3153,-4.5656,-4.6645,-4.5695,0.0,0.0,0.0,0.0,0.0,0.0,0.0,0.0,0.0,0.0,0.0,0.0,0.0,0.0,0.0,0.0,0.0,0.0,0.0,0.0,0.0,0.0,0.0,-4.8906,-4.9766,-5.0195,-5.0195,-5.0807,-5.102,-5.0889,-5.0747,-5.0712,-5.0712,-5.0712,-5.0712,-5.0712,-5.0712,-5.1164,-5.2,-5.2856,-5.3741,-5.4511,-5.4511,-5.5011,-5.5703,-5.5703,-5.5703,-5.5703,-5.5703,-5.5938,-5.6191,-5.6191,-5.6386,-5.6797,-5.7656,-5.789,-5.789,-5.789,-5.7799,-5.7736,-5.785,-5.789,-5.789,-5.789,-5.8594,-5.918,-5.9219,-5.9219,-5.9219,-5.9219,-5.9883,-6.0156,-5.9336,-5.9883,-6.0117,-5.9336,-5.9219,-5.9219,-5.9219,-5.9219,-5.9219,-5.9219,-5.9219,-5.9219,-5.9219,-5.9961,-5.9956,-5.8967,-5.9094,-5.9135,-5.8925,-5.9915,-6.039,-6.039,-6.1289,-6.1719,-6.1719,-6.1719,-6.1719,-2.5134,-2.7147,0.0,-3.2313,0.0,0.0,0.0,-4.1203,0.0,0.0,-4.7097,-4.8731,-4.6002,0.0,0.0,0.0,0.0,0.0,0.0,0.0,0.0,0.0,0.0,0.0,0.0,0.0,0.0,0.0,0.0,0.0,0.0,0.0,0.0,0.0,0.0,0.0,-4.8906,-4.9141,-4.9609,-5.0195,-4.9562,-4.9907,-5.102,-5.0816,-5.0712,-5.0712,-5.0712,-5.0712,-5.075,-5.1318,-5.1692,-5.2,-5.2856,-5.3741,-5.4511,-5.4511,-5.5011,-5.5703,-5.5703,-5.5703,-5.5703,-5.5703,-5.5938,-5.6191,-5.6191,-5.6386,-5.6797,-5.7656,-5.789,-5.8047,-5.8672,-5.8319,-5.7692,-5.7109,-5.6992,-5.7148,-5.7773,-5.8086,-5.8476,-5.9062,-5.9648,-6.0039,-6.0039,-6.0742,-6.1211,-6.0976,-6.1172,-6.1015,-6.0156,-5.9531,-5.9219,-5.9219,-5.9726,-6.0039,-6.0039,-6.0039,-6.0312,-6.0937,-6.0625,-6.0273,-5.9956,-6.0585,-6.0937,-6.0854,-6.1171,-6.1328,-6.1328,-6.1562,-6.1719,-6.1719,-6.1719,-6.1719,-2.6553,-2.8974,0.0,-3.4856,-3.7749,-4.0386,-4.2373,0.0,0.0,0.0,0.0,-5.0971,0.0,0.0,0.0,0.0,0.0,0.0,0.0,0.0,0.0,0.0,0.0,0.0,0.0,0.0,0.0,0.0,0.0,0.0,0.0,0.0,0.0,0.0,0.0,0.0,-4.7851,-4.8203,-4.8633,-4.914,-4.8704,-4.9036,-5.0072,-4.9806,-4.9856,-5.0202,-5.0558,-5.0712,-5.075,-5.1202,-5.1433,-5.151,-5.2356,-5.3241,-5.4049,-5.4357,-5.5011,-5.5703,-5.5703,-5.5703,-5.5703,-5.5703,-5.5938,-5.6191,-5.6191,-5.662,-5.7226,-5.7734,-5.8398,-5.8945,-5.914,-5.9062,-5.8672,-5.7812,-5.7617,-5.7851,-5.8711,-5.918,-5.957,-6.0078,-6.0586,-6.0937,-6.0937,-6.1367,-6.1719,-6.1719,-6.1719,-6.1523,-6.0976,-6.0508,-6.0195,-6.0195,-6.0625,-6.0937,-6.0937,-6.0937,-6.1133,-6.168,-6.1211,-6.0937,-6.0937,-6.1406,-6.1679,-6.1631,-6.1679,-6.1719,-6.1719,-6.1719,-6.1719,-6.1719,-6.1719,-6.1719,-2.8728,-3.0658,-3.2982,-3.6573,-4.0196,0.0,-4.6017,-4.7533,-4.8718,-4.9985,0.0,0.0,0.0,0.0,0.0,0.0,0.0,0.0,0.0,0.0,0.0,0.0,0.0,0.0,0.0,0.0,0.0,0.0,0.0,0.0,0.0,0.0,0.0,0.0,0.0,0.0,-4.6289,-4.7109,-4.7539,0.0,-4.8041,-4.8301,-4.8383,-4.8207,-4.8576,-4.9461,-5.025,-5.0635,-5.0712,-5.0712,-5.0712,-5.0789,-5.151,-5.2308,-5.3164,-5.3972,-5.4818,-5.5588,-5.5588,-5.5626,-5.5703,-5.5703,-5.5938,-5.6191,-5.6191,-5.6932,-5.7812,-5.7969,-5.9062,-6.0039,-5.9453,-5.9805,-6.0117,-5.9453,-5.9258,-5.9414,-6.0234,-6.1015,-6.1601,-6.168,-6.1719,-6.1719,-6.1719,-6.1719,-6.1719,-6.1719,-6.1719,-6.1719,-6.1719,-6.1719,-6.1719,-6.1719,-6.1719,-6.1719,-6.1719,-6.1719,-6.1719,-6.1719,-6.1719,-6.1719,-6.1719,-6.1719,-6.1635,-6.1515,-6.1635,-6.1719,-6.1719,-6.1719,-6.1719,-6.1719,-6.1719,-6.1719,-2.9606,-3.1614,0.0,0.0,-4.3849,-4.7996,-5.0528,-5.1239,-5.0338,-4.6603,0.0,0.0,0.0,0.0,0.0,0.0,0.0,0.0,0.0,0.0,0.0,0.0,0.0,0.0,0.0,0.0,0.0,0.0,0.0,0.0,0.0,0.0,0.0,0.0,0.0,-4.6289,-4.6289,-4.6484,-4.6914,0.0,-4.6833,-4.6863,-4.7666,-4.8075,-4.8717,-4.956,-4.9631,-5.0048,-5.0712,-5.0712,-5.0712,-5.0712,-5.0894,-5.1471,-5.2192,-5.2385,-5.3433,-5.4741,-5.4741,-5.5164,-5.5703,-5.5703,-5.5938,-5.6191,-5.6191,-5.6503,-5.7148,-5.8555,-5.8672,-5.8711,-5.9844,-5.9805,-5.957,-6.0039,-5.9648,-5.9414,-6.0234,-6.0547,-6.0898,-6.1562,-6.1719,-6.1719,-6.1719,-6.1719,-6.1719,-6.1719,-6.1719,-6.1719,-6.1719,-6.1719,-6.1719,-6.1719,-6.1719,-6.1719,-6.1719,-6.1719,-6.1719,-6.1719,-6.1719,-6.1719,-6.1719,-6.1719,-6.1679,-6.1677,-6.1679,-6.1719,-6.1719,-6.1719,-6.1719,-6.1719,-6.1719,-6.1719,-2.9877,0.0,0.0,-4.2109,0.0,-4.8619,-5.0377,-5.0998,-5.0416,0.0,0.0,0.0,0.0,0.0,0.0,0.0,0.0,0.0,0.0,0.0,0.0,0.0,0.0,0.0,0.0,0.0,0.0,0.0,0.0,0.0,0.0,0.0,0.0,0.0,-4.6289,-4.6289,-4.6289,-4.6289,-4.6523,-4.6953,-4.6321,-4.6251,-4.6789,-4.7456,-4.8199,-4.8963,-4.8902,-4.9572,-5.0673,-5.025,-5.0327,-5.075,-5.1125,-5.1548,-5.1962,-5.2385,-5.3398,-5.4591,-5.4591,-5.5204,-5.5954,-5.5954,-5.611,-5.6281,-5.6281,-5.6723,-5.7305,-5.7812,-5.8515,-5.9219,-5.9687,-6.0117,-6.0508,-6.0937,-6.039,-6.0,-6.0859,-6.1015,-6.1172,-6.1601,-6.1719,-6.1719,-6.1719,-6.1719,-6.1719,-6.1719,-6.1719,-6.1719,-6.1719,-6.1719,-6.1719,-6.1719,-6.1719,-6.1719,-6.1719,-6.1719,-6.1719,-6.1719,-6.1719,-6.1719,-6.1719,-6.1719,-6.1719,-6.1719,-6.1719,-6.1719,-6.1719,-6.1719,-6.1719,-6.1719,-6.1719,-6.1719,-2.9677,0.0,-3.8118,-4.4492,-4.6836,0.0,-4.8711,-4.9365,-4.9809,0.0,0.0,0.0,0.0,0.0,0.0,0.0,0.0,0.0,0.0,0.0,0.0,0.0,0.0,0.0,0.0,0.0,0.0,0.0,0.0,0.0,0.0,0.0,-4.6289,-4.6289,-4.6289,-4.6289,-4.6289,-4.6289,-4.6289,-4.6289,-4.6198,-4.6138,-4.6128,-4.6778,-4.7451,-4.8128,-4.8094,-4.8902,-5.0212,-4.9471,-4.9586,-5.0317,-5.1164,-5.1462,-5.1577,-5.2472,-5.3492,-5.4467,-5.4467,-5.5249,-5.6191,-5.6191,-5.6277,-5.6389,-5.6389,-5.7016,-5.7578,-5.7187,-5.8555,-6.0117,-5.9726,-6.0664,-6.1719,-6.1719,-6.1133,-6.082,-6.1523,-6.1719,-6.1719,-6.1719,-6.1719,-6.1719,-6.1719,-6.1719,-6.1719,-6.1719,-6.1719,-6.1719,-6.1719,-6.1719,-6.1719,-6.1719,-6.1719,-6.1719,-6.1719,-6.1719,-6.1719,-6.1719,-6.1719,-6.1719,-6.1719,-6.1719,-6.1719,-6.1719,-6.1719,-6.1719,-6.1719,-6.1719,-6.1719,-6.1719,-6.1719,-6.1719,-2.8819,0.0,-4.0227,0.0,-4.6406,-4.7812,0.0,0.0,0.0,0.0,0.0,0.0,0.0,0.0,0.0,0.0,0.0,0.0,0.0,0.0,0.0,0.0,0.0,0.0,0.0,0.0,0.0,0.0,0.0,0.0,0.0,-4.6289,-4.6289,-4.6289,-4.6289,-4.6289,-4.6289,-4.6289,-4.6289,-4.6289,-4.6289,-4.6203,-4.6091,-4.6317,-4.6754,-4.7359,-4.7223,-4.7666,-4.8432,-4.8317,-4.8355,-4.8548,-4.9394,-4.974,-4.9856,-5.0702,-5.2112,-5.3576,-5.3576,-5.4744,-5.6191,-5.6191,-5.6277,-5.6389,-5.6389,-5.6585,-5.707,-5.8476,-5.9101,-5.9687,-6.1015,-6.1523,-6.1719,-6.1719,-6.1601,-6.1562,-6.168,-6.1719,-6.1719,-6.1719,-6.1719,-6.1719,-6.1719,-6.1719,-6.1719,-6.1719,-6.1719,-6.1719,-6.1719,-6.1719,-6.1719,-6.1719,-6.1719,-6.1719,-6.1719,-6.1719,-6.1719,-6.1719,-6.1719,-6.1719,-6.1719,-6.1719,-6.1719,-6.1719,-6.1719,-6.1719,-6.1719,-6.1719,-6.1719,-6.1719,-6.1719,-6.1719,-2.926,-3.3776,-3.8467,0.0,-4.414,-4.5781,-4.7148,0.0,0.0,0.0,0.0,0.0,0.0,0.0,0.0,0.0,0.0,0.0,0.0,0.0,0.0,0.0,0.0,0.0,0.0,0.0,0.0,0.0,0.0,0.0,-4.5586,-4.6016,-4.5859,-4.4883,-4.5781,0.0,-4.5586,-4.6055,-4.6289,-4.6289,-4.6289,-4.6288,-4.6203,-4.6288,-4.6616,-4.7154,-4.6629,-4.7034,-4.8086,-4.7625,-4.7702,-4.8202,-4.9048,-4.9439,-4.9619,-5.0413,-5.192,-5.3609,-5.353,-5.4771,-5.6404,-5.6404,-5.646,-5.6512,-5.6512,-5.656,-5.6758,-5.7539,-5.8437,-5.9375,-6.0117,-6.1015,-6.1719,-6.1719,-6.1719,-6.1719,-6.1719,-6.1719,-6.1719,-6.1719,-6.1719,-6.1719,-6.1719,-6.1719,-6.1719,-6.1719,-6.1719,-6.1719,-6.1719,-6.1719,-6.1719,-6.1719,-6.1719,-6.1719,-6.1719,-6.1719,-6.1719,-6.1719,-6.1719,-6.1719,-6.1719,-6.1719,-6.1719,-6.1719,-6.1719,-6.1719,-6.1719,-6.1719,-6.1719,-6.1719,-6.1632,-6.1633,0.0,0.0,-3.5683,-3.8973,-4.1442,-4.3437,0.0,0.0,0.0,0.0,0.0,0.0,0.0,0.0,0.0,0.0,0.0,0.0,0.0,0.0,0.0,0.0,0.0,0.0,0.0,0.0,0.0,0.0,0.0,0.0,-4.5351,-4.5547,-4.5234,-4.4375,-4.5391,-4.5664,-4.5,-4.5625,-4.6094,-4.6289,-4.6289,-4.6289,-4.6289,-4.6289,-4.6498,-4.6848,-4.6191,-4.6493,-4.7432,-4.6817,-4.6932,-4.7586,-4.8663,-4.9161,-4.9403,-5.0366,-5.2026,-5.3777,-5.3674,-5.4955,-5.6601,-5.6601,-5.6601,-5.6601,-5.6601,-5.6601,-5.668,-5.7148,-5.8203,-5.9297,-5.9726,-6.0742,-6.1719,-6.1719,-6.1719,-6.1719,-6.1719,-6.1719,-6.1719,-6.1719,-6.1719,-6.1719,-6.1719,-6.1719,-6.1719,-6.1719,-6.1719,-6.1719,-6.1719,-6.1719,-6.1719,-6.1719,-6.1719,-6.1719,-6.1719,-6.1719,-6.1719,-6.1719,-6.1719,-6.1719,-6.1719,-6.1719,-6.1797,-6.2031,-6.2031,-6.1914,-6.1719,-6.1719,-6.1719,-6.1719,-6.1585,-6.1582,0.0,-3.0808,0.0,-3.557,-3.8781,0.0,0.0,0.0,0.0,0.0,0.0,0.0,0.0,0.0,0.0,0.0,0.0,0.0,0.0,0.0,0.0,0.0,0.0,0.0,0.0,0.0,0.0,0.0,0.0,0.0,-4.6172,-4.4726,-4.4531,-4.6133,-4.5469,-4.5039,-4.5,-4.5039,-4.5469,-4.6289,-4.6289,-4.6289,-4.6289,-4.6289,-4.6188,-4.5957,-4.5918,-4.584,-4.5748,-4.5671,-4.571,-4.5902,-4.7548,-4.8235,-4.8572,-5.0262,-5.2119,-5.3782,-5.3779,-5.5023,-5.6601,-5.6601,-5.6601,-5.6601,-5.6601,-5.6601,-5.6953,-5.8594,-5.914,-5.957,-6.1172,-6.164,-6.1719,-6.1719,-6.1719,-6.1719,-6.1719,-6.1719,-6.1719,-6.1719,-6.1719,-6.1719,-6.1719,-6.1719,-6.1719,-6.1719,-6.1719,-6.1719,-6.1719,-6.1719,-6.1719,-6.1719,-6.1719,-6.1719,-6.1719,-6.1719,-6.1719,-6.1719,-6.1719,-6.1719,-6.1719,-6.1719,-6.2109,-6.293,-6.293,-6.2539,-6.1719,-6.1719,-6.1719,-6.1719,-6.168,-6.1632,0.0,0.0,0.0,-3.3613,-3.5627,-3.7438,0.0,0.0,0.0,0.0,0.0,0.0,0.0,0.0,0.0,0.0,0.0,0.0,0.0,0.0,0.0,0.0,0.0,0.0,0.0,0.0,0.0,0.0,0.0,0.0,-4.4648,-4.4023,-4.3476,-4.3047,-4.3789,-4.4414,-4.5,-4.5,-4.543,-4.6289,-4.6289,-4.6289,-4.6289,-4.6289,-4.6149,-4.5879,-4.5879,-4.5801,-4.5594,-4.5594,-4.5594,-4.5766,-4.7526,-4.8321,-4.8627,-5.0398,-5.1881,-5.3156,-5.3639,-5.4673,-5.5859,-5.6406,-5.6601,-5.6601,-5.6601,-5.6601,-5.6836,-5.8047,-5.8789,-5.9453,-6.0586,-6.1289,-6.1719,-6.1719,-6.1719,-6.1719,-6.1719,-6.1719,-6.1719,-6.1719,-6.1719,-6.1719,-6.1719,-6.1719,-6.1719,-6.1719,-6.1719,-6.1719,-6.1719,-6.1719,-6.1719,-6.1719,-6.1719,-6.1719,-6.1719,-6.1719,-6.1719,-6.1719,-6.1719,-6.1953,-6.25,-6.2539,-6.293,-6.3828,-6.3828,-6.3398,-6.2539,-6.3086,-6.2773,-6.1719,-6.2175,-6.2074,-2.8442,0.0,0.0,0.0,0.0,-3.4326,0.0,0.0,0.0,0.0,0.0,0.0,0.0,0.0,0.0,0.0,0.0,0.0,0.0,0.0,0.0,0.0,0.0,0.0,0.0,0.0,0.0,0.0,0.0,0.0,-4.4141,-4.332,-4.2461,-4.1641,-4.2695,-4.3672,-4.457,-4.4258,-4.4726,-4.5859,-4.5859,-4.6016,-4.6289,-4.6289,-4.6149,-4.5879,-4.5879,-4.5801,-4.5594,-4.5594,-4.5594,-4.5774,-4.7572,-4.8377,-4.8704,-5.0482,-5.1791,-5.2812,-5.3582,-5.4486,-5.543,-5.6328,-5.6601,-5.6601,-5.6601,-5.6601,-5.6836,-5.8008,-5.875,-5.9453,-6.0547,-6.1289,-6.1719,-6.1719,-6.1719,-6.1719,-6.1719,-6.1719,-6.1719,-6.1719,-6.1719,-6.1719,-6.1719,-6.1719,-6.1719,-6.1719,-6.1719,-6.1719,-6.1719,-6.1719,-6.1719,-6.1719,-6.1719,-6.1719,-6.1719,-6.1719,-6.1719,-6.1719,-6.1953,-6.2383,-6.2969,-6.3281,-6.3867,-6.4726,-6.4726,-6.4453,-6.3867,-6.414,-6.3711,-6.2578,-6.3074,-6.292,0.0,0.0,0.0,0.0,0.0,0.0,-3.4096,0.0,0.0,0.0,0.0,0.0,0.0,0.0,0.0,0.0,0.0,0.0,0.0,0.0,0.0,0.0,0.0,0.0,0.0,0.0,0.0,0.0,0.0,-4.3125,-4.4844,-4.2578,-4.1562,-4.2344,-4.2344,-4.2773,-4.3633,-4.2851,-4.3281,-4.5,-4.5039,-4.5469,-4.6289,-4.6289,-4.6149,-4.5923,-4.5884,-4.5801,-4.5603,-4.5594,-4.5633,-4.5821,-4.7618,-4.8382,-4.876,-5.0558,-5.1821,-5.2773,-5.3672,-5.4531,-5.539,-5.6328,-5.6601,-5.6601,-5.6601,-5.6601,-5.6992,-5.8711,-5.9219,-5.9609,-6.1289,-6.1719,-6.1719,-6.1719,-6.1719,-6.1719,-6.1719,-6.1719,-6.1719,-6.1719,-6.1719,-6.1719,-6.1719,-6.1719,-6.1719,-6.1719,-6.1719,-6.1719,-6.1719,-6.1719,-6.1719,-6.1719,-6.1719,-6.1719,-6.1719,-6.1719,-6.1719,-6.1758,-6.2539,-6.3008,-6.3086,-6.3906,-6.4765,-6.5625,-6.5625,-6.5625,-6.5625,-6.4805,-6.4336,-6.4297,-6.4297,-6.4104,-3.0259,0.0,0.0,0.0,0.0,0.0,-3.1517,-3.3327,0.0,0.0,0.0,0.0,0.0,0.0,0.0,0.0,0.0,0.0,0.0,0.0,0.0,0.0,0.0,0.0,0.0,0.0,0.0,0.0,-4.2656,-4.2617,-4.3086,-4.1914,-4.1289,-4.1523,-4.1523,-4.1914,-4.2734,-4.3164,-4.3906,-4.5,-4.5625,-4.6055,-4.6289,-4.6289,-4.6201,-4.6059,-4.5955,-4.5825,-4.5733,-4.5624,-4.6042,-4.6788,-4.7967,-4.8915,-4.9747,-5.0925,-5.1522,-5.1953,-5.3476,-5.4141,-5.4609,-5.6094,-5.6601,-5.6601,-5.6601,-5.7031,-5.7773,-5.8906,-5.9609,-6.0312,-6.1406,-6.1719,-6.1719,-6.1719,-6.1719,-6.1719,-6.1719,-6.1719,-6.1719,-6.1719,-6.1719,-6.1719,-6.1719,-6.1719,-6.1719,-6.1719,-6.1719,-6.1719,-6.1719,-6.1719,-6.1719,-6.1719,-6.1719,-6.1719,-6.1719,-6.1719,-6.1953,-6.2617,-6.2851,-6.3555,-6.4844,-6.5117,-6.5664,-6.6523,-6.6523,-6.6523,-6.6523,-6.6289,-6.5547,-6.4297,-6.404,-6.3837,0.0,0.0,0.0,0.0,0.0,0.0,-3.0425,-3.1768,-3.3122,0.0,0.0,0.0,0.0,0.0,0.0,0.0,0.0,0.0,0.0,0.0,0.0,0.0,0.0,0.0,0.0,0.0,0.0,0.0,-4.1367,-4.1523,-4.1875,-4.1445,-4.1211,-4.1211,-4.1211,-4.1445,-4.1875,-4.2734,-4.3594,-4.4453,-4.5351,-4.5937,-4.6289,-4.6289,-4.6244,-4.6087,-4.5967,-4.5881,-4.5869,-4.6126,-4.6552,-4.7223,-4.8591,-4.9496,-5.0122,-5.1052,-5.1641,-5.2148,-5.3516,-5.4258,-5.4765,-5.6133,-5.6601,-5.6601,-5.6601,-5.7226,-5.8086,-5.8945,-6.0039,-6.1055,-6.1562,-6.1719,-6.1719,-6.1719,-6.1719,-6.1719,-6.1719,-6.1719,-6.1719,-6.1719,-6.1719,-6.1719,-6.1719,-6.1719,-6.1719,-6.1719,-6.1719,-6.1719,-6.1719,-6.1719,-6.1719,-6.1719,-6.1719,-6.1719,-6.1719,-6.2031,-6.2461,-6.2969,-6.3672,-6.4531,-6.5547,-6.5937,-6.6367,-6.6875,-6.6914,-6.6914,-6.6914,-6.6914,-6.6327,-6.5261,-6.5017,-6.4807,0.0,0.0,0.0,0.0,0.0,0.0,-3.0367,-3.1293,-3.2301,0.0,0.0,0.0,0.0,0.0,0.0,0.0,0.0,0.0,0.0,0.0,0.0,0.0,0.0,0.0,0.0,0.0,-3.9766,-3.9766,-3.9844,-4.0234,-4.1016,-4.1133,-4.1211,-4.1211,-4.1211,-4.125,-4.1328,-4.2148,-4.2969,-4.3867,-4.4726,-4.5547,-4.6289,-4.6289,-4.6245,-4.6095,-4.5981,-4.5939,-4.6009,-4.6912,-4.7293,-4.7478,-4.9289,-5.0042,-5.0246,-5.1092,-5.1953,-5.2812,-5.3711,-5.457,-5.543,-5.6328,-5.6601,-5.6601,-5.6601,-5.7265,-5.8242,-5.9219,-6.0547,-6.1719,-6.1719,-6.1719,-6.1719,-6.1719,-6.1719,-6.1719,-6.1719,-6.1719,-6.1719,-6.1719,-6.1719,-6.1719,-6.1719,-6.1719,-6.1719,-6.1719,-6.1719,-6.1719,-6.1719,-6.1719,-6.1758,-6.1836,-6.1836,-6.1875,-6.1992,-6.2695,-6.3164,-6.3241,-6.4726,-6.5625,-6.5702,-6.6484,-6.6914,-6.6914,-6.6914,-6.6914,-6.6914,-6.6874,-6.6784,-6.656,-6.6435,-6.6252,0.0,0.0,0.0,0.0,0.0,0.0,-3.0684,-3.0864,-3.1065,0.0,0.0,0.0,0.0,0.0,0.0,0.0,0.0,0.0,0.0,0.0,0.0,0.0,0.0,0.0,0.0,0.0,-3.8867,-3.8867,-3.9492,-3.9961,-4.0156,-4.082,-4.1211,-4.1211,-4.1211,-4.1523,-4.2148,-4.3008,-4.3867,-4.4766,-4.5625,-4.6133,-4.6289,-4.6289,-4.6289,-4.6248,-4.6136,-4.6069,-4.6187,-4.7738,-4.8395,-4.8515,-4.9599,-5.0451,-5.1132,-5.1328,-5.1953,-5.2812,-5.3711,-5.457,-5.543,-5.6328,-5.6601,-5.6601,-5.6601,-5.7695,-5.9258,-6.0781,-6.1445,-6.1719,-6.1719,-6.1719,-6.1719,-6.1719,-6.1719,-6.1719,-6.1719,-6.1719,-6.1719,-6.1719,-6.1719,-6.1719,-6.1719,-6.1719,-6.1719,-6.1719,-6.1719,-6.1719,-6.1719,-6.1719,-6.1953,-6.2656,-6.2734,-6.3047,-6.3711,-6.3945,-6.4293,-6.4804,-6.5307,-6.5855,-6.6368,-6.6714,-6.6914,-6.6914,-6.6914,-6.6914,-6.6914,-6.6738,-6.6596,-6.6429,-6.6244,-6.6089,0.0,0.0,0.0,-3.1903,0.0,0.0,0.0,-3.1364,-3.1361,-3.1384,0.0,0.0,0.0,0.0,0.0,0.0,0.0,0.0,0.0,0.0,0.0,0.0,0.0,0.0,0.0,0.0,-3.7969,-3.7969,-3.8359,-3.8789,-3.9219,-4.0078,-4.0547,-4.0547,-4.1367,-4.1992,-4.2383,-4.3711,-4.457,-4.5,-4.5898,-4.6289,-4.6289,-4.6289,-4.6289,-4.6289,-4.615,-4.6144,-4.6316,-4.8016,-4.8724,-4.8935,-5.0186,-5.0973,-5.1406,-5.1406,-5.2226,-5.3398,-5.3867,-5.4844,-5.6015,-5.6445,-5.6601,-5.6601,-5.6601,-5.7812,-5.9531,-6.1211,-6.1719,-6.1719,-6.1719,-6.1719,-6.1719,-6.1719,-6.1719,-6.1719,-6.1719,-6.1719,-6.1836,-6.2265,-6.2344,-6.2344,-6.2344,-6.2344,-6.25,-6.293,-6.3008,-6.3008,-6.3008,-6.3008,-6.3164,-6.3594,-6.3633,-6.3828,-6.4258,-6.4687,-6.5077,-6.5414,-6.5935,-6.6405,-6.6743,-6.6834,-6.6914,-6.6914,-6.6914,-6.6914,-6.6914,-6.6616,-6.6463,-6.6381,-6.6187,-6.6046,0.0,0.0,0.0,0.0,0.0,-3.2233,0.0,0.0,0.0,-3.1816,0.0,0.0,0.0,0.0,0.0,0.0,0.0,0.0,0.0,0.0,0.0,0.0,0.0,0.0,0.0,0.0,-3.6875,-3.7031,-3.7031,-3.75,-3.8555,-3.9414,-3.9961,-4.0156,-4.1601,-4.2461,-4.2656,-4.4219,-4.5078,-4.5273,-4.5976,-4.6289,-4.6289,-4.6289,-4.6289,-4.6289,-4.6352,-4.6434,-4.6679,-4.8306,-4.9053,-4.9297,-5.082,-5.1406,-5.1406,-5.1406,-5.25,-5.3984,-5.3984,-5.5156,-5.6601,-5.6601,-5.6601,-5.664,-5.6797,-5.7969,-5.9492,-6.1015,-6.1562,-6.1719,-6.1719,-6.1719,-6.1719,-6.1719,-6.1719,-6.1719,-6.1719,-6.1719,-6.1953,-6.2812,-6.3008,-6.3047,-6.3203,-6.3242,-6.3476,-6.418,-6.4297,-6.4297,-6.4297,-6.4297,-6.4375,-6.4531,-6.4531,-6.4609,-6.4805,-6.5469,-6.582,-6.5818,-6.6484,-6.6875,-6.6834,-6.6874,-6.6914,-6.6914,-6.6914,-6.6914,-6.6914,-6.6564,-6.6387,-6.6381,-6.6174,-6.5992,0.0,0.0,0.0,0.0,-3.3248,0.0,0.0,0.0,-3.2706,-3.1182,0.0,0.0,0.0,0.0,0.0,0.0,0.0,0.0,0.0,0.0,0.0,0.0,0.0,0.0,0.0,0.0,0.0,-3.6094,-3.6133,-3.6875,-3.8516,-3.9414,-4.0234,-4.1016,-4.1914,-4.2773,-4.3555,-4.4531,-4.5391,-4.6133,-4.625,-4.6289,-4.6289,-4.6289,-4.6289,-4.6328,-4.7109,-4.7422,-4.7578,-4.9336,-5.0039,-5.0156,-5.1055,-5.1406,-5.1406,-5.1406,-5.25,-5.3984,-5.3984,-5.5156,-5.6601,-5.6601,-5.6601,-5.6758,-5.7539,-5.8437,-5.9375,-6.0273,-6.1094,-6.1719,-6.1719,-6.1719,-6.1719,-6.1719,-6.1719,-6.1719,-6.1719,-6.1719,-6.1953,-6.2812,-6.3008,-6.3242,-6.4023,-6.414,-6.418,-6.4297,-6.4297,-6.4297,-6.4297,-6.4297,-6.4609,-6.5351,-6.5469,-6.5781,-6.6523,-6.6719,-6.6676,-6.6517,-6.6751,-6.6831,-6.6634,-6.679,-6.6914,-6.6914,-6.6914,-6.6914,-6.6914,-6.6564,-6.6387,-6.6381,-6.6067,-6.5897,0.0,0.0,0.0,0.0,0.0,0.0,-3.4394,0.0,-3.3083,0.0,0.0,0.0,0.0,0.0,0.0,0.0,0.0,0.0,0.0,0.0,0.0,0.0,0.0,0.0,0.0,0.0,0.0,0.0,0.0,-3.6324,-3.7067,-3.8398,-3.9766,-4.1172,-4.2461,-4.3555,-4.4453,-4.5312,-4.5937,-4.6289,-4.6289,-4.6289,-4.6289,-4.6289,-4.6562,-4.707,-4.7422,-4.7891,-4.8437,-4.9687,-5.0195,-5.0273,-5.1094,-5.1406,-5.1406,-5.1406,-5.25,-5.3984,-5.3984,-5.5156,-5.6601,-5.6601,-5.6601,-5.6875,-5.8242,-5.8906,-5.9453,-6.0781,-6.1406,-6.1719,-6.1719,-6.1719,-6.1719,-6.1719,-6.1719,-6.1719,-6.1719,-6.1719,-6.2109,-6.3476,-6.375,-6.418,-6.5586,-6.539,-6.5234,-6.5742,-6.582,-6.582,-6.582,-6.582,-6.5937,-6.6328,-6.6367,-6.6484,-6.6875,-6.6914,-6.6874,-6.6787,-6.6834,-6.6874,-6.6787,-6.674,-6.6787,-6.6914,-6.6788,-6.6788,-6.6914,-6.6564,-6.6387,-6.6381,-6.6074,-6.5897,-3.9058,0.0,0.0,0.0,0.0,0.0,0.0,0.0,0.0,0.0,0.0,0.0,0.0,0.0,0.0,0.0,0.0,0.0,0.0,0.0,0.0,0.0,0.0,0.0,0.0,0.0,0.0,0.0,-3.4903,0.0,-3.6631,-3.7888,-3.9492,-4.1484,-4.293,-4.4101,-4.5,-4.5859,-4.6289,-4.6289,-4.6289,-4.6289,-4.6289,-4.6289,-4.6797,-4.7617,-4.7851,-4.8437,-4.9336,-5.0195,-5.0547,-5.0586,-5.1172,-5.1406,-5.1445,-5.168,-5.2695,-5.4023,-5.4258,-5.5351,-5.6601,-5.6601,-5.6758,-5.7187,-5.8476,-5.914,-5.9765,-6.1015,-6.1523,-6.1719,-6.1719,-6.1719,-6.1719,-6.1719,-6.1719,-6.1719,-6.1719,-6.1719,-6.2226,-6.3945,-6.4297,-6.4844,-6.6601,-6.6367,-6.6172,-6.6797,-6.6914,-6.6914,-6.6914,-6.6914,-6.6914,-6.6914,-6.6914,-6.6914,-6.6914,-6.6914,-6.6914,-6.6914,-6.6914,-6.6992,-6.7265,-6.6848,-6.6807,-6.7265,-6.6809,-6.6807,-6.7265,-6.6681,-6.6504,-6.6731,-6.6151,-6.5897,0.0,0.0,0.0,-3.9779,0.0,0.0,0.0,0.0,-3.5335,0.0,0.0,0.0,0.0,0.0,0.0,0.0,0.0,0.0,0.0,0.0,0.0,0.0,0.0,0.0,0.0,0.0,0.0,0.0,-3.3384,0.0,-3.8231,-3.8466,-3.9683,-4.2266,-4.3242,-4.4101,-4.5,-4.5859,-4.6289,-4.6289,-4.6289,-4.6289,-4.6289,-4.6289,-4.6797,-4.7656,-4.8476,-4.9336,-5.0234,-5.1016,-5.1367,-5.1367,-5.1406,-5.1406,-5.1484,-5.2344,-5.3242,-5.4101,-5.4961,-5.5859,-5.6601,-5.6601,-5.7187,-5.7851,-5.793,-5.9062,-6.0351,-6.043,-6.1055,-6.1719,-6.1719,-6.1719,-6.1719,-6.1719,-6.1719,-6.1719,-6.1719,-6.1719,-6.2226,-6.3945,-6.4297,-6.4844,-6.6601,-6.6875,-6.6875,-6.6914,-6.6914,-6.6914,-6.6914,-6.6914,-6.6914,-6.6914,-6.6914,-6.6914,-6.6914,-6.6914,-6.6914,-6.6914,-6.6914,-6.7265,-6.8125,-6.7162,-6.708,-6.8125,-6.7121,-6.7119,-6.8164,-6.6958,-6.6821,-6.7632,-6.6432,-6.5897,0.0,0.0,-4.2371,-4.2374,0.0,0.0,0.0,0.0,0.0,0.0,0.0,0.0,0.0,0.0,0.0,0.0,0.0,0.0,0.0,0.0,0.0,0.0,0.0,0.0,0.0,0.0,0.0,-3.3187,-3.3826,-3.5175,0.0,-3.823,-3.9997,-4.3164,-4.3555,-4.4414,-4.5859,-4.6133,-4.6289,-4.6289,-4.6289,-4.6601,-4.7148,-4.7148,-4.7969,-4.9336,-4.9648,-5.0234,-5.1016,-5.1289,-5.1406,-5.1406,-5.1406,-5.1406,-5.1523,-5.2383,-5.3242,-5.4219,-5.5664,-5.6367,-5.6719,-5.7265,-5.7656,-5.8125,-5.9219,-5.9961,-6.0508,-6.1094,-6.1484,-6.1719,-6.1719,-6.1719,-6.1719,-6.1719,-6.1719,-6.1875,-6.2422,-6.2578,-6.3086,-6.4805,-6.5156,-6.5547,-6.6719,-6.6914,-6.6914,-6.6914,-6.6914,-6.6914,-6.6914,-6.6914,-6.6914,-6.6914,-6.6914,-6.6914,-6.6914,-6.6914,-6.6914,-6.6914,-6.6914,-6.7031,-6.7344,-6.6848,-6.6846,-6.7344,-6.7434,-6.7646,-6.8015,-6.8042,-6.7843,-6.7506,-6.695,-6.6397,-4.5153,-4.484,0.0,0.0,-4.3273,0.0,-4.0989,0.0,0.0,0.0,0.0,0.0,0.0,0.0,0.0,0.0,0.0,0.0,0.0,-2.598,0.0,0.0,0.0,0.0,0.0,0.0,-3.0898,-3.2714,-3.367,-3.519,0.0,0.0,-4.0151,-4.3594,-4.3711,-4.4531,-4.6289,-4.6289,-4.6289,-4.6289,-4.6601,-4.707,-4.7617,-4.793,-4.8828,-5.0195,-5.0195,-5.0664,-5.1406,-5.1406,-5.1406,-5.1406,-5.1406,-5.1601,-5.1953,-5.2851,-5.3906,-5.5078,-5.6211,-5.6601,-5.6758,-5.7617,-5.8125,-5.8633,-6.0,-6.0625,-6.0976,-6.1523,-6.1719,-6.1719,-6.1719,-6.1719,-6.1719,-6.1719,-6.1953,-6.2305,-6.289,-6.3242,-6.3906,-6.5312,-6.5586,-6.5898,-6.6758,-6.6914,-6.6914,-6.6914,-6.6914,-6.6914,-6.6914,-6.6914,-6.6914,-6.6914,-6.6914,-6.6914,-6.6914,-6.6914,-6.6914,-6.6914,-6.7187,-6.75,-6.7773,-6.7631,-6.7888,-6.8583,-6.8369,-6.8548,-6.9163,-6.8631,-6.82,-6.7852,-6.7058,-6.6397]},{"header":{"parameterUnit":"m.s-1","parameterCategory":1,"la1":30.6,"la2":29.2853,"lo1":-89.7004,"lo2":-87.6739,"dy":0.0162,"dx":0.0183,"nx":112,"ny":82,"refTime":"2024-02-21T06:00:00:Z","depth":0,"parameterNumber":3,"parameterNumberName":"V-component_of_WINDS"},"data":[0.0,0.0,0.0,0.0,0.0,0.0,0.0,0.0,0.0,0.0,0.0,0.0,0.0,0.0,0.0,0.0,0.0,0.0,0.0,0.0,0.0,0.0,0.0,0.0,0.0,0.0,0.0,0.0,0.0,0.0,0.0,0.0,0.0,0.0,0.0,0.0,0.0,0.0,0.0,0.0,0.0,0.0,0.0,0.0,0.0,0.0,0.0,0.0,0.0,0.0,0.0,0.0,0.0,0.0,0.0,0.0,0.0,0.0,0.0,0.0,0.0,0.0,0.0,0.0,0.0,0.0,0.0,0.0,0.0,0.0,0.0,0.0,0.0,0.0,0.0,0.0,0.0,0.0,0.0,0.0,0.0,0.0,0.0,0.0,0.0,0.0,0.0,0.0,0.0,0.0,0.5929,0.6918,0.9646,1.1801,1.2881,1.3691,1.3534,1.211,0.0,0.0,0.0,0.0,0.0,0.0,0.0,0.0,0.0,0.0,0.0,0.0,0.0,0.0,0.0,0.0,0.0,0.0,0.0,0.0,0.0,0.0,0.0,0.0,0.0,0.0,0.0,0.0,0.0,0.0,0.0,0.0,0.0,0.0,0.0,0.0,0.0,0.0,0.0,0.0,0.0,0.0,0.0,0.0,0.0,0.0,0.0,0.0,0.0,0.0,0.0,0.0,0.0,0.0,0.0,0.0,0.0,0.0,0.0,0.0,0.0,0.0,0.0,0.0,0.0,0.0,0.0,0.0,0.0,0.0,0.0,0.0,0.0,0.0,0.0,0.0,0.0,0.0,0.0,0.0,0.0,0.0,0.0,0.0,0.0,0.0,0.0,0.0,0.0,0.0,0.0,0.0,0.0,0.0,0.0,0.0,0.0,0.0,0.0,0.0,0.0,0.0,0.0,0.0,0.6781,0.8394,0.9862,1.1301,1.2712,1.2717,1.2593,1.2508,0.0,0.0,0.0,0.0,0.0,0.0,0.0,0.0,0.0,0.0,0.0,0.0,0.0,0.0,0.0,0.0,0.0,0.0,0.0,0.0,0.0,0.0,0.0,0.0,0.0,0.0,0.0,0.0,0.0,0.0,0.0,0.0,0.0,0.0,0.0,0.0,0.0,0.0,0.0,0.0,0.0,0.0,0.0,0.0,0.0,0.0,0.0,0.0,0.0,0.0,0.0,0.0,0.0,0.0,0.0,0.0,0.0,0.0,0.0,0.0,0.0,0.0,0.0,0.0,0.0,0.0,0.0,0.0,0.0,0.0,0.0,0.0,0.0,0.0,0.0,0.0,0.0,0.0,0.0,0.0,0.0,0.0,0.0,0.0,0.0,0.0,0.0,0.0,0.0,0.0,0.0,0.0,0.0,0.0,0.0,0.0,0.0,0.0,0.0,0.0,0.0,0.0,0.0,0.6152,0.6767,0.7731,0.8991,1.025,1.138,1.1542,1.1714,1.2055,1.1256,0.0,0.0,0.0,0.0,0.0,0.0,0.0,0.0,0.0,0.0,0.0,0.0,0.0,0.0,0.0,0.0,0.0,0.0,0.0,0.0,0.0,0.0,0.0,0.0,0.0,0.0,0.0,0.0,0.0,0.0,0.0,0.0,0.0,0.0,0.0,0.0,0.0,0.0,0.0,0.0,0.0,0.0,0.0,0.0,0.0,0.0,0.0,0.0,0.0,0.0,0.0,0.0,0.0,0.0,0.0,0.0,0.0,0.0,0.0,0.0,0.0,0.0,0.0,0.0,0.0,0.0,0.0,0.0,0.0,0.0,0.0,0.0,0.0,0.0,0.0,0.0,0.0,0.0,0.0,0.0,0.0,0.0,0.0,0.0,0.0,0.0,0.0,0.0,0.0,0.0,0.0,0.0,0.0,0.0,0.0,0.0,0.0,0.0,0.0,0.0,0.0,0.0,0.641,0.6501,0.6878,0.8208,0.9411,1.0264,1.0616,1.0997,1.1439,1.051,0.0,0.0,0.0,0.0,0.0,0.0,0.0,0.0,0.0,0.0,0.0,0.0,0.0,0.0,0.0,0.0,0.0,0.0,0.0,0.0,0.0,0.0,0.0,0.0,0.0,0.0,0.0,0.0,0.0,0.0,0.0,0.0,0.0,0.0,0.0,0.0,0.0,0.0,0.0,0.0,0.0,0.0,0.0,0.0,0.0,0.0,0.0,0.0,0.0,0.0,0.0,0.0,0.0,0.0,0.0,0.0,0.0,0.0,0.0,0.0,0.0,0.0,0.0,0.0,0.0,0.0,0.0,0.0,0.0,0.0,0.0,0.0,0.0,0.0,0.0,0.0,0.0,0.0,0.0,0.0,0.0,0.0,0.0,0.0,0.0,0.0,0.0,0.0,0.0,0.0,0.0,0.0,0.0,0.0,0.0,0.0,0.0,0.0,0.0,0.0,0.0,0.0,0.6096,0.6274,0.6822,0.8107,0.926,1.0154,1.0169,1.0438,1.108,1.0059,0.0,0.0,0.0,0.0,0.0,0.0,0.0,0.0,0.0,0.0,0.0,0.0,0.0,0.0,0.0,0.0,0.0,0.0,0.0,0.0,0.0,0.0,0.0,0.0,0.0,0.0,0.0,0.0,0.0,0.0,0.0,0.0,0.0,0.0,0.0,0.0,0.0,0.0,0.0,0.0,0.0,0.0,0.0,0.0,0.0,0.0,0.0,0.0,0.0,0.0,0.0,0.0,0.0,0.0,0.0,0.0,0.0,0.0,0.0,0.0,0.0,0.0,0.0,0.0,0.0,0.0,0.0,0.0,0.0,0.0,0.0,0.0,0.0,0.0,0.0,0.0,0.0,0.0,0.0,0.0,0.0,0.0,0.0,0.0,0.0,0.0,0.0,0.0,0.0,0.0,0.0,0.0,0.0,0.0,0.0,0.0,0.0,0.0,0.0,0.0,0.0,0.0,0.6082,0.6301,0.0,0.7195,0.7887,0.8756,0.8875,0.9192,0.9878,0.0,0.0,0.0,0.0,0.0,0.0,0.0,0.0,0.0,0.0,0.0,0.0,0.0,0.0,0.0,0.0,0.0,0.0,0.0,0.0,0.0,0.0,0.0,0.0,0.0,0.0,0.0,0.0,0.0,0.0,0.0,0.0,0.0,0.0,0.0,0.0,0.0,0.0,0.0,0.0,0.0,0.0,0.0,0.0,0.0,0.0,0.0,0.0,0.0,0.0,0.0,0.0,0.0,0.0,0.0,0.0,0.0,0.0,0.0,0.0,0.0,0.0,0.0,0.0,0.0,0.0,0.0,0.0,0.0,0.0,0.0,0.0,0.0,0.0,0.0,0.0,0.0,0.0,0.0,0.0,0.0,0.0,0.0,0.0,0.0,0.0,0.0,0.0,0.0,0.0,0.0,0.0,0.0,0.0,0.0,0.0,0.0,0.0,0.0,0.0,0.0,0.0,0.5607,0.5974,0.6291,0.0,0.6607,0.7022,0.7863,0.8004,0.8285,0.889,0.0,0.0,0.0,0.0,0.0,0.0,0.0,0.0,0.0,0.0,0.0,0.0,0.0,0.0,0.0,0.0,0.0,0.0,0.0,0.0,0.0,0.0,0.0,0.0,0.0,0.0,0.0,0.0,0.0,0.0,0.0,0.0,0.0,0.0,0.0,0.0,0.0,0.0,0.0,0.0,0.0,0.0,0.0,0.0,0.0,0.0,0.0,0.0,0.0,0.0,0.0,0.0,0.0,0.0,0.0,0.0,0.0,0.0,0.0,0.0,0.0,0.0,0.0,0.0,0.0,0.0,0.0,0.0,0.0,0.0,0.0,0.0,0.0,0.0,0.0,0.0,0.0,0.0,0.0,0.0,0.0,0.0,0.0,0.0,0.0,0.0,0.0,0.0,0.0,0.0,0.0,0.0,0.0,0.0,0.0,0.0,0.0,0.0,0.0,0.0,0.0,0.0,0.5274,0.5696,0.6139,0.6477,0.6607,0.6972,0.7735,0.7713,0.7879,0.0,0.0,0.0,0.0,0.0,0.0,0.0,0.0,0.0,0.0,0.0,0.0,0.0,0.0,0.0,0.0,0.0,0.0,0.0,0.0,0.0,0.0,0.0,0.0,0.0,0.0,0.0,0.0,0.0,0.0,0.0,0.0,0.0,0.0,0.0,0.0,0.0,0.0,0.0,0.0,0.0,0.0,0.0,0.0,0.0,0.0,0.0,0.0,0.0,0.0,0.0,0.0,0.0,0.0,0.0,0.0,0.0,0.0,0.0,0.0,0.0,0.0,0.0,0.0,0.0,0.0,0.0,0.0,0.0,0.0,0.0,0.0,0.0,0.0,0.0,0.0,0.0,0.0,0.0,0.0,0.0,0.0,0.0,0.0,0.0,0.0,0.0,0.0,0.0,0.0,0.0,0.0,0.0,0.0,0.0,0.0,0.0,0.0,0.0,0.0,0.0,0.0,0.0,0.5274,0.5633,0.5983,0.6327,0.6268,0.6308,0.6513,0.6599,0.6831,0.7303,0.0,0.0,0.0,0.0,0.0,0.0,0.0,0.0,0.0,0.0,0.0,0.0,0.0,0.0,0.0,0.0,0.0,0.0,0.0,0.0,0.0,0.0,0.0,0.0,0.0,0.0,0.0,0.0,0.0,0.0,0.0,0.0,0.0,0.0,0.0,0.0,0.0,0.0,0.0,0.0,0.0,0.0,0.0,0.0,0.0,0.0,0.0,0.0,0.0,0.0,0.0,0.0,0.0,0.0,0.0,0.0,0.0,0.0,0.0,0.0,0.0,0.0,0.0,0.0,0.0,0.0,0.0,0.0,0.0,0.0,0.0,0.0,0.0,0.0,0.0,0.0,0.0,0.0,0.0,0.0,0.0,0.0,0.0,0.0,0.0,0.0,0.0,0.0,0.0,0.0,0.0,0.0,0.0,0.0,0.0,0.0,0.0,0.0,0.0,0.0,0.0,0.0,0.5266,0.5538,0.5833,0.6139,0.603,0.5915,0.5861,0.6093,0.6343,0.651,0.0,0.0,0.0,0.0,0.0,0.0,0.0,0.0,0.0,0.0,0.0,0.0,0.0,0.0,0.0,0.0,0.0,0.0,0.0,0.0,0.0,0.0,0.0,0.0,0.0,0.0,0.0,0.0,0.0,0.0,0.0,0.0,0.0,0.0,0.0,0.0,0.0,0.0,0.0,0.0,0.0,0.0,0.0,0.0,0.0,0.0,0.0,0.0,0.0,0.0,0.0,0.0,0.0,0.0,0.0,0.0,0.0,0.0,0.0,0.0,0.0,0.0,0.0,0.0,0.0,0.0,0.0,0.0,0.0,0.0,0.0,0.0,0.0,0.0,0.0,0.0,0.0,0.0,0.0,0.0,0.0,0.0,0.0,0.0,0.0,0.0,0.0,0.0,0.0,0.0,0.0,0.0,0.0,0.0,0.0,0.0,0.0,0.0,0.0,0.0,0.0,0.0,0.523,0.548,0.5718,0.5959,0.5895,0.5745,0.5603,0.603,0.6162,0.5911,0.0,0.0,0.0,0.0,0.0,0.0,0.0,0.0,0.0,0.0,0.0,0.0,0.0,0.0,0.0,0.0,0.0,0.0,0.0,0.0,0.0,0.0,0.0,0.0,0.0,0.0,0.0,0.0,0.0,0.0,0.0,0.0,0.0,0.0,0.0,0.0,0.0,0.0,0.0,0.0,0.0,0.0,0.0,0.0,0.0,0.0,0.0,0.0,0.0,0.0,0.0,0.0,0.0,0.0,0.0,0.0,0.0,0.0,0.0,0.0,0.4518,0.0,0.0,0.0,0.0,0.0,0.0,0.0,0.0,0.0,0.0,0.0,0.0,0.0,0.0,0.0,0.0,0.0,0.0,0.0,0.0,0.0,0.0,0.0,0.0,0.0,0.0,0.0,0.0,0.0,0.0,0.0,0.0,0.0,0.0,0.0,0.0,0.0,0.0,0.0,0.0,0.0,0.523,0.5558,0.5827,0.5973,0.5895,0.5745,0.5603,0.5463,0.5538,0.5863,0.5869,0.0,0.0,0.0,0.0,0.0,0.0,0.0,0.0,0.0,0.0,0.0,0.0,0.0,0.0,0.0,0.0,0.0,0.0,0.0,0.0,0.0,0.0,0.0,0.0,0.0,0.0,0.0,0.0,0.0,0.0,0.0,0.0,0.0,0.0,0.0,0.0,0.0,0.0,0.0,0.0,0.0,0.0,0.0,0.0,0.0,0.0,0.0,0.0,0.0,0.0,0.0,0.0,0.0,0.0,0.0,0.0,0.0,0.0,0.0,0.0,0.4732,0.0,0.0,0.0,0.0,0.0,0.0,0.0,0.0,0.0,0.0,0.0,0.0,0.0,0.0,0.0,0.0,0.0,0.0,0.0,0.0,0.0,0.0,0.0,0.0,0.0,0.0,0.0,0.0,0.0,0.0,0.0,0.0,0.0,0.0,0.0,0.0,0.0,0.0,0.0,0.0,0.5438,0.5583,0.5705,0.5959,0.5833,0.5698,0.5691,0.5481,0.5453,0.5748,0.5675,0.0,0.0,0.0,0.0,0.0,0.0,0.0,0.0,0.0,0.0,0.0,0.0,0.0,0.0,0.0,0.0,0.0,0.0,0.0,0.0,0.0,0.0,0.0,0.0,0.0,0.0,0.0,0.0,0.0,0.0,0.0,0.0,0.0,0.0,0.0,0.0,0.0,0.0,0.0,0.0,0.0,0.0,0.0,0.0,0.0,0.0,0.0,0.0,0.0,0.0,0.0,0.0,0.0,0.0,0.6648,0.6688,0.6717,0.6699,0.6566,0.5839,0.5481,0.5358,0.0,0.0,0.0,0.0,0.0,0.0,0.0,0.0,0.0,0.0,0.0,0.0,0.0,0.0,0.0,0.0,0.0,0.0,0.0,0.0,0.0,0.0,0.0,0.0,0.0,0.6014,0.6074,0.0,0.0,0.0,0.0,0.0,0.0,0.0,0.0,0.0,0.0,0.0,0.0,0.5661,0.5621,0.5623,0.5952,0.5813,0.5691,0.5759,0.5657,0.5583,0.5549,0.572,0.5864,0.0,0.0,0.0,0.0,0.0,0.0,0.0,0.0,0.0,0.0,0.0,0.0,0.0,0.0,0.0,0.0,0.0,0.0,0.0,0.0,0.0,0.0,0.0,0.0,0.0,0.0,0.0,0.0,0.0,0.0,0.0,0.0,0.619,0.5758,0.0,0.0,0.0,0.0,0.0,0.0,0.0,0.0,0.0,0.0,0.0,0.0,0.0,0.0,0.65,0.6795,0.6893,0.6825,0.6968,0.6914,0.6689,0.6818,0.6905,0.7,0.6846,0.0,0.6125,0.5919,0.0,0.0,0.0,0.0,0.0,0.0,0.0,0.0,0.0,0.0,0.0,0.0,0.0,0.0,0.0,0.0,0.0,0.0,0.0,0.0,0.0,0.0,0.6195,0.6356,0.643,0.6451,0.0,0.5951,0.5408,0.5068,0.0,0.0,0.0,0.0,0.0,0.0,0.0,0.0,0.5508,0.5749,0.5925,0.5986,0.5959,0.5874,0.5637,0.5603,0.5535,0.5433,0.5459,0.5521,0.5652,0.6011,0.0,0.0,0.0,0.0,0.0,0.0,0.0,0.0,0.0,0.0,0.0,0.0,0.0,0.0,0.0,0.0,0.0,0.0,0.0,0.0,0.0,0.0,0.0,0.0,0.0,0.0,0.0,0.0,0.0,0.6663,0.645,0.6042,0.6222,0.631,0.0,0.0,0.0,0.0,0.0,0.0,0.0,0.0,0.0,0.5747,0.6423,0.6802,0.6812,0.7132,0.7282,0.7305,0.7448,0.7449,0.7455,0.7476,0.7537,0.7591,0.7555,0.7375,0.7023,0.6695,0.634,0.5967,0.0,0.0,0.0,0.0,0.0,0.5307,0.5375,0.0,0.0,0.0,0.0,0.0,0.0,0.0,0.0,0.0,0.0,0.0,0.0,0.0,0.0,0.6546,0.6729,0.6844,0.6831,0.6551,0.6144,0.0,0.5628,0.5416,0.4821,0.0,0.0,0.0,0.0,0.0,0.5738,0.5842,0.5969,0.6139,0.6003,0.5881,0.584,0.5684,0.5562,0.5528,0.544,0.5501,0.5698,0.6296,0.6605,0.0,0.0,0.0,0.0,0.0,0.0,0.0,0.0,0.0,0.0,0.0,0.0,0.0,0.0,0.0,0.0,0.0,0.0,0.0,0.0,0.0,0.0,0.0,0.0,0.0,0.0,0.0,0.0,0.6755,0.6756,0.6248,0.6462,0.6574,0.0,0.0,0.0,0.0,0.0,0.0,0.6344,0.6701,0.6841,0.6659,0.6948,0.7149,0.7166,0.7434,0.7597,0.7712,0.7821,0.788,0.7988,0.7988,0.7988,0.7988,0.7988,0.7867,0.7672,0.7319,0.6853,0.6357,0.6218,0.5927,0.0,0.5682,0.5876,0.6041,0.6105,0.6446,0.6781,0.6599,0.0,0.6277,0.5879,0.0,0.0,0.0,0.0,0.5266,0.5605,0.0,0.6389,0.6713,0.6937,0.7065,0.6964,0.6943,0.6806,0.0,0.6267,0.6006,0.5464,0.0,0.0,0.0,0.0,0.5617,0.5942,0.5962,0.6003,0.6272,0.6095,0.5935,0.5932,0.5772,0.561,0.5569,0.5494,0.5535,0.5684,0.65,0.684,0.6535,0.0,0.0,0.0,0.0,0.0,0.0,0.0,0.0,0.0,0.0,0.0,0.0,0.0,0.0,0.0,0.0,0.0,0.0,0.0,0.0,0.0,0.0,0.0,0.0,0.0,0.0,0.0,0.0,0.0,0.6306,0.673,0.0,0.0,0.0,0.0,0.7053,0.6836,0.6368,0.5671,0.646,0.6649,0.6059,0.7149,0.7828,0.7934,0.7948,0.7961,0.7968,0.7975,0.7982,0.7988,0.7988,0.7988,0.7988,0.7988,0.7982,0.7941,0.7685,0.7461,0.7285,0.682,0.6738,0.6779,0.6692,0.6652,0.6685,0.696,0.7065,0.7132,0.7455,0.7441,0.7186,0.6412,0.6025,0.0,0.0,0.5416,0.5755,0.6062,0.644,0.6728,0.7011,0.7085,0.7092,0.7085,0.7085,0.6997,0.0,0.658,0.6358,0.5931,0.0,0.6046,0.5482,0.5879,0.6186,0.6013,0.6152,0.6279,0.63,0.6286,0.6163,0.5833,0.58,0.5671,0.5426,0.5535,0.5556,0.5426,0.5829,0.5999,0.584,0.6325,0.0,0.0,0.0,0.0,0.0,0.0,0.0,0.0,0.0,0.0,0.0,0.0,0.0,0.0,0.0,0.0,0.0,0.0,0.0,0.0,0.0,0.0,0.0,0.0,0.0,0.0,0.0,0.0,0.7273,0.7505,0.0,0.7312,0.7233,0.7299,0.7541,0.7454,0.7339,0.7169,0.7649,0.7713,0.729,0.7912,0.8228,0.8187,0.8187,0.8187,0.8187,0.8035,0.7988,0.7988,0.7988,0.7988,0.7988,0.7988,0.7988,0.7982,0.788,0.774,0.7495,0.7247,0.7094,0.7017,0.7108,0.7182,0.7289,0.7476,0.757,0.7556,0.7475,0.7346,0.7132,0.6754,0.6599,0.6485,0.6254,0.632,0.6521,0.6718,0.6857,0.7034,0.7238,0.721,0.7098,0.7098,0.7098,0.7065,0.6957,0.6865,0.6694,0.647,0.6337,0.624,0.5995,0.6063,0.6091,0.6,0.6166,0.63,0.63,0.6173,0.6064,0.5919,0.5861,0.5759,0.565,0.561,0.565,0.5786,0.5847,0.5996,0.6227,0.6485,0.6276,0.0,0.0,0.0,0.0,0.0,0.0,0.0,0.0,0.0,0.0,0.0,0.0,0.0,0.0,0.0,0.0,0.0,0.0,0.0,0.0,0.0,0.0,0.0,0.0,0.0,0.0,0.7821,0.7727,0.7954,0.7997,0.7706,0.7681,0.7788,0.7934,0.7987,0.8079,0.818,0.8425,0.8472,0.8224,0.7981,0.8013,0.8343,0.7827,0.7521,0.7522,0.7835,0.7789,0.7335,0.7789,0.7739,0.7335,0.7789,0.7739,0.7385,0.7789,0.7874,0.774,0.7638,0.7536,0.7409,0.7556,0.7658,0.776,0.7855,0.7889,0.7848,0.7597,0.7448,0.7294,0.7197,0.7156,0.7136,0.7034,0.7075,0.7163,0.721,0.7217,0.7244,0.7346,0.7292,0.7217,0.7217,0.7258,0.722,0.7112,0.6984,0.6813,0.6586,0.6329,0.6145,0.6037,0.5881,0.5798,0.5842,0.6013,0.6172,0.6172,0.6111,0.6084,0.6,0.5909,0.5835,0.5806,0.5734,0.5781,0.5912,0.5929,0.5993,0.6159,0.6185,0.6073,0.5788,0.0,0.0,0.0,0.0,0.0,0.0,0.0,0.0,0.0,0.0,0.0,0.0,0.0,0.0,0.0,0.0,0.0,0.0,0.0,0.0,0.0,0.0,0.0,0.6821,0.7486,0.7935,0.7677,0.8041,0.8174,0.7868,0.8113,0.834,0.8333,0.8418,0.8492,0.8486,0.8635,0.8716,0.8703,0.7294,0.713,0.844,0.678,0.5945,0.5937,0.7241,0.7185,0.5977,0.7285,0.7185,0.6032,0.7335,0.7185,0.6082,0.7434,0.7988,0.7988,0.7988,0.7988,0.7988,0.7988,0.7988,0.7988,0.7988,0.7988,0.7968,0.7868,0.7821,0.7794,0.7651,0.7604,0.7604,0.7604,0.7597,0.7563,0.7421,0.7426,0.7426,0.7433,0.7426,0.7426,0.7426,0.7495,0.7509,0.7166,0.6997,0.6767,0.6288,0.6129,0.5877,0.5481,0.5454,0.0,0.5515,0.5758,0.5901,0.5907,0.6158,0.6207,0.6027,0.595,0.5904,0.5833,0.5858,0.5885,0.5827,0.6002,0.5934,0.5542,0.542,0.5698,0.6384,0.0,0.0,0.0,0.0,0.0,0.0,0.0,0.0,0.0,0.0,0.0,0.0,0.0,0.0,0.0,0.0,0.0,0.0,0.0,0.0,0.0,0.0,0.765,0.7757,0.8115,0.8353,0.8405,0.8586,0.8676,0.8486,0.8642,0.871,0.8601,0.873,0.8764,0.8655,0.8791,0.8771,0.8554,0.7334,0.6762,0.7022,0.547,0.4672,0.4702,0.4985,0.4918,0.4568,0.4918,0.4918,0.4618,0.5977,0.6331,0.6082,0.7434,0.7988,0.7988,0.7988,0.7988,0.7988,0.7988,0.7988,0.7988,0.7988,0.7988,0.7982,0.7941,0.7928,0.7901,0.7801,0.7753,0.7733,0.7631,0.7597,0.7611,0.7672,0.7611,0.7563,0.7665,0.7611,0.7536,0.7536,0.757,0.7577,0.7489,0.7353,0.7173,0.6882,0.6744,0.6583,0.6392,0.0,0.0,0.6109,0.6152,0.6098,0.593,0.6243,0.6318,0.5941,0.6171,0.6296,0.6184,0.6029,0.6029,0.617,0.6215,0.6331,0.6527,0.619,0.6177,0.0,0.0,0.0,0.0,0.0,0.0,0.0,0.0,0.0,0.0,0.0,0.0,0.0,0.0,0.0,0.0,0.0,0.0,0.0,0.0,0.0,0.0,0.7829,0.7997,0.8367,0.8483,0.8571,0.8737,0.8831,0.8927,0.8899,0.8974,0.8988,0.8906,0.9035,0.9055,0.8906,0.8981,0.892,0.8682,0.6798,0.6038,0.6477,0.4367,0.3262,0.3289,0.376,0.3707,0.3203,0.3758,0.371,0.0,0.4572,0.5183,0.528,0.6603,0.7484,0.0,0.0,0.0,0.0,0.0,0.7988,0.7988,0.7988,0.7988,0.7988,0.7988,0.7988,0.7975,0.7887,0.7909,0.7889,0.7807,0.7787,0.7787,0.7807,0.7746,0.7706,0.7794,0.7746,0.7685,0.7685,0.774,0.7726,0.7543,0.0,0.0,0.7132,0.6856,0.6616,0.6418,0.63,0.6244,0.0,0.6201,0.615,0.602,0.6273,0.6384,0.6185,0.6388,0.0,0.0,0.0,0.6324,0.6411,0.6337,0.0,0.0,0.0,0.6293,0.0,0.0,0.0,0.0,0.5496,0.4435,0.0,0.0,0.0,0.0,0.0,0.0,0.0,0.0,0.0,0.0,0.0,0.0,0.0,0.0,0.0,0.0,0.8476,0.8386,0.8695,0.8655,0.8669,0.8858,0.8898,0.9015,0.92,0.9207,0.9214,0.9234,0.9364,0.9313,0.9221,0.0,0.0,0.0,0.0,0.5214,0.6275,0.3436,0.1949,0.1813,0.2981,0.2902,0.1818,0.3006,0.2902,0.1868,0.3368,0.404,0.4136,0.5648,0.6977,0.8035,0.8002,0.7988,0.7988,0.7988,0.7988,0.0,0.0,0.0,0.0,0.7988,0.7988,0.7988,0.7988,0.7988,0.7988,0.7988,0.7988,0.7961,0.7875,0.7834,0.7834,0.7834,0.7834,0.7834,0.7834,0.7894,0.7874,0.7522,0.7529,0.7516,0.7193,0.6764,0.6376,0.6077,0.6002,0.0,0.6084,0.6124,0.6141,0.6128,0.0,0.0,0.6465,0.6567,0.6646,0.6709,0.6655,0.6606,0.6619,0.6411,0.6257,0.6213,0.6128,0.6398,0.6985,0.7135,0.7462,0.7932,0.5394,0.432,0.0,0.0,0.0,0.0,0.0,0.0,0.0,0.0,0.0,0.0,0.0,0.0,0.0,0.0,0.0,0.8509,0.8583,0.8701,0.9064,0.915,0.9144,0.8905,0.9042,0.918,0.9207,0.9207,0.9262,0.9327,0.9361,0.9313,0.9221,0.9207,0.0,0.8892,0.7204,0.5857,0.4893,0.3074,0.1581,0.0381,0.0,0.0,0.0371,0.0636,0.0636,0.053,0.3063,0.4169,0.4376,0.6934,0.8183,0.837,0.8083,0.7988,0.7988,0.7988,0.7988,0.7988,0.7988,0.7988,0.7988,0.7988,0.7988,0.7988,0.7988,0.7988,0.0,0.7988,0.7988,0.7982,0.7955,0.7948,0.7948,0.7948,0.7948,0.7948,0.7948,0.7968,0.7961,0.788,0.774,0.7584,0.7522,0.7215,0.6889,0.6723,0.671,0.6677,0.6587,0.6586,0.6492,0.628,0.6595,0.6672,0.635,0.6658,0.6822,0.6709,0.6687,0.6713,0.6833,0.6797,0.682,0.6915,0.7139,0.7336,0.7456,0.7716,0.7862,0.7988,0.7402,0.6103,0.0,0.0,0.0,0.0,0.0,0.0,0.0,0.0,0.0,0.0,0.0,0.83,0.8076,0.0,0.8629,0.8888,0.8905,0.9008,0.9289,0.9401,0.9415,0.9184,0.9225,0.9323,0.9323,0.934,0.9415,0.949,0.9557,0.9503,0.9337,0.934,0.9245,0.8892,0.7539,0.6079,0.4526,0.2994,0.1438,0.0,0.0,0.0,0.0,0.0,0.0,0.0108,0.2261,0.3603,0.4404,0.7287,0.8479,0.8465,0.8316,0.8221,0.8153,0.8153,0.8106,0.7988,0.7988,0.7988,0.7988,0.7988,0.7988,0.7988,0.7988,0.7988,0.7988,0.7988,0.7988,0.7988,0.7988,0.7988,0.7988,0.7988,0.7988,0.7988,0.7988,0.7988,0.7968,0.7887,0.7746,0.7597,0.7597,0.7407,0.7231,0.7163,0.7149,0.7122,0.7048,0.6905,0.6744,0.6623,0.68,0.683,0.6636,0.686,0.6957,0.6883,0.6919,0.691,0.6991,0.6991,0.7024,0.7092,0.7441,0.7597,0.7597,0.7847,0.7988,0.7988,0.7335,0.5922,0.0,0.0,0.0,0.0,0.0,0.0,0.0,0.0,0.8235,0.8234,0.8515,0.8782,0.8717,0.8807,0.8972,0.925,0.9292,0.935,0.9442,0.9571,0.9585,0.9401,0.9408,0.9422,0.9422,0.9537,0.9618,0.9646,0.9754,0.9707,0.9442,0.9517,0.9388,0.8994,0.7871,0.6393,0.4526,0.324,0.1734,0.0,0.0,0.0,0.0,0.0,0.0,0.011,0.1866,0.3559,0.5301,0.7594,0.8574,0.8574,0.8574,0.8486,0.835,0.8323,0.8214,0.8035,0.8035,0.8015,0.7988,0.7988,0.7988,0.7988,0.7988,0.7988,0.7988,0.7988,0.7988,0.7988,0.7988,0.7988,0.7988,0.7988,0.7988,0.7988,0.7988,0.7988,0.7955,0.7882,0.774,0.7638,0.7638,0.7536,0.7448,0.7421,0.746,0.7453,0.7419,0.7163,0.7,0.693,0.6923,0.6923,0.6923,0.7031,0.7098,0.7098,0.7125,0.7139,0.7139,0.7173,0.7186,0.7186,0.7502,0.7638,0.7645,0.786,0.7988,0.7939,0.6376,0.5022,0.8962,0.895,0.8842,0.8914,0.8668,0.8331,0.0,0.0,0.8237,0.7769,0.8055,0.8371,0.8335,0.8643,0.9016,0.9319,0.948,0.9605,0.9754,0.9788,0.9693,0.9415,0.9503,0.9585,0.9585,0.9598,0.9659,0.9788,0.9815,0.9754,0.9591,0.9469,0.932,0.9193,0.8847,0.7326,0.4526,0.4303,0.2796,0.0,0.0,0.0,0.0,0.0,0.0,0.0168,0.301,0.5793,0.841,0.8728,0.8831,0.8831,0.8831,0.8798,0.8648,0.8506,0.837,0.8241,0.8241,0.8153,0.7988,0.7988,0.7988,0.7988,0.7988,0.7988,0.7988,0.7988,0.7988,0.7988,0.7988,0.7988,0.7988,0.7988,0.7988,0.7988,0.7988,0.7988,0.7982,0.7968,0.7889,0.7787,0.7787,0.7773,0.7719,0.759,0.7577,0.7522,0.7433,0.7392,0.7272,0.7085,0.7071,0.7071,0.7071,0.7085,0.7098,0.7098,0.7272,0.7346,0.7346,0.7475,0.755,0.755,0.7706,0.7787,0.7787,0.7907,0.7988,0.7939,0.5422,0.4168,0.9027,0.8953,0.8744,0.8633,0.8459,0.8199,0.7861,0.7993,0.8149,0.8041,0.8275,0.8554,0.8642,0.8954,0.9266,0.0,0.9639,0.9754,0.9815,0.9747,0.9618,0.9408,0.9361,0.9347,0.9347,0.9503,0.9632,0.9693,0.9774,0.9761,0.9618,0.9551,0.9401,0.9214,0.9184,0.8118,0.5946,0.589,0.4418,0.1475,0.135,0.084,0.0,0.0,0.0953,0.2684,0.3968,0.62,0.8885,0.8885,0.8885,0.8885,0.8885,0.8844,0.8825,0.8669,0.852,0.8384,0.8347,0.8228,0.816,0.8015,0.7988,0.7988,0.7988,0.7988,0.7988,0.7988,0.7988,0.7988,0.7988,0.7988,0.7988,0.7988,0.7988,0.7988,0.7988,0.7988,0.7988,0.7988,0.7916,0.7841,0.788,0.7868,0.7821,0.7848,0.778,0.7672,0.7522,0.7428,0.7312,0.7112,0.7098,0.7098,0.7098,0.7224,0.7278,0.7278,0.7421,0.7502,0.7502,0.7563,0.7597,0.7597,0.774,0.7814,0.7814,0.7914,0.7988,0.7939,0.5268,0.4014,0.8991,0.8898,0.8679,0.8365,0.8209,0.8046,0.7855,0.8011,0.8255,0.837,0.8594,0.8818,0.8967,0.9171,0.9381,0.9578,0.9693,0.9761,0.9761,0.9639,0.9476,0.9279,0.9123,0.9084,0.9084,0.9347,0.9564,0.9605,0.9741,0.9761,0.9618,0.9612,0.949,0.9282,0.932,0.8627,0.6966,0.6935,0.5606,0.3093,0.293,0.2293,0.1232,0.0784,0.2014,0.4526,0.4526,0.62,0.8885,0.8885,0.8885,0.8885,0.8885,0.8885,0.8871,0.8811,0.8676,0.8526,0.8377,0.8354,0.8248,0.8092,0.7988,0.7988,0.7988,0.7988,0.7988,0.7988,0.7988,0.7988,0.7988,0.7988,0.7988,0.7988,0.7988,0.7988,0.7988,0.7988,0.7988,0.7988,0.7901,0.7909,0.7968,0.7901,0.7909,0.7975,0.7894,0.7821,0.7678,0.7529,0.7394,0.7233,0.722,0.722,0.722,0.7373,0.7434,0.7434,0.7577,0.7658,0.7658,0.7699,0.7719,0.7719,0.7821,0.7875,0.7875,0.7934,0.7988,0.7939,0.5268,0.4014,0.8954,0.8927,0.8993,0.8666,0.8176,0.791,0.8231,0.8479,0.8689,0.8696,0.8825,0.8974,0.9173,0.9214,0.9316,0.9557,0.9612,0.9618,0.9618,0.9483,0.9279,0.8932,0.8818,0.8723,0.0,0.913,0.9449,0.9598,0.9741,0.9761,0.9618,0.9612,0.9537,0.9381,0.9381,0.8671,0.7084,0.6971,0.6118,0.4633,0.4504,0.4414,0.4303,0.2794,0.3017,0.4526,0.4526,0.62,0.8885,0.8885,0.8885,0.8885,0.8885,0.8885,0.8885,0.8878,0.8832,0.8682,0.8526,0.8384,0.8248,0.8092,0.7988,0.7988,0.7988,0.7988,0.7988,0.7988,0.7988,0.7988,0.7988,0.7988,0.7988,0.7988,0.7988,0.7988,0.7988,0.7988,0.7988,0.7988,0.7988,0.7982,0.7988,0.7988,0.7982,0.7988,0.7988,0.7928,0.7828,0.7678,0.759,0.7584,0.7584,0.7584,0.7584,0.759,0.759,0.759,0.7726,0.7801,0.7801,0.7901,0.7975,0.7975,0.7982,0.7982,0.7982,0.7988,0.7988,0.7939,0.5268,0.4014,0.9098,0.8962,0.8817,0.903,0.8649,0.8309,0.8513,0.8716,0.8832,0.873,0.8776,0.8866,0.8916,0.9114,0.9297,0.9374,0.9642,0.9745,0.9487,0.9503,0.9347,0.8845,0.8743,0.0,0.0,0.0,0.0,0.9442,0.9598,0.97,0.9747,0.9659,0.9585,0.9537,0.953,0.9248,0.8619,0.857,0.7743,0.6175,0.5009,0.4526,0.447,0.3968,0.4526,0.5977,0.5977,0.7093,0.8892,0.9042,0.9083,0.9083,0.9083,0.9144,0.9205,0.8952,0.8967,0.8967,0.8716,0.8533,0.8404,0.835,0.8269,0.8194,0.8194,0.8194,0.8174,0.8015,0.7988,0.7988,0.7988,0.7988,0.7988,0.7988,0.7988,0.7988,0.7988,0.7988,0.7988,0.7988,0.7988,0.7988,0.7988,0.7988,0.7988,0.7988,0.7901,0.7868,0.7821,0.7685,0.7597,0.7597,0.7597,0.7597,0.7597,0.7685,0.774,0.774,0.7882,0.7914,0.7914,0.7961,0.7988,0.7988,0.7988,0.7988,0.7988,0.7988,0.7988,0.7939,0.5268,0.4014,0.9083,0.8974,0.8912,0.9026,0.8807,0.8601,0.8757,0.8825,0.8818,0.8758,0.8664,0.8642,0.8792,0.895,0.9056,0.912,0.9421,0.9529,0.9346,0.9293,0.9164,0.8832,0.8743,0.8635,0.0,0.0,0.0,0.9211,0.951,0.9433,0.8815,0.9313,0.936,0.8706,0.9354,0.9639,0.9537,0.949,0.8916,0.7784,0.6739,0.5946,0.535,0.535,0.5841,0.6705,0.674,0.76,0.9022,0.9173,0.9241,0.9282,0.9117,0.9171,0.9273,0.9028,0.8994,0.9042,0.8798,0.8648,0.8554,0.8499,0.8418,0.8343,0.8343,0.8343,0.8316,0.8167,0.8119,0.8119,0.8119,0.8119,0.8119,0.8119,0.8119,0.8106,0.8002,0.7988,0.7988,0.7988,0.7988,0.7988,0.7988,0.7988,0.7988,0.7988,0.7907,0.7889,0.7889,0.7814,0.7753,0.7753,0.7753,0.7753,0.7753,0.7841,0.7889,0.7889,0.7934,0.7988,0.7988,0.7988,0.7988,0.7988,0.7988,0.7988,0.7988,0.7988,0.7988,0.7939,0.5268,0.4014,0.8955,0.9027,0.9272,0.8832,0.871,0.875,0.8838,0.8784,0.8748,0.887,0.8519,0.8314,0.0,0.0,0.8651,0.8776,0.8951,0.9123,0.9217,0.8927,0.8811,0.0,0.0,0.0,0.0,0.0,0.0,0.8892,0.0,0.8954,0.7057,0.8696,0.8842,0.703,0.8708,0.9694,0.9687,0.9606,0.9523,0.9381,0.9381,0.8545,0.7039,0.7033,0.6976,0.6837,0.6992,0.7834,0.9221,0.9221,0.9309,0.9354,0.9062,0.9035,0.92,0.8994,0.8892,0.8871,0.8777,0.8716,0.8689,0.8554,0.8499,0.8492,0.8492,0.8492,0.8465,0.8374,0.8333,0.8333,0.8333,0.8333,0.8333,0.8333,0.8333,0.8241,0.8042,0.8015,0.8008,0.8002,0.7995,0.7988,0.7988,0.7988,0.7988,0.7988,0.7988,0.7988,0.7988,0.7988,0.7988,0.7988,0.7988,0.7988,0.7988,0.7988,0.7988,0.7988,0.7988,0.7988,0.7988,0.7988,0.7988,0.7988,0.7988,0.7988,0.7988,0.7988,0.7988,0.7939,0.5268,0.4014,0.8508,0.8697,0.8976,0.8757,0.871,0.8723,0.8757,0.8713,0.866,0.8637,0.8488,0.8411,0.0,0.0,0.0,0.8495,0.897,0.0,0.9188,0.9374,0.0,0.913,0.0,0.9123,0.8844,0.9117,0.0,0.0,0.9347,0.8835,0.7331,0.7757,0.7225,0.5498,0.7104,0.7933,0.7785,0.8915,0.9422,0.9381,0.9381,0.9187,0.8737,0.8685,0.8673,0.8686,0.8666,0.8869,0.932,0.932,0.9347,0.9361,0.9171,0.9191,0.9293,0.9035,0.9008,0.9076,0.8933,0.8804,0.8723,0.8798,0.8743,0.8655,0.8655,0.8655,0.8621,0.8472,0.8425,0.8425,0.8425,0.8425,0.8425,0.8425,0.8425,0.8418,0.8377,0.837,0.8336,0.8228,0.8119,0.7988,0.7988,0.7988,0.7988,0.7988,0.7988,0.7988,0.7988,0.7988,0.7988,0.7988,0.7988,0.7988,0.7988,0.7988,0.7988,0.7988,0.7988,0.7988,0.7988,0.7988,0.7988,0.7988,0.7988,0.7988,0.7988,0.7988,0.7988,0.7939,0.5268,0.4014,0.8776,0.8838,0.9015,0.8927,0.8804,0.8695,0.8784,0.8612,0.8485,0.855,0.842,0.8226,0.8038,0.8269,0.0,0.0,0.0,0.0,0.9174,0.9367,0.9483,0.0,0.9429,0.0,0.9157,0.934,0.9469,0.0,0.9523,0.8593,0.6315,0.6967,0.632,0.3935,0.6137,0.7696,0.8299,0.9136,0.9578,0.9578,0.9578,0.9544,0.9476,0.9395,0.9361,0.9381,0.0,0.9361,0.9381,0.9381,0.9381,0.9361,0.9144,0.9191,0.9347,0.9049,0.9028,0.9187,0.8988,0.8824,0.8825,0.8858,0.8824,0.8811,0.8811,0.8811,0.8777,0.8628,0.8581,0.8581,0.8581,0.8581,0.8581,0.8581,0.8581,0.8567,0.8499,0.8479,0.8438,0.8347,0.8201,0.8119,0.8002,0.7988,0.7988,0.7988,0.7988,0.7988,0.7988,0.7988,0.7988,0.7988,0.7988,0.7988,0.7988,0.7988,0.7988,0.7988,0.7988,0.7988,0.7988,0.7988,0.7988,0.7988,0.7988,0.7988,0.7988,0.8106,0.814,0.8089,0.6047,0.4732,0.9259,0.9255,0.9262,0.9221,0.8913,0.873,0.8829,0.8521,0.8261,0.8524,0.83,0.7996,0.7861,0.8084,0.8204,0.7947,0.0,0.8887,0.9167,0.9241,0.9357,0.9598,0.9639,0.9585,0.9456,0.9557,0.97,0.9842,0.9836,0.8303,0.4955,0.622,0.5647,0.2585,0.5464,0.785,0.9451,0.97,0.9822,0.9822,0.9822,0.9754,0.9639,0.9618,0.9551,0.9449,0.0,0.0,0.9408,0.9388,0.9381,0.9354,0.9076,0.9137,0.9347,0.9069,0.9049,0.9187,0.8988,0.8885,0.8885,0.8885,0.8885,0.8885,0.8885,0.8885,0.8858,0.8777,0.8743,0.8743,0.8743,0.8743,0.8743,0.8743,0.8743,0.8649,0.8355,0.8256,0.8256,0.8323,0.8333,0.8221,0.8015,0.7988,0.7988,0.7988,0.7988,0.7988,0.7988,0.7988,0.7988,0.7988,0.7988,0.7988,0.7988,0.7988,0.7988,0.7988,0.7988,0.7988,0.7988,0.7988,0.7988,0.7988,0.7988,0.8002,0.8022,0.8208,0.8333,0.8303,0.6846,0.5461,0.9337,0.9435,0.9469,0.9275,0.8886,0.857,0.8718,0.8437,0.0,0.8399,0.8371,0.8189,0.7655,0.7661,0.7744,0.7791,0.8034,0.8527,0.9255,0.934,0.9449,0.0,0.9781,0.9774,0.9747,0.9768,0.0,0.0,0.0,0.8378,0.5229,0.5248,0.4487,0.2585,0.4364,0.6141,0.7789,0.914,0.9822,0.9822,0.9822,0.9808,0.9781,0.9659,0.9659,0.9741,0.0,0.0,0.9557,0.9435,0.9381,0.9361,0.9184,0.9225,0.9361,0.9234,0.9187,0.9187,0.8988,0.8885,0.8885,0.8885,0.8885,0.8885,0.8885,0.8885,0.8878,0.8851,0.8844,0.8844,0.8844,0.8844,0.8844,0.8844,0.8844,0.8501,0.7254,0.6948,0.7166,0.8262,0.8402,0.8221,0.8015,0.7988,0.7988,0.7988,0.7988,0.7988,0.7988,0.7988,0.7988,0.7988,0.7988,0.7988,0.7988,0.7988,0.7988,0.7988,0.7988,0.7988,0.7988,0.7988,0.7988,0.7988,0.7988,0.8099,0.8228,0.8255,0.8381,0.8393,0.5822,0.4454,0.9601,0.9652,0.9537,0.9289,0.8866,0.8526,0.8641,0.0,0.0,0.8364,0.8348,0.8072,0.7424,0.7471,0.0,0.741,0.7562,0.8021,0.8837,0.8989,0.9198,0.9659,0.9774,0.9822,0.0,0.9822,0.0,0.0,0.0,0.0,0.5266,0.3325,0.2421,0.2525,0.3262,0.4426,0.608,0.6874,0.7673,0.8526,0.8526,0.9019,0.9822,0.9747,0.9754,0.9815,0.0,0.0,0.9605,0.953,0.9456,0.9374,0.93,0.9367,0.9483,0.9327,0.933,0.9309,0.9103,0.9049,0.9042,0.8905,0.8885,0.8885,0.8885,0.8885,0.8885,0.8885,0.8885,0.8885,0.8885,0.8885,0.8885,0.8885,0.8325,0.7537,0.6871,0.6047,0.5873,0.7226,0.7422,0.7531,0.8042,0.816,0.8133,0.8002,0.7988,0.7988,0.7988,0.7988,0.7988,0.7988,0.7988,0.7988,0.7988,0.7988,0.7988,0.7988,0.7988,0.7988,0.7988,0.8119,0.816,0.816,0.8235,0.8309,0.8384,0.8459,0.8533,0.8548,0.7265,0.5832,0.9786,0.9774,0.9578,0.9296,0.8866,0.8528,0.8545,0.8259,0.8013,0.8261,0.8221,0.7921,0.717,0.7232,0.7291,0.0,0.7041,0.7443,0.8285,0.8497,0.8852,0.0,0.9713,0.0,0.9822,0.0,0.0,0.0,0.0,0.0,0.521,0.1836,0.0627,0.191,0.2339,0.3077,0.4364,0.4732,0.559,0.6869,0.7235,0.8033,0.9329,0.9633,0.9822,0.9822,0.0,0.0,0.0,0.9612,0.9537,0.9429,0.9429,0.9523,0.9639,0.9483,0.9429,0.9408,0.9309,0.9262,0.9241,0.9069,0.9008,0.8981,0.8892,0.8885,0.8885,0.8885,0.8885,0.8885,0.8885,0.8885,0.883,0.8491,0.7315,0.6255,0.6255,0.5083,0.4502,0.6172,0.6477,0.6899,0.815,0.8368,0.8262,0.8113,0.8042,0.8042,0.8042,0.8008,0.8002,0.8035,0.8008,0.7988,0.7988,0.7988,0.7988,0.7988,0.8022,0.8042,0.8042,0.8235,0.8368,0.8368,0.8425,0.8499,0.8533,0.8655,0.873,0.8764,0.8549,0.7038,0.9636,0.9719,0.97,0.9316,0.8866,0.8478,0.8429,0.8113,0.7832,0.7918,0.7928,0.7675,0.6885,0.6758,0.6746,0.6573,0.0,0.6781,0.7903,0.8208,0.8581,0.9313,0.0,0.0,0.9822,0.0,0.0,0.0,0.0,0.0,0.0,0.1815,0.0063,0.0247,0.1725,0.2585,0.2708,0.418,0.4977,0.5161,0.6686,0.7484,0.7667,0.914,0.9822,0.9822,0.0,0.0,0.0,0.9612,0.9598,0.9591,0.9591,0.968,0.9781,0.9639,0.9591,0.9564,0.9415,0.9361,0.9361,0.9347,0.9245,0.9166,0.8981,0.8885,0.8885,0.8885,0.8885,0.8885,0.8885,0.8885,0.8546,0.7204,0.575,0.4693,0.4693,0.3519,0.3223,0.595,0.6477,0.6921,0.8276,0.8465,0.8411,0.8269,0.8248,0.8248,0.8248,0.8126,0.8092,0.8235,0.8126,0.7988,0.7988,0.7988,0.7988,0.7988,0.8174,0.8248,0.8248,0.8384,0.8465,0.8465,0.8472,0.8554,0.8689,0.8703,0.8784,0.8865,0.7531,0.6033,0.9454,0.9618,0.9585,0.9137,0.8615,0.8174,0.8154,0.7888,0.7659,0.7856,0.7836,0.7637,0.7147,0.6871,0.6618,0.6424,0.0,0.0,0.7111,0.7351,0.7841,0.8859,0.9239,0.0,0.0,0.0,0.0,0.0,0.0,0.0,0.0,0.2747,0.1065,0.0062,0.0617,0.0986,0.0986,0.1602,0.2462,0.3446,0.51,0.6446,0.7484,0.9079,0.9822,0.9822,0.0,0.0,0.0,0.9734,0.9734,0.9734,0.9734,0.9774,0.9815,0.9754,0.9686,0.9598,0.9537,0.9517,0.9503,0.9408,0.9401,0.9381,0.9144,0.9069,0.9069,0.9069,0.9008,0.8925,0.9157,0.8452,0.7534,0.6853,0.4874,0.3129,0.3102,0.196,0.1492,0.3493,0.4655,0.5724,0.7087,0.8028,0.8567,0.8418,0.8397,0.8397,0.8397,0.8343,0.833,0.8391,0.8269,0.818,0.818,0.8255,0.8303,0.8303,0.8364,0.8397,0.8397,0.854,0.8621,0.8621,0.871,0.8784,0.8845,0.8845,0.8378,0.7537,0.6982,0.5417,0.9192,0.9337,0.9327,0.8927,0.8436,0.8034,0.7972,0.7682,0.7516,0.7716,0.7676,0.7488,0.7176,0.6811,0.6444,0.0,0.0,0.5929,0.6489,0.6805,0.7316,0.0,0.0,0.0,0.0,0.0,0.0,0.0,0.0,0.0,0.0,0.3852,0.2242,0.0062,0.0,0.0,0.0,0.0,0.0617,0.1787,0.3873,0.5529,0.6747,0.8836,0.9822,0.0,0.0,0.0,0.0,0.9822,0.9822,0.9822,0.9822,0.9822,0.9822,0.9822,0.9754,0.9673,0.9673,0.9673,0.9652,0.9544,0.9585,0.9625,0.9367,0.9316,0.9275,0.9275,0.915,0.9096,0.9218,0.8103,0.6739,0.6195,0.4104,0.2067,0.1619,0.076,0.041,0.1885,0.3082,0.4422,0.6229,0.7405,0.8231,0.8521,0.8547,0.8547,0.8547,0.8513,0.8499,0.8547,0.8459,0.8384,0.8336,0.8425,0.8479,0.8479,0.8526,0.8547,0.8547,0.8696,0.8777,0.8777,0.8831,0.8885,0.8885,0.8474,0.7739,0.67,0.6261,0.4644,0.8698,0.8794,0.8852,0.8742,0.8449,0.8125,0.7882,0.7545,0.734,0.7483,0.7392,0.7176,0.6788,0.6426,0.6072,0.5666,0.0,0.0,0.6251,0.6829,0.7295,0.0,0.0,0.0,0.0,0.0,0.0,0.0,0.0,0.0,0.0,0.4855,0.3384,0.0123,0.0,0.0,0.0,0.0,0.0,0.0062,0.3323,0.4916,0.5039,0.8288,0.0,0.0,0.0,0.0,0.0,0.9822,0.9822,0.9822,0.9822,0.9822,0.9822,0.9822,0.9822,0.9822,0.9822,0.9822,0.9822,0.9815,0.9815,0.9795,0.9646,0.9496,0.9381,0.9381,0.9374,0.9313,0.8966,0.7915,0.6492,0.4879,0.3339,0.1827,0.0337,0.0,0.0408,0.1913,0.221,0.3191,0.6158,0.67,0.7161,0.8514,0.871,0.871,0.871,0.8574,0.854,0.8689,0.871,0.8642,0.8492,0.8479,0.8479,0.8479,0.8621,0.871,0.871,0.8852,0.8885,0.8885,0.8885,0.8885,0.8885,0.7427,0.6689,0.6649,0.5196,0.3691,0.823,0.8276,0.8246,0.811,0.7695,0.7305,0.7195,0.709,0.7062,0.7192,0.7192,0.7112,0.7004,0.6544,0.6165,0.6092,0.588,0.0,0.0,0.0,0.0,0.7691,0.0,0.0,0.0,0.0,0.0,0.0,0.0,0.0,0.0,0.0,0.4606,0.0123,0.0,0.0,0.0,0.0,0.0,0.0062,0.3323,0.4916,0.5039,0.8282,0.0,0.0,0.0,0.0,0.0,0.9822,0.9822,0.9822,0.9822,0.9822,0.9822,0.9822,0.9822,0.9822,0.9822,0.9822,0.9822,0.9822,0.9822,0.9815,0.9768,0.9652,0.9275,0.8049,0.7853,0.7687,0.6285,0.4907,0.3723,0.3061,0.1771,0.0595,0.012,0.0,0.0119,0.0582,0.1498,0.2849,0.4875,0.6033,0.7188,0.8598,0.8811,0.8811,0.8811,0.8825,0.8811,0.8804,0.8811,0.8804,0.8648,0.873,0.8798,0.8798,0.8838,0.8811,0.8811,0.8858,0.8885,0.8885,0.9035,0.8514,0.7376,0.7034,0.5739,0.3582,0.2104,0.1176,0.7819,0.7838,0.7834,0.7757,0.7387,0.7053,0.6972,0.6929,0.6958,0.7149,0.7085,0.7031,0.7031,0.6596,0.6228,0.6228,0.5998,0.0,0.0,0.0,0.0,0.7596,0.0,0.0,0.0,0.0,0.0,0.0,0.0,0.0,0.0,0.0,0.5158,0.0185,0.0617,0.0617,0.0,0.0,0.0,0.0062,0.3323,0.4916,0.5039,0.0,0.0,0.0,0.0,0.0,0.0,0.9822,0.9822,0.9822,0.9822,0.9822,0.9822,0.9822,0.9822,0.9822,0.9822,0.9822,0.9822,0.9822,0.9822,0.9822,0.9822,0.9761,0.9294,0.7482,0.716,0.6943,0.502,0.3502,0.2462,0.2268,0.1079,0.0,0.0,0.0,0.0,0.0,0.0762,0.1859,0.3369,0.4892,0.6426,0.7906,0.8708,0.9083,0.9028,0.9022,0.9022,0.9022,0.9022,0.9008,0.8967,0.8947,0.8885,0.8885,0.8885,0.8885,0.8885,0.8988,0.9022,0.9022,0.9164,0.8425,0.6747,0.5656,0.3836,0.1377,0.0417,0.0,0.0,0.7554,0.7534,0.7529,0.7372,0.7183,0.7093,0.6953,0.0,0.7203,0.7041,0.6863,0.6873,0.6547,0.6238,0.6134,0.6011,0.5894,0.0,0.6201,0.0,0.0,0.0,0.0,0.0,0.0,0.0,0.0,0.0,0.0,0.0,0.0,0.528,0.0308,0.1787,0.1787,0.0,0.0,0.0062,0.0185,0.3382,0.4977,0.5161,0.0,0.0,0.0,0.0,0.0,0.0,0.9822,0.9822,0.9822,0.9822,0.9822,0.9822,0.9822,0.9822,0.9822,0.9822,0.9822,0.9822,0.9822,0.9822,0.9822,0.9822,0.9822,0.9425,0.748,0.71,0.6766,0.468,0.3274,0.2281,0.207,0.1015,0.0,0.0,0.0,0.0,0.0,0.0,0.0479,0.1943,0.3521,0.5042,0.6677,0.8142,0.9038,0.9014,0.8937,0.888,0.888,0.8994,0.9111,0.9194,0.906,0.8898,0.8898,0.8898,0.8898,0.8898,0.9089,0.9228,0.9228,0.914,0.8282,0.6759,0.3589,0.1318,0.0,0.0,0.0,0.7373,0.0,0.6914,0.6912,0.667,0.652,0.0,0.6665,0.6608,0.6933,0.6744,0.0,0.6717,0.6416,0.6186,0.6313,0.6092,0.5894,0.5899,0.0,0.0,0.0,0.0,0.0,0.0,0.0,0.0,0.0,0.0,0.0,0.0,0.0,0.6996,0.2094,0.3507,0.2954,0.0,0.0,0.0617,0.191,0.3935,0.559,0.6869,0.0,0.0,0.0,0.0,0.0,0.9822,0.9822,0.9822,0.9822,0.9822,0.9822,0.9822,0.9822,0.9822,0.9822,0.9822,0.9822,0.9822,0.9822,0.9822,0.9822,0.9822,0.9822,0.9201,0.6237,0.5452,0.4784,0.1831,0.0795,0.0552,0.055,0.0245,0.0,0.0,0.0,0.0,0.0,0.0,0.0473,0.194,0.2524,0.3694,0.6502,0.621,0.6085,0.7285,0.6348,0.559,0.559,0.6696,0.7464,0.7497,0.8514,0.9103,0.9103,0.9103,0.9103,0.9103,0.9245,0.9327,0.9327,0.7044,0.5642,0.5346,0.2132,0.0368,0.0,0.0,0.0,0.7311,0.7041,0.6788,0.6707,0.649,0.6337,0.6436,0.6517,0.6598,0.0,0.6598,0.0,0.0,0.6383,0.6122,0.0,0.6226,0.0,0.0,0.0,0.0,0.0,0.0,0.0,0.0,0.0,0.0,0.0,0.0,0.0,0.0,0.0,0.6729,0.2497,0.3286,0.2934,0.1171,0.037,0.0863,0.2524,0.4119,0.5774,0.7479,0.0,0.0,0.0,0.0,0.0,0.9822,0.9822,0.9822,0.9822,0.9822,0.9822,0.9822,0.9822,0.9822,0.9822,0.9822,0.9822,0.9822,0.9822,0.9822,0.9633,0.8897,0.9207,0.9147,0.5835,0.4916,0.4119,0.0863,0.0555,0.0925,0.0185,0.0,0.0,0.0,0.0,0.0,0.0,0.0,0.0241,0.1082,0.1802,0.2938,0.4614,0.4794,0.4959,0.581,0.5153,0.4562,0.4562,0.5393,0.5941,0.5983,0.6666,0.7754,0.9202,0.9316,0.9316,0.9316,0.9401,0.9517,0.9585,0.6399,0.4814,0.4916,0.1602,0.0,0.0,0.0,0.0,0.7284,0.7101,0.6839,0.6717,0.6544,0.6391,0.632,0.0,0.0,0.0,0.0,0.0,0.0,0.6404,0.0,0.0,0.0,0.0,0.0,0.0,0.0,0.0,0.0,0.0,0.0,0.0,0.0,0.0,0.0,0.0,0.0,0.0,0.0,0.2706,0.2759,0.2835,0.2812,0.092,0.0984,0.2893,0.4242,0.5896,0.7784,0.9067,0.0,0.0,0.0,0.0,0.9822,0.9822,0.9822,0.9822,0.9822,0.9822,0.9822,0.9822,0.9822,0.9822,0.9822,0.9822,0.9822,0.9822,0.9633,0.9207,0.8094,0.8343,0.8532,0.6018,0.5284,0.461,0.154,0.1602,0.2156,0.074,0.0185,0.0,0.0,0.0,0.0,0.0,0.0,0.0,0.0,0.1171,0.2216,0.2462,0.3444,0.4221,0.4346,0.4159,0.3979,0.3979,0.4219,0.4422,0.4545,0.4676,0.5868,0.8571,0.8715,0.8832,0.9091,0.9453,0.9573,0.9451,0.6446,0.4794,0.4548,0.1479,0.0,0.0,0.0,0.0,0.7284,0.7025,0.6727,0.6703,0.6544,0.6484,0.6811,0.0,0.0,0.0,0.0,0.0,0.0,0.653,0.6552,0.0,0.0,0.0,0.0,0.0,0.0,0.0,0.0,0.0,0.0,0.0,0.0,0.0,0.0,0.0,0.0,0.0,0.0,0.4384,0.4325,0.4359,0.4372,0.1441,0.1521,0.4548,0.4794,0.6508,0.9444,0.9553,0.9686,0.0,0.0,0.0,0.9822,0.9822,0.9822,0.9822,0.9822,0.9822,0.9822,0.9822,0.9822,0.9822,0.9822,0.9822,0.9822,0.9822,0.8897,0.7972,0.9079,0.7673,0.5835,0.6747,0.6996,0.6564,0.4671,0.3323,0.2462,0.2156,0.1048,0.0,0.0,0.0,0.0,0.0,0.0,0.0,0.0,0.0185,0.0863,0.2279,0.1479,0.1231,0.2637,0.1596,0.0737,0.0737,0.1964,0.2823,0.2893,0.411,0.5079,0.5551,0.5482,0.6133,0.7669,0.9042,0.9121,0.7789,0.5896,0.4242,0.2893,0.0925,0.0,0.0,0.0,0.0,0.696,0.6858,0.6731,0.6407,0.6464,0.6692,0.6973,0.0,0.0,0.0,0.0,0.0,0.0,0.0,0.6797,0.7425,0.0,0.0,0.0,0.0,0.0,0.0,0.0,0.0,0.0,0.0,0.0,0.0,0.0,0.0,0.0,0.0,0.0,0.0,0.3777,0.3761,0.4569,0.152,0.1663,0.4915,0.4855,0.6487,0.97,0.9469,0.9442,0.0,0.0,0.9449,0.9591,0.9673,0.9707,0.9713,0.9788,0.9822,0.9822,0.9822,0.9822,0.9822,0.9822,0.9822,0.9822,0.9822,0.8714,0.7362,0.7179,0.6752,0.6198,0.608,0.6686,0.6808,0.4242,0.3689,0.3323,0.154,0.0555,0.0,0.0,0.0,0.0,0.0,0.0,0.0,0.0,0.0,0.0247,0.1048,0.0494,0.0308,0.1048,0.0494,0.0,0.0,0.0679,0.1171,0.1171,0.1848,0.3016,0.4794,0.4821,0.5183,0.6014,0.7606,0.7728,0.608,0.5284,0.4136,0.2493,0.0811,0.0,0.0,0.0,0.0,0.6628,0.6596,0.6549,0.6218,0.0,0.0,0.0,0.0,0.0,0.0,0.0,0.0,0.0,0.6916,0.0,0.0,0.0,0.0,0.0,0.0,0.0,0.0,0.0,0.0,0.0,0.0,0.0,0.0,0.0,0.0,0.0,0.0,0.0,0.0,0.3196,0.3131,0.3981,0.1317,0.163,0.4836,0.4777,0.6387,0.9544,0.933,0.9296,0.9374,0.9275,0.9296,0.9388,0.951,0.9578,0.9618,0.9727,0.9788,0.9822,0.9822,0.9822,0.9822,0.9822,0.9822,0.9822,0.9822,0.8465,0.6625,0.5774,0.5831,0.6075,0.5161,0.5835,0.632,0.4177,0.4242,0.418,0.1295,0.0308,0.0,0.0,0.0,0.0,0.0,0.0,0.0,0.0,0.0,0.0,0.0,0.0,0.0,0.0,0.0,0.0,0.0,0.0,0.0,0.0,0.0,0.1048,0.3566,0.4119,0.4364,0.4364,0.5953,0.6014,0.4364,0.4318,0.3546,0.189,0.0633,0.0,0.0,0.0,0.0,0.638,0.6147,0.5981,0.6454,0.6476,0.0,0.6928,0.7013,0.0,0.7343,0.0,0.0,0.0,0.7246,0.0,0.0,0.0,0.0,0.0,0.0,0.0,0.0,0.0,0.0,0.0,0.0,0.0,0.0,0.0,0.0,0.0,0.0,0.0,0.0,0.0,0.3695,0.2351,0.0798,0.1562,0.4698,0.4698,0.6341,0.9395,0.9282,0.9296,0.9374,0.9275,0.9296,0.9381,0.9395,0.9483,0.9612,0.9618,0.9707,0.9822,0.9822,0.9822,0.9822,0.9822,0.9822,0.9822,0.9822,0.7673,0.5345,0.6808,0.5158,0.3139,0.4487,0.4977,0.5406,0.6686,0.5957,0.4487,0.2708,0.111,0.0,0.0,0.0,0.0,0.0,0.0,0.0,0.0,0.0,0.0,0.0,0.0,0.0,0.0,0.0,0.0,0.0,0.0,0.0,0.0,0.0,0.0123,0.0308,0.1787,0.2647,0.2647,0.4242,0.4303,0.2708,0.2683,0.1826,0.0189,0.0064,0.0,0.0,0.0,0.0,0.5947,0.5425,0.4931,0.4972,0.5099,0.0,0.0,0.715,0.6925,0.7736,0.7924,0.0,0.0,0.0,0.0,0.0,0.0,0.0,0.0,0.0,0.0,0.0,0.0,0.0,0.0,0.0,0.0,0.0,0.0,0.0,0.0,0.0,0.0,0.0,0.0,0.2766,0.218,0.0733,0.1077,0.3129,0.4137,0.5713,0.7847,0.8633,0.9049,0.9103,0.9042,0.9055,0.911,0.9205,0.9334,0.949,0.9673,0.9774,0.9822,0.9822,0.9822,0.9822,0.9822,0.9822,0.9822,0.9822,0.7551,0.5039,0.5651,0.4303,0.2647,0.3262,0.4144,0.4847,0.4435,0.3873,0.3016,0.1356,0.0432,0.0,0.0,0.0,0.0,0.0,0.0,0.0,0.0,0.0,0.0,0.0,0.0,0.0,0.0,0.0,0.0,0.0,0.0,0.0,0.0,0.0,0.0,0.0,0.0566,0.0938,0.0938,0.2518,0.2657,0.0952,0.1973,0.1667,0.0,0.0,0.0,0.0,0.0,0.0,0.571,0.4929,0.4171,0.4113,0.0,0.0,0.6338,0.6668,0.6923,0.7994,0.8222,0.8186,0.8053,0.0,0.0,0.0,0.0,0.0,0.0,0.0,0.0,0.0,0.0,0.0,0.0,0.0,0.0,0.0,0.0,0.0,0.0,0.0,0.0,0.0,0.0,0.0,0.1487,0.0499,0.05,0.1554,0.3551,0.5334,0.6863,0.8251,0.8885,0.8885,0.8885,0.8885,0.8892,0.9042,0.9171,0.9334,0.9585,0.9713,0.9754,0.9754,0.9781,0.9822,0.9822,0.9822,0.9822,0.9822,0.7551,0.4916,0.4916,0.3382,0.1727,0.1736,0.2498,0.3074,0.199,0.2109,0.2047,0.0373,0.0,0.0,0.0,0.0,0.0,0.0,0.0,0.0,0.0,0.0,0.0,0.0,0.0,0.0,0.0,0.0,0.0,0.0,0.0,0.0,0.0,0.0,0.0,0.0,0.0,0.0255,0.0826,0.141,0.1417,0.0838,0.1423,0.1173,0.0,0.0,0.0,0.0,0.0,0.0,0.5684,0.4759,0.3767,0.4168,0.0,0.0,0.3715,0.5352,0.7076,0.8095,0.8307,0.833,0.8314,0.0,0.0,0.0,0.0,0.0,0.0,0.0,0.0,0.0,0.0,0.0,0.0,0.0,0.0,0.0,0.0,0.0,0.0,0.0,0.0,0.0,0.0,0.0,0.0,0.0,0.0,0.0055,0.3052,0.525,0.67,0.8208,0.8885,0.8885,0.8885,0.8885,0.8885,0.8885,0.9022,0.9228,0.932,0.9476,0.9612,0.9612,0.97,0.9822,0.9822,0.9822,0.9822,0.9822,0.7551,0.4916,0.4916,0.2585,0.0,0.0,0.0,0.0,0.0,0.1261,0.2079,0.0379,0.0,0.0,0.0,0.0,0.0,0.0,0.0,0.0,0.0,0.0,0.0,0.0,0.0,0.0,0.0,0.0,0.0,0.0,0.0,0.0,0.0,0.0,0.0,0.0,0.0,0.0785,0.2575,0.0967,0.0839,0.2637,0.0915,0.0,0.0,0.0,0.0,0.0,0.0,0.0,0.4573,0.3273,0.0,0.2118,0.0,0.0,0.0,0.515,0.0,0.0,0.8463,0.8647,0.837,0.0,0.0,0.0,0.0,0.0,0.0,0.0,0.0,0.0,0.0,0.0,0.0,0.0,0.0,0.0,0.0,0.0,0.0,0.0,0.0,0.0,0.0,0.0,0.0,0.0,0.0,0.0055,0.2923,0.4586,0.525,0.7765,0.8885,0.8885,0.8885,0.8885,0.8892,0.9049,0.9173,0.9228,0.932,0.9476,0.9612,0.9612,0.97,0.9822,0.9822,0.9822,0.9822,0.9822,0.7551,0.4916,0.4916,0.2585,0.0,0.0,0.0,0.0,0.0,0.0382,0.0629,0.0125,0.0,0.0,0.0,0.0,0.0,0.0,0.0,0.0,0.0,0.0,0.0,0.0,0.0,0.0,0.0,0.0,0.0,0.0,0.0,0.0,0.0,0.0,0.0,0.0,0.0,0.0263,0.0785,0.0264,0.0266,0.0797,0.0267,0.0,0.0,0.0,0.0,0.0,0.0,0.0,0.4146,0.2726,0.0,0.1369,0.2185,0.3134,0.3754,0.0,0.0,0.0,0.0,0.8988,0.0,0.0,0.0,0.0,0.0,0.0,0.0,0.0,0.0,0.0,0.0,0.0,0.0,0.0,0.0,0.0,0.0,0.0,0.0,0.0,0.0,0.0,0.0,0.0,0.0,0.0,0.0,0.0054,0.2872,0.4236,0.4491,0.7388,0.8791,0.8852,0.8858,0.8885,0.8892,0.9028,0.9069,0.9083,0.9232,0.9388,0.953,0.9585,0.97,0.9822,0.9822,0.9822,0.9822,0.9822,0.7551,0.4916,0.4916,0.2596,0.0,0.0,0.0,0.0,0.0,0.0,0.0,0.0,0.0,0.0,0.0,0.0,0.0,0.0,0.0,0.0,0.0,0.0,0.0,0.0,0.0,0.0,0.0,0.0,0.0,0.0,0.0,0.0,0.0,0.0,0.0,0.0,0.0,0.0,0.0,0.0,0.0336,0.1076,0.0336,0.0,0.0,0.0,0.0,0.0,0.0,0.0,0.4133,0.275,0.1296,0.1437,0.1755,0.0,0.3268,0.6152,0.8262,0.6969,0.0,0.0,0.0,0.0,0.0,0.0,0.0,0.0,0.0,0.0,0.0,0.0,0.0,0.0,0.0,0.0,0.0,0.0,0.0,0.0,0.0,0.0,0.0,0.0,0.0,0.0,0.0,0.0,0.0,0.0,0.2833,0.412,0.4073,0.699,0.8401,0.8554,0.8804,0.8871,0.8885,0.8885,0.8885,0.8898,0.9083,0.9282,0.9374,0.9517,0.9666,0.9802,0.9802,0.9808,0.9822,0.9822,0.7551,0.4916,0.4916,0.261,0.0,0.0,0.0,0.0,0.0,0.0,0.0,0.0,0.0,0.0,0.0,0.0,0.0,0.0,0.0,0.0,0.0,0.0,0.0,0.0,0.0,0.0,0.0,0.0,0.0,0.0,0.0,0.0,0.0,0.0,0.0,0.0,0.0,0.0,0.0,0.0,0.0807,0.2417,0.0807,0.0,0.0,0.0,0.0,0.0,0.0,0.0,0.3079,0.2037,0.0,0.0,0.1244,0.22,0.2427,0.4145,0.5735,0.6032,0.0,0.0,0.0,0.0,0.0,0.0,0.0,0.0,0.0,0.0,0.0,0.0,0.0,0.0,0.0,0.0,0.0,0.0,0.0,0.0,0.0,0.0,0.0,0.0,0.0,0.0,0.0,0.0,0.0,0.0,0.2762,0.3483,0.255,0.5584,0.7009,0.7186,0.825,0.8825,0.8885,0.8885,0.8885,0.8885,0.8974,0.9076,0.9262,0.9296,0.9422,0.9652,0.9652,0.9727,0.9822,0.9822,0.7551,0.4916,0.4916,0.259,0.0,0.0,0.0,0.0,0.0,0.0,0.0,0.0,0.0,0.0,0.0,0.0,0.0,0.0,0.0,0.0,0.0,0.0,0.0,0.0,0.0,0.0,0.0,0.0,0.0,0.0,0.0,0.0,0.0,0.0,0.0,0.0,0.0,0.0,0.0,0.0,0.0202,0.0606,0.0202,0.0,0.0,0.0,0.0,0.0,0.0,0.0,0.2712,0.0,0.0,0.0184,0.0,0.1167,0.1154,0.2394,0.3636,0.0,0.0,0.0,0.0,0.0,0.0,0.0,0.0,0.0,0.0,0.0,0.0,0.0,0.0,0.0,0.0,0.0,0.0,0.0,0.0,0.0,0.0,0.0,0.0,0.0,0.0,0.0,0.0,0.0,0.0,0.0,0.2073,0.2677,0.2094,0.4361,0.5865,0.6664,0.7363,0.8129,0.8878,0.8804,0.8817,0.8892,0.9015,0.9089,0.9221,0.9296,0.8936,0.8402,0.8402,0.8004,0.7429,0.7429,0.5774,0.3751,0.3751,0.1981,0.0,0.0,0.0,0.0,0.0,0.0,0.0,0.0,0.0,0.0,0.0,0.0,0.0,0.0,0.0,0.0,0.0,0.0,0.0,0.0,0.0,0.0,0.0,0.0,0.0,0.0,0.0,0.0,0.0,0.0,0.0,0.0,0.0,0.0,0.0,0.0,0.0,0.0,0.0,0.0,0.0,0.0,0.0,0.0,0.0,0.0,0.276,0.0,0.0749,0.0146,0.0,0.0,0.0,0.0969,0.1848,0.0,0.0,0.0,0.0,0.0,0.0,0.0,0.0,0.0,0.0,0.0,0.0,0.0,0.0,0.0,0.0,0.0,0.0,0.0,0.0,0.0,0.0,0.0,0.0,0.0,0.0,0.0,0.0,0.0,0.0,0.0,0.1109,0.1762,0.2014,0.3015,0.4412,0.6123,0.6385,0.7363,0.8797,0.8723,0.8743,0.8872,0.9022,0.9132,0.9152,0.9252,0.8353,0.705,0.705,0.6112,0.4916,0.4916,0.3812,0.2524,0.2524,0.1306,0.0,0.0,0.0,0.0,0.0,0.0,0.0,0.0,0.0,0.0,0.0,0.0,0.0,0.0,0.0,0.0,0.0,0.0,0.0,0.0,0.0,0.0,0.0,0.0,0.0,0.0,0.0,0.0,0.0,0.0,0.0,0.0,0.0,0.0,0.0,0.0,0.0,0.0,0.0,0.0,0.0,0.0,0.0,0.0,0.0,0.0,0.3093,0.0,0.0746,0.0,0.0,0.0,0.0,0.0,0.0,0.0,0.0,0.0,0.0,0.0,0.0,0.0,0.0,0.0,0.0,0.0,0.0,0.0,0.0,0.0,0.0,0.0,0.0,0.0,0.0,0.0,0.0,0.0,0.0,0.0,0.0,0.0,0.0,0.0,0.0,0.0,0.0202,0.0857,0.1962,0.1011,0.199,0.456,0.5798,0.7177,0.854,0.852,0.8526,0.856,0.871,0.8771,0.8791,0.894,0.8079,0.6935,0.6935,0.6056,0.4916,0.4916,0.3812,0.2524,0.2524,0.1358,0.0,0.0,0.0,0.0,0.0,0.0,0.0,0.0,0.0,0.0,0.0,0.0,0.0,0.0,0.0,0.0,0.0,0.0,0.0,0.0,0.0,0.0,0.0,0.0,0.0,0.0,0.0,0.0,0.0,0.0,0.0,0.0,0.0,0.0,0.0,0.0,0.0,0.0,0.0,0.0,0.0,0.0,0.0,0.0,0.0,0.0,0.3011,0.1881,0.0839,0.0,0.0241,0.0,0.0,0.0,0.0,0.0,0.0,0.0,0.0,0.0,0.0,0.0,0.0,0.0,0.0,0.0,0.0,0.0,0.0,0.0,0.0,0.0,0.0,0.0,0.0,0.0,0.0,0.0,0.0,0.0,0.0,0.0,0.0,0.0,0.0,0.0,0.0,0.0303,0.0857,0.0252,0.1526,0.4229,0.4798,0.6349,0.8479,0.8397,0.8411,0.8499,0.8648,0.8218,0.7582,0.8549,0.6951,0.4396,0.5272,0.407,0.2155,0.2155,0.1663,0.111,0.111,0.0555,0.0,0.0,0.0,0.0,0.0,0.0,0.0,0.0,0.0,0.0,0.0,0.0,0.0,0.0,0.0,0.0,0.0,0.0,0.0,0.0,0.0,0.0,0.0,0.0,0.0,0.0,0.0,0.0,0.0,0.0,0.0,0.0,0.0,0.0,0.0,0.0,0.0,0.0,0.0,0.0,0.0,0.0,0.0,0.0,0.1009,0.0941,0.0,0.0,0.1207,0.0935,0.0543,0.019,0.0,0.0,0.0,0.0,0.0,0.0,0.0,0.0,0.0,0.0,0.0,0.0,0.0,0.0,0.0,0.0,0.0,0.0,0.0,0.0,0.0,0.0,0.0,0.0,0.0,0.0,0.0,0.0,0.0,0.0,0.0,0.0,0.0,0.0,0.0,0.0,0.0,0.0,0.1522,0.415,0.4041,0.5657,0.8364,0.8255,0.8275,0.8391,0.8581,0.7731,0.6614,0.7865,0.5755,0.2348,0.3518,0.2219,0.0,0.0,0.0,0.0,0.0,0.0,0.0,0.0,0.0,0.0,0.0,0.0,0.0,0.0,0.0,0.0,0.0,0.0,0.0,0.0,0.0,0.0,0.0,0.0,0.0,0.0,0.0,0.0,0.0,0.0,0.0,0.0,0.0,0.0,0.0,0.0,0.0,0.0,0.0,0.0,0.0,0.0,0.0,0.0,0.0,0.0,0.0,0.0,0.0,0.0,0.1411,0.1545,0.0,0.2357,0.0,0.1048,0.0762,0.0,0.0,0.0,0.0,0.0,0.0,0.0,0.0,0.0,0.0,0.0,0.0,0.0,0.0,0.0,0.0,0.0,0.0,0.0,0.0,0.0,0.0,0.0,0.0,0.0,0.0,0.0,0.0,0.0,0.0,0.0,0.0,0.0,0.0,0.0,0.0,0.0,0.0,0.0,0.1462,0.4021,0.4017,0.5527,0.8015,0.8002,0.8008,0.8042,0.8384,0.7586,0.6341,0.6673,0.4846,0.2231,0.2289,0.1321,0.0,0.0,0.0,0.0,0.0,0.0,0.0,0.0,0.0,0.0,0.0,0.0,0.0,0.0,0.0,0.0,0.0,0.0,0.0,0.0,0.0,0.0,0.0,0.0,0.0,0.0,0.0,0.0,0.0,0.0,0.0,0.0,0.0,0.0,0.0,0.0,0.0,0.0,0.0,0.0,0.0,0.0,0.0,0.0,0.0,0.0,0.0,0.0,0.0,0.0,0.0067,0.1009,0.0,0.0,0.0,0.1982,0.1633,0.1307,0.0,0.0,0.0,0.0,0.0,0.0,0.0,0.0,0.0,0.0,0.0,0.0,0.0,0.0,0.0,0.0,0.0,0.0,0.0,0.0,0.0,0.0,0.0,0.0,0.0,0.0,0.0,0.0,0.0,0.0,0.0,0.0,0.0,0.0,0.0,0.0,0.0,0.0,0.146,0.4014,0.4014,0.5522,0.7988,0.7988,0.7988,0.7915,0.7315,0.6147,0.4843,0.5186,0.34,0.0928,0.1873,0.1253,0.0,0.0,0.0,0.0,0.0,0.0,0.0,0.0,0.0,0.0,0.0,0.0,0.0,0.0,0.0,0.0,0.0,0.0,0.0,0.0,0.0,0.0,0.0,0.0,0.0,0.0,0.0,0.0,0.0,0.0,0.0,0.0,0.0,0.0,0.0,0.0,0.0,0.0,0.0,0.0,0.0,0.0,0.0,0.0,0.0,0.0,0.0,0.0,0.0,0.0,0.1221,0.21,0.3303,0.0,0.0,0.0,0.0,0.1836,0.0,0.0,0.0,0.0,0.0,0.0,0.0,0.0,0.0,0.0,0.0,0.0,0.0,0.0,0.0,0.0,0.0,0.0,0.0,0.0,0.0,0.0,0.0,0.0,0.0,0.0,0.0,0.0,0.0,0.0,0.0,0.0,0.0,0.0,0.0,0.0,0.0,0.0,0.146,0.4014,0.4014,0.5522,0.7988,0.7988,0.7988,0.7865,0.6739,0.5352,0.3993,0.3807,0.2148,0.0115,0.1111,0.0832,0.0,0.0,0.0,0.0,0.0,0.0,0.0,0.0,0.0,0.0,0.0,0.0,0.0,0.0,0.0,0.0,0.0,0.0,0.0,0.0,0.0,0.0,0.0,0.0,0.0,0.0,0.0,0.0,0.0,0.0,0.0,0.0,0.0,0.0,0.0,0.0,0.0,0.0,0.0,0.0,0.0,0.0,0.0,0.0,0.0,0.0,0.0,0.0,0.0,0.0,0.1239,0.2472,0.0,0.0,0.0,0.0,0.0,0.0,0.175,0.0,0.0,0.0,0.0,0.0,0.0,0.0,0.0,0.0,0.0,0.0,0.0,0.0,0.0,0.0,0.0,0.0,0.0,0.0,0.0,0.0,0.0,0.0,0.0,0.0,0.0,0.0,0.0,0.0,0.0,0.0,0.0,0.0,0.0,0.0,0.0,0.0,0.146,0.3967,0.3964,0.5522,0.7939,0.7988,0.7995,0.7822,0.6692,0.5299,0.3784,0.2594,0.1244,0.0,0.0,0.0,0.0,0.0,0.0,0.0,0.0,0.0,0.0,0.0,0.0,0.0,0.0,0.0,0.0,0.0,0.0,0.0,0.0,0.0,0.0,0.0,0.0,0.0,0.0,0.0,0.0,0.0,0.0,0.0,0.0,0.0,0.0,0.0,0.0,0.0,0.0,0.0,0.0,0.0,0.0,0.0,0.0,0.0,0.0,0.0,0.0,0.0,0.0,0.0,0.0,0.0,0.014,0.2169,0.3214,0.0,0.0,0.0,0.0,0.0,0.2308,0.2184,0.0,0.0,0.0,0.0,0.0,0.0,0.0,0.0,0.0,0.0,0.0,0.0,0.0,0.0,0.0,0.0,0.0,0.0,0.0,0.0,0.0,0.0,0.0,0.0,0.0,0.0,0.0,0.0,0.0,0.0,0.0,0.0,0.0,0.0,0.0,0.0,0.0958,0.2615,0.3566,0.4968,0.6631,0.7584,0.7447,0.642,0.5147,0.3796,0.239,0.1111,0.0337,0.0,0.0,0.0,0.0,0.0,0.0,0.0,0.0,0.0,0.0,0.0,0.0,0.0,0.0,0.0,0.0,0.0,0.0,0.0,0.0,0.0,0.0,0.0,0.0,0.0,0.0,0.0,0.0,0.0,0.0,0.0,0.0,0.0,0.0,0.0,0.0,0.0,0.0,0.0,0.0,0.0,0.0,0.0,0.0,0.0,0.0,0.0,0.0,0.0,0.0,0.0,0.0,0.007,0.2796,0.5375,0.0,0.0,0.0,0.0,0.0,0.0,0.2729,0.2605,0.2316,0.0,0.0,0.0,0.0,0.0,0.0,0.0,0.0,0.0,0.0,0.0,0.0,0.0,0.0,0.0,0.0,0.0,0.0,0.0,0.0,0.0,0.0,0.0,0.0,0.0,0.0,0.0,0.0,0.0,0.0,0.0,0.0,0.0,0.0,0.0,0.0757,0.2063,0.3416,0.4418,0.5277,0.6637,0.6698,0.5798,0.3931,0.2702,0.186,0.0501,0.0,0.0,0.0,0.0,0.0,0.0,0.0,0.0,0.0,0.0,0.0,0.0,0.0,0.0,0.0,0.0,0.0,0.0,0.0,0.0,0.0,0.0,0.0,0.0,0.0,0.0,0.0,0.0,0.0,0.0,0.0,0.0,0.0,0.0,0.0,0.0,0.0,0.0,0.0,0.0,0.0,0.0,0.0,0.0,0.0,0.0,0.0,0.0,0.0,0.0,0.0,0.0,0.0434,0.1282,0.4261,0.674,0.0,0.0,0.0,0.0,0.0,0.0,0.2924,0.2669,0.2294,0.0,0.0,0.0,0.0,0.0,0.0,0.0,0.0,0.0,0.0,0.0,0.0,0.0,0.0,0.0,0.0,0.0,0.0,0.0,0.0,0.0,0.0,0.0,0.0,0.0,0.0,0.0,0.0,0.0,0.0,0.0,0.0,0.0,0.0,0.0,0.0656,0.1861,0.3215,0.3767,0.3874,0.5086,0.5545,0.5305,0.2907,0.1911,0.1645,0.0446,0.0,0.0,0.0,0.0,0.0,0.0,0.0,0.0,0.0,0.0,0.0,0.0,0.0,0.0,0.0,0.0,0.0,0.0,0.0,0.0,0.0,0.0,0.0,0.0,0.0,0.0,0.0,0.0,0.0,0.0,0.0,0.0,0.0,0.0,0.0,0.0,0.0,0.0,0.0,0.0,0.0069,0.0276,0.0141,0.0072,0.0287,0.0145,0.0,0.0,0.0,0.0,0.0,0.0219,0.1311,0.327,0.5229,0.7183,0.0,0.0,0.0,0.0,0.0,0.0,0.2449,0.2632,0.2581,0.0,0.0,0.0,0.0,0.0,0.0,0.0,0.0,0.0,0.0,0.0,0.0,0.0,0.0,0.0,0.0,0.0,0.0,0.0,0.0,0.0,0.0,0.0,0.0,0.0,0.0,0.0,0.0,0.0,0.0,0.0,0.0,0.0,0.0,0.0,0.0151,0.0454,0.1813,0.2414,0.2421,0.2659,0.2801,0.2755,0.222,0.1321,0.0335,0.0112,0.0,0.0,0.0,0.0,0.0,0.0,0.0,0.0,0.0,0.0,0.0,0.0,0.0,0.0,0.0,0.0,0.0,0.0,0.0,0.0,0.0,0.0,0.0,0.0,0.0,0.0,0.0,0.0,0.0,0.0,0.0,0.0,0.0,0.0,0.0,0.0,0.0,0.0,0.0,0.0,0.0701,0.2263,0.0855,0.0718,0.2245,0.0801,0.0,0.0,0.0,0.0,0.0,0.1602,0.3344,0.5301,0.7255,0.9141,0.0,0.0,0.0,0.2861,0.0,0.0,0.0,0.2744,0.2778,0.1954,0.0,0.0,0.0,0.0,0.0,0.0,0.0,0.0,0.0,0.0,0.0,0.0,0.0,0.0,0.0,0.0,0.0,0.0,0.0,0.0,0.0,0.0,0.0,0.0,0.0,0.0,0.0,0.0,0.0,0.0,0.0,0.0,0.0,0.0,0.0,0.005,0.141,0.1611,0.1061,0.1729,0.1595,0.1014,0.0986,0.0612,0.0,0.0,0.0,0.0,0.0,0.0,0.0,0.0,0.0,0.0,0.0,0.0,0.0,0.0,0.0,0.0,0.0,0.0,0.0,0.0,0.0,0.0,0.0,0.0,0.0,0.0,0.0,0.0,0.0,0.0,0.0,0.0,0.0,0.0,0.0,0.0,0.0,0.0,0.0,0.0,0.0,0.0,0.0426,0.1427,0.0503,0.0435,0.1384,0.051,0.0,0.0,0.0,0.0,0.0,0.2909,0.4866,0.5881,0.7761,0.9723,0.0,0.0,0.0,0.0,0.0,0.2678,0.0,0.0,0.0,0.2504,0.0,0.0,0.0,0.0,0.0,0.0,0.0,0.0,0.0,0.0,0.0,0.0,0.0,0.0,0.0,0.0,0.0,0.0,0.0,0.0,0.0,0.0,0.0,0.0,0.0,0.0,0.0,0.0,0.0,0.0,0.0,0.0,0.0,0.0,0.0,0.005,0.1163,0.1013,0.0102,0.1159,0.0963,0.0,0.0,0.0,0.0,0.0,0.0,0.0,0.0,0.0,0.0,0.0,0.0,0.0,0.0,0.0,0.0,0.0,0.0,0.0,0.0,0.0,0.0,0.0,0.0,0.0,0.0,0.0,0.0,0.0,0.0,0.0,0.0,0.0,0.0,0.0,0.0,0.0,0.0,0.0,0.0,0.0,0.0,0.0,0.0,0.0,0.0144,0.0503,0.0218,0.0146,0.051,0.0219,0.0,0.0,0.0,0.0,0.0,0.3925,0.5808,0.5881,0.8198,1.0083,0.0,0.0,0.0,0.0,0.2726,0.0,0.0,0.0,0.2646,0.2591,0.0,0.0,0.0,0.0,0.0,0.0,0.0,0.0,0.0,0.0,0.0,0.0,0.0,0.0,0.0,0.0,0.0,0.0,0.0,0.0,0.0,0.0,0.0,0.0,0.0,0.0,0.0,0.0,0.0,0.0,0.0,0.0,0.0,0.0,0.0,0.0,0.0154,0.0155,0.0,0.0161,0.0164,0.0,0.0,0.0,0.0,0.0,0.0,0.0,0.0,0.0,0.0,0.0,0.0,0.0,0.0,0.0,0.0,0.0,0.0,0.0,0.0,0.0,0.0,0.0,0.0,0.0,0.0,0.0,0.0,0.0,0.0,0.0,0.0,0.0,0.0,0.0,0.0,0.0,0.0,0.0,0.0,0.0,0.0,0.0,0.0,0.0,0.0727,0.2468,0.0947,0.0802,0.2472,0.0947,0.0,0.0,0.0,0.0,0.0,0.3925,0.5808,0.5881,0.9579,1.1397,0.0,0.0,0.0,0.0,0.0,0.0,0.2594,0.0,0.2822,0.0,0.0,0.0,0.0,0.0,0.0,0.0,0.0,0.0,0.0,0.0,0.0,0.0,0.0,0.0,0.0,0.0,0.0,0.0,0.0,0.0515,0.0485,0.0168,0.0,0.0,0.0,0.0,0.0,0.0,0.0,0.0,0.0,0.0,0.0,0.0,0.0,0.0,0.0,0.0,0.0,0.0,0.0,0.0,0.0,0.0,0.0,0.0,0.0,0.0,0.0,0.0,0.0,0.0,0.0,0.0,0.0,0.0,0.0,0.0,0.0,0.0,0.0,0.0,0.0,0.0,0.0,0.0,0.0,0.0,0.0,0.0,0.0,0.0,0.0,0.0,0.0,0.0,0.0,0.0,0.0,0.0,0.0,0.0,0.0,0.0,0.0,0.0,0.0365,0.1166,0.0437,0.0365,0.1166,0.1529,0.1166,0.0,0.1093,0.1093,0.0,0.3925,0.5808,0.5881,0.9801,1.1619,0.1833,0.0,0.0,0.0,0.0,0.0,0.0,0.0,0.0,0.0,0.0,0.0,0.0,0.0,0.0,0.0,0.0,0.0,0.0,0.0,0.0,0.0,0.0,0.0,0.0,0.0,0.0,0.0,0.1143,0.0,0.0839,0.0455,0.0172,0.0,0.0,0.0,0.0,0.0,0.0,0.0,0.0,0.0,0.0,0.0,0.0,0.0,0.0,0.0,0.0,0.0,0.0,0.0,0.0,0.0,0.0,0.0,0.0,0.0,0.0,0.0,0.0,0.0,0.0,0.0,0.0,0.0,0.0,0.0,0.0,0.0,0.0,0.0,0.0,0.0,0.0,0.0,0.0,0.0,0.0,0.0,0.0,0.0,0.0,0.0,0.0,0.0,0.0,0.0,0.0,0.0,0.0,0.0,0.0,0.0,0.0,0.0,0.0,0.0,0.0,0.0,0.0,0.1896,0.1968,0.0073,0.1895,0.1968,0.0,0.3932,0.5818,0.5912,0.9813,1.1619,0.0,0.0,0.0,0.1433,0.0,0.0,0.0,0.0,0.2587,0.0,0.0,0.0,0.0,0.0,0.0,0.0,0.0,0.0,0.0,0.0,0.0,0.0,0.0,0.0,0.0,0.0,0.0,0.0,0.1896,0.0,0.0918,0.0881,0.0606,0.0,0.0,0.0,0.0,0.0,0.0,0.0,0.0,0.0,0.0,0.0,0.0,0.0,0.0,0.0,0.0,0.0,0.0,0.0,0.0,0.0,0.0,0.0,0.0,0.0,0.0,0.0,0.0,0.0,0.0,0.0,0.0,0.0,0.0,0.0,0.0,0.0,0.0,0.0,0.0,0.0,0.0,0.0,0.0,0.0,0.0,0.0,0.0,0.0,0.0,0.0,0.0,0.0,0.0,0.0,0.0,0.0,0.0,0.0,0.0,0.0,0.0,0.0,0.0,0.0,0.0,0.0,0.0,0.1832,0.1976,0.0074,0.1904,0.1977,0.0,0.3875,0.5773,0.5917,0.978,1.1619,0.0,0.0,0.1017,0.0878,0.0,0.0,0.0,0.0,0.0,0.0,0.0,0.0,0.0,0.0,0.0,0.0,0.0,0.0,0.0,0.0,0.0,0.0,0.0,0.0,0.0,0.0,0.0,0.2503,0.2328,0.2036,0.0,0.0959,0.048,0.0,0.0,0.0,0.0,0.0,0.0,0.0,0.0,0.0,0.0,0.0,0.0,0.0,0.0,0.0,0.0,0.0,0.0,0.0,0.0,0.0,0.0,0.0,0.0,0.0,0.0,0.0,0.0,0.0,0.0,0.0,0.0,0.0,0.0,0.0,0.0,0.0,0.0,0.0,0.0,0.0,0.0,0.0,0.0,0.0,0.0,0.0,0.0,0.0,0.0,0.0,0.0,0.0,0.0,0.0,0.0,0.0,0.0,0.0,0.0,0.0,0.0,0.0,0.0,0.0,0.0,0.0,0.0,0.1896,0.1969,0.0073,0.1913,0.2584,0.2078,0.4683,0.6607,0.7915,1.0529,1.1708,0.0542,0.0538,0.0,0.0,0.085,0.0,0.1476,0.0,0.0,0.0,0.0,0.0,0.0,0.0,0.0,0.0,0.0,0.0,0.0,0.3161,0.0,0.0,0.0,0.0,0.0,0.0,0.3486,0.3006,0.2835,0.2422,0.0,0.0,0.0657,0.0,0.0,0.0,0.0,0.0,0.0,0.0,0.0,0.0,0.0,0.0,0.0,0.0,0.0,0.0,0.0,0.0,0.0,0.0,0.0,0.0,0.0,0.0,0.0,0.0,0.0,0.0,0.0,0.0,0.0,0.0,0.0,0.0,0.0,0.0,0.0,0.0,0.0,0.0,0.0,0.0,0.0,0.0,0.0,0.0,0.0,0.0,0.0,0.0,0.0,0.0,0.0,0.0,0.0,0.0,0.0,0.0,0.0,0.0,0.0,0.0,0.0,0.0,0.0,0.0,0.0,0.0,0.0,0.1845,0.2371,0.1197,0.306,0.4118,0.4306,0.6155,0.7695,0.8933,1.0846,1.1708]}]]